Darstellungsparameter: Aktuell verwendete Einstellungen:
Skalierung der Graphiken ... ?
xyx+y,   Skalierungsfaktor:      Skalierung: Modus: x, Faktor: 1
Darstellungszeitraum ... ?
Vom - - bis: - -   Zeitraum: 29.12.2016 - 28.06.2017
Min/Max/Avg-Anzeige ... ?
Zeige MMA aktuell
Zeige MMA Monat
Zeige MMA alles
Zeige --A aktuell
Zeige --A Monat
Zeige --A alles
Keine MMA-Anzeige
MMA:
Minimum Maximum Average (ber die Originaldaten)
MMA-Basis: 29.12.2016 - 28.06.2017
Quicknavigation für Darstellung... ?
Tage:      1T, 2T, 3T, 5T -1T -2T -3T -5T +1T +2T +3T +5T
Wochen: 1W, 2W, 3W -1W -2W -3W +1W +2W +3W
Monate: 1M, 3M, 6M -1M -3M -6M +1M +3M +6M
Jahre:    1J, 3J, 5J, 10J -1J -3J -5J -10J +1J +3J +5J +10J
Nutze für die Darstellung ... ?
Originaldaten oder ...
Mittelwerte Minima Maxima auf...
Stundenbasis Tagesbasis Wochenbasis
Monatsbasis Jahresbasis      Datenbasis: Mittelwerte auf Stundenbasis
Darstellen als:
Statistik (Auto) Statistik J:M      Darstellung:
Zur Graphik,    zurück zur Übersicht aller Sensoren.
 
Tabellarische Datenbersicht: ?
 
Sensor: Nr:Datum:Temp:Abs-Feuchte:Windchill:Wind:
Aussen-T/F 1 29-12-2016 00:00:00 -1.33333 C 4.2 g/m*3 -1.33 C 0 km/h
2 29-12-2016 01:00:00 -1.7 C 4.09 g/m*3 -1.7 C 0 km/h
3 29-12-2016 02:00:00 -1.8 C 4.08 g/m*3 -1.8 C 0 km/h
4 29-12-2016 03:00:00 -1.60833 C 4.16 g/m*3 -1.61 C 0.13333 km/h
5 29-12-2016 04:00:00 -1.80833 C 4.1 g/m*3 -1.81 C 1.33333 km/h
6 29-12-2016 05:00:00 -2.03333 C 4.04 g/m*3 -2.03 C 1.06667 km/h
7 29-12-2016 06:00:00 -2.25 C 3.98 g/m*3 -2.25 C 0 km/h
8 29-12-2016 07:00:00 -2.55833 C 3.89 g/m*3 -2.56 C 0.8 km/h
9 29-12-2016 08:00:00 -2.7 C 3.85 g/m*3 -2.7 C 1.46667 km/h
10 29-12-2016 09:00:00 -2.70833 C 3.85 g/m*3 -2.71 C 1.06667 km/h
11 29-12-2016 10:00:00 -2.68333 C 3.86 g/m*3 -2.68 C 0.13333 km/h
12 29-12-2016 11:00:00 -2.20833 C 3.99 g/m*3 -2.21 C 0.26667 km/h
13 29-12-2016 12:00:00 -1.84167 C 4.11 g/m*3 -1.84 C 1.33333 km/h
14 29-12-2016 13:00:00 -1.08333 C 4.36 g/m*3 -1.08 C 2.66667 km/h
15 29-12-2016 14:00:00 -0.44167 C 4.56 g/m*3 -0.44 C 2.66667 km/h
16 29-12-2016 15:00:00 -0.21667 C 4.63 g/m*3 -0.22 C 0.66667 km/h
17 29-12-2016 16:00:00 -0.60833 C 4.51 g/m*3 -0.61 C 0.13333 km/h
18 29-12-2016 17:00:00 -1.06667 C 4.36 g/m*3 -1.07 C 0 km/h
19 29-12-2016 18:00:00 -1.45 C 4.25 g/m*3 -1.45 C 0 km/h
20 29-12-2016 19:00:00 -1.65 C 4.19 g/m*3 -1.65 C 0 km/h
21 29-12-2016 20:00:00 -2.04167 C 4.08 g/m*3 -2.04 C 0 km/h
22 29-12-2016 21:00:00 -2.15 C 4.05 g/m*3 -2.15 C 0.26667 km/h
23 29-12-2016 22:00:00 -2.375 C 3.98 g/m*3 -2.38 C 0 km/h
24 29-12-2016 23:00:00 -2.50833 C 3.91 g/m*3 -2.51 C 0 km/h
25 30-12-2016 00:00:00 -2.575 C 3.89 g/m*3 -2.58 C 0.26667 km/h
Sensor: Nr:Datum:Temp:Abs-Feuchte:Windchill:Wind:
Aussen-T/F 26 30-12-2016 01:00:00 -2.63333 C 3.88 g/m*3 -2.63 C 0.26667 km/h
27 30-12-2016 02:00:00 -2.66667 C 3.86 g/m*3 -2.67 C 0 km/h
28 30-12-2016 03:00:00 -2.73333 C 3.85 g/m*3 -2.73 C 0.53333 km/h
29 30-12-2016 04:00:00 -2.69167 C 3.86 g/m*3 -2.69 C 0.53333 km/h
30 30-12-2016 05:00:00 -2.725 C 3.85 g/m*3 -2.73 C 0.8 km/h
31 30-12-2016 06:00:00 -2.89167 C 3.8 g/m*3 -2.89 C 0.53333 km/h
32 30-12-2016 07:00:00 -3.14167 C 3.73 g/m*3 -3.14 C 1.33333 km/h
33 30-12-2016 08:00:00 -3.14167 C 3.73 g/m*3 -3.14 C 1.2 km/h
34 30-12-2016 09:00:00 -2.91667 C 3.79 g/m*3 -2.92 C 1.6 km/h
35 30-12-2016 10:00:00 -2.8 C 3.82 g/m*3 -2.8 C 2.53333 km/h
36 30-12-2016 11:00:00 -2.58333 C 3.89 g/m*3 -2.58 C 3.86667 km/h
37 30-12-2016 12:00:00 -2.325 C 3.96 g/m*3 -2.33 C 2.93333 km/h
38 30-12-2016 13:00:00 -1.73333 C 4.17 g/m*3 -1.73 C 0.93333 km/h
39 30-12-2016 14:00:00 -1.29167 C 4.3 g/m*3 -1.29 C 0.53333 km/h
40 30-12-2016 15:00:00 -1.23333 C 4.31 g/m*3 -1.23 C 0.13333 km/h
41 30-12-2016 16:00:00 -1.19167 C 4.33 g/m*3 -1.19 C 0 km/h
42 30-12-2016 17:00:00 -1.39167 C 4.27 g/m*3 -1.39 C 0.26667 km/h
43 30-12-2016 18:00:00 -1.84167 C 4.13 g/m*3 -1.84 C 0 km/h
44 30-12-2016 19:00:00 -1.81667 C 4.14 g/m*3 -1.82 C 0.13333 km/h
45 30-12-2016 20:00:00 -2.06667 C 4.07 g/m*3 -2.07 C 1.2 km/h
46 30-12-2016 21:00:00 -2.525 C 3.92 g/m*3 -2.53 C 1.2 km/h
47 30-12-2016 22:00:00 -2.875 C 3.81 g/m*3 -2.88 C 1.2 km/h
48 30-12-2016 23:00:00 -3.09167 C 3.75 g/m*3 -3.09 C 3.33333 km/h
49 31-12-2016 00:00:00 -3.44167 C 3.65 g/m*3 -3.44 C 4.13333 km/h
50 31-12-2016 01:00:00 -3.875 C 3.54 g/m*3 -3.88 C 2 km/h
Sensor: Nr:Datum:Temp:Abs-Feuchte:Windchill:Wind:
Aussen-T/F 51 31-12-2016 02:00:00 -3.95833 C 3.52 g/m*3 -3.96 C 1.73333 km/h
52 31-12-2016 03:00:00 -3.94167 C 3.53 g/m*3 -3.94 C 0.13333 km/h
53 31-12-2016 04:00:00 -4 C 3.51 g/m*3 -4 C 0.26667 km/h
54 31-12-2016 05:00:00 -4.16667 C 3.46 g/m*3 -4.17 C 0.4 km/h
55 31-12-2016 06:00:00 -4.21667 C 3.45 g/m*3 -4.22 C 2.53333 km/h
56 31-12-2016 07:00:00 -4.58333 C 3.34 g/m*3 -4.58 C 1.73333 km/h
57 31-12-2016 08:00:00 -4.96667 C 3.24 g/m*3 -4.97 C 0 km/h
58 31-12-2016 09:00:00 -4.5 C 3.37 g/m*3 -4.5 C 1.33333 km/h
59 31-12-2016 10:00:00 -4.15 C 3.47 g/m*3 -4.15 C 1.73333 km/h
60 31-12-2016 11:00:00 -3.73333 C 3.58 g/m*3 -3.73 C 0.13333 km/h
61 31-12-2016 12:00:00 -3.38333 C 3.67 g/m*3 -3.38 C 0 km/h
62 31-12-2016 13:00:00 -2.825 C 3.82 g/m*3 -2.83 C 0 km/h
63 31-12-2016 14:00:00 -3.08333 C 3.75 g/m*3 -3.08 C 0 km/h
64 31-12-2016 15:00:00 -2.99167 C 3.77 g/m*3 -2.99 C 0.53333 km/h
65 31-12-2016 16:00:00 -2.99167 C 3.77 g/m*3 -2.99 C 0.53333 km/h
66 31-12-2016 17:00:00 -3.425 C 3.66 g/m*3 -3.43 C 0 km/h
67 31-12-2016 18:00:00 -4.3 C 3.41 g/m*3 -4.3 C 0 km/h
68 31-12-2016 19:00:00 -4.86667 C 3.27 g/m*3 -4.87 C 0 km/h
69 31-12-2016 20:00:00 -5.3 C 3.17 g/m*3 -5.3 C 0 km/h
70 31-12-2016 21:00:00 -5.11667 C 3.21 g/m*3 -5.12 C 0 km/h
71 31-12-2016 22:00:00 -4.925 C 3.26 g/m*3 -4.93 C 0.13333 km/h
72 31-12-2016 23:00:00 -5.425 C 3.14 g/m*3 -5.43 C 0.13333 km/h
73 01-01-2017 00:00:00 -4.675 C 3.32 g/m*3 -4.68 C 0 km/h
74 01-01-2017 01:00:00 -4.25833 C 3.44 g/m*3 -4.26 C 0 km/h
75 01-01-2017 02:00:00 -3.9 C 3.54 g/m*3 -3.9 C 0 km/h
Sensor: Nr:Datum:Temp:Abs-Feuchte:Windchill:Wind:
Aussen-T/F 76 01-01-2017 03:00:00 -3.70833 C 3.59 g/m*3 -3.71 C 0.26667 km/h
77 01-01-2017 04:00:00 -3.65833 C 3.6 g/m*3 -3.66 C 0 km/h
78 01-01-2017 05:00:00 -3.53333 C 3.63 g/m*3 -3.53 C 0.26667 km/h
79 01-01-2017 06:00:00 -3.30833 C 3.69 g/m*3 -3.31 C 0 km/h
80 01-01-2017 07:00:00 -3.2 C 3.72 g/m*3 -3.2 C 0 km/h
81 01-01-2017 08:00:00 -3.09167 C 3.75 g/m*3 -3.09 C 0.8 km/h
82 01-01-2017 09:00:00 -3.05833 C 3.76 g/m*3 -3.06 C 3.2 km/h
83 01-01-2017 10:00:00 -2.675 C 3.86 g/m*3 -2.68 C 2.8 km/h
84 01-01-2017 11:00:00 -2.175 C 4 g/m*3 -2.17 C 1.46667 km/h
85 01-01-2017 12:00:00 -1.46667 C 4.2 g/m*3 -1.47 C 0.4 km/h
86 01-01-2017 13:00:00 -0.775 C 4.42 g/m*3 -0.78 C 1.6 km/h
87 01-01-2017 14:00:00 -0.35 C 4.54 g/m*3 -0.35 C 2.13333 km/h
88 01-01-2017 15:00:00 -0.24167 C 4.57 g/m*3 -0.24 C 3.475 km/h
89 01-01-2017 16:00:00 -0.76667 C 4.37 g/m*3 -3.53 C 7.65833 km/h
90 01-01-2017 17:00:00 -1.325 C 4.19 g/m*3 -3.88 C 6.83333 km/h
91 01-01-2017 18:00:00 -1.68333 C 4.06 g/m*3 -5.15 C 9.4 km/h
92 01-01-2017 19:00:00 -1.75833 C 4.03 g/m*3 -4.01 C 5.90833 km/h
93 01-01-2017 20:00:00 -1.375 C 4.14 g/m*3 -4.33 C 7.91667 km/h
94 01-01-2017 21:00:00 -1.14167 C 4.21 g/m*3 -1.14 C 2.8 km/h
95 01-01-2017 22:00:00 -0.925 C 4.27 g/m*3 -0.93 C 4.80833 km/h
96 01-01-2017 23:00:00 -0.9 C 4.26 g/m*3 -2.96 C 5.75833 km/h
97 02-01-2017 00:00:00 -0.80833 C 4.26 g/m*3 -4.19 C 9.675 km/h
98 02-01-2017 01:00:00 -0.70833 C 4.29 g/m*3 -0.71 C 3.33333 km/h
99 02-01-2017 02:00:00 -0.55 C 4.33 g/m*3 -3.45 C 8.2 km/h
100 02-01-2017 03:00:00 -0.3 C 4.41 g/m*3 -4 C 11.29167 km/h
Sensor: Nr:Datum:Temp:Abs-Feuchte:Windchill:Wind:
Aussen-T/F 101 02-01-2017 04:00:00 -0.19167 C 4.43 g/m*3 -3.15 C 8.6 km/h
102 02-01-2017 05:00:00 -0.15833 C 4.46 g/m*3 -2.81 C 7.65833 km/h
103 02-01-2017 06:00:00 -0.1 C 4.5 g/m*3 -2.51 C 6.975 km/h
104 02-01-2017 07:00:00 -0.025 C 4.55 g/m*3 -0.03 C 4.4 km/h
105 02-01-2017 08:00:00 -0.03333 C 4.58 g/m*3 -0.03 C 4.13333 km/h
106 02-01-2017 09:00:00 0.16667 C 4.66 g/m*3 -1.56 C 5.34167 km/h
107 02-01-2017 10:00:00 0.35 C 4.72 g/m*3 0.35 C 3.6 km/h
108 02-01-2017 11:00:00 0.70833 C 4.83 g/m*3 0.71 C 1.86667 km/h
109 02-01-2017 12:00:00 1.26667 C 5.02 g/m*3 1.27 C 2.8 km/h
110 02-01-2017 13:00:00 1.69167 C 5.17 g/m*3 1.69 C 1.06667 km/h
111 02-01-2017 14:00:00 2.15 C 5.29 g/m*3 2.15 C 2.275 km/h
112 02-01-2017 15:00:00 2.475 C 5.41 g/m*3 2.48 C 0.26667 km/h
113 02-01-2017 16:00:00 1.83333 C 5.17 g/m*3 1.83 C 2.26667 km/h
114 02-01-2017 17:00:00 1.525 C 5.07 g/m*3 1.53 C 2.53333 km/h
115 02-01-2017 18:00:00 1.29167 C 4.99 g/m*3 1.29 C 2.94167 km/h
116 02-01-2017 19:00:00 1.24167 C 5 g/m*3 1.24 C 1.46667 km/h
117 02-01-2017 20:00:00 1.225 C 5.02 g/m*3 1.23 C 1.73333 km/h
118 02-01-2017 21:00:00 1.15 C 5.03 g/m*3 1.15 C 2.26667 km/h
119 02-01-2017 22:00:00 1.025 C 4.99 g/m*3 1.02 C 0.13333 km/h
120 02-01-2017 23:00:00 1.1 C 5.02 g/m*3 1.1 C 0 km/h
121 03-01-2017 00:00:00 1.025 C 4.99 g/m*3 1.02 C 0.8 km/h
122 03-01-2017 01:00:00 1.03333 C 4.99 g/m*3 1.03 C 0.26667 km/h
123 03-01-2017 02:00:00 1 C 5 g/m*3 -0.55 C 5.21667 km/h
124 03-01-2017 03:00:00 0.93333 C 4.96 g/m*3 0.93 C 3.86667 km/h
125 03-01-2017 04:00:00 1.2 C 5.02 g/m*3 -0.71 C 6.15833 km/h
Sensor: Nr:Datum:Temp:Abs-Feuchte:Windchill:Wind:
Aussen-T/F 126 03-01-2017 05:00:00 1.29167 C 5.03 g/m*3 1.29 C 4.425 km/h
127 03-01-2017 06:00:00 1.25 C 5.02 g/m*3 -0.7 C 6.29167 km/h
128 03-01-2017 07:00:00 1.38333 C 5.06 g/m*3 -0.87 C 7.23333 km/h
129 03-01-2017 08:00:00 1.425 C 5.03 g/m*3 -0.4 C 6.03333 km/h
130 03-01-2017 09:00:00 1.75 C 5.11 g/m*3 -1.01 C 9.16667 km/h
131 03-01-2017 10:00:00 2.19167 C 5.2 g/m*3 -0.51 C 9.275 km/h
132 03-01-2017 11:00:00 1.98333 C 5.14 g/m*3 0.05 C 6.56667 km/h
133 03-01-2017 12:00:00 2.525 C 5.21 g/m*3 0.21 C 8.05833 km/h
134 03-01-2017 13:00:00 3.08333 C 5.22 g/m*3 0.76 C 8.45833 km/h
135 03-01-2017 14:00:00 3.11667 C 5.11 g/m*3 0.42 C 9.95 km/h
136 03-01-2017 15:00:00 2.825 C 4.99 g/m*3 0.89 C 6.975 km/h
137 03-01-2017 16:00:00 2.075 C 4.9 g/m*3 0.11 C 6.7 km/h
138 03-01-2017 17:00:00 2.18333 C 4.97 g/m*3 -0.82 C 10.49167 km/h
139 03-01-2017 18:00:00 1.925 C 4.89 g/m*3 -1.29 C 11.16667 km/h
140 03-01-2017 19:00:00 1.6 C 4.79 g/m*3 -1.83 C 11.825 km/h
141 03-01-2017 20:00:00 1.65833 C 4.82 g/m*3 -1.32 C 9.94167 km/h
142 03-01-2017 21:00:00 2.00833 C 4.95 g/m*3 -0.87 C 9.80833 km/h
143 03-01-2017 22:00:00 2.25833 C 5.03 g/m*3 -1.03 C 11.825 km/h
144 03-01-2017 23:00:00 2.39167 C 5.08 g/m*3 -1.43 C 14.76667 km/h
145 04-01-2017 00:00:00 2.275 C 5.09 g/m*3 0.29 C 6.84167 km/h
146 04-01-2017 01:00:00 2.325 C 5.17 g/m*3 -0.39 C 9.40833 km/h
147 04-01-2017 02:00:00 2.75 C 5.27 g/m*3 -0.14 C 10.49167 km/h
148 04-01-2017 03:00:00 2.76667 C 5.28 g/m*3 -0.85 C 14.1 km/h
149 04-01-2017 04:00:00 2.80833 C 5.35 g/m*3 -0.55 C 12.76667 km/h
150 04-01-2017 05:00:00 3.25 C 5.52 g/m*3 -0.67 C 16.63333 km/h
Sensor: Nr:Datum:Temp:Abs-Feuchte:Windchill:Wind:
Aussen-T/F 151 04-01-2017 06:00:00 3.54167 C 5.56 g/m*3 -0.03 C 14.9 km/h
152 04-01-2017 07:00:00 3.44167 C 5.63 g/m*3 -0.7 C 18.5 km/h
153 04-01-2017 08:00:00 3.45833 C 5.67 g/m*3 0.53 C 11.29167 km/h
154 04-01-2017 09:00:00 3.66667 C 5.76 g/m*3 0.96 C 10.48333 km/h
155 04-01-2017 10:00:00 3.7 C 5.86 g/m*3 0.91 C 10.9 km/h
156 04-01-2017 11:00:00 4.725 C 6.02 g/m*3 2.09 C 11.15 km/h
157 04-01-2017 12:00:00 5.00833 C 5.86 g/m*3 1.63 C 15.83333 km/h
158 04-01-2017 13:00:00 5.46667 C 5.92 g/m*3 2.36 C 14.75833 km/h
159 04-01-2017 14:00:00 5.76667 C 5.69 g/m*3 2.46 C 16.63333 km/h
160 04-01-2017 15:00:00 3.725 C 5.43 g/m*3 0.8 C 11.54167 km/h
161 04-01-2017 16:00:00 2.44167 C 5.36 g/m*3 2.44 C 4.13333 km/h
162 04-01-2017 17:00:00 3.275 C 5.57 g/m*3 0.52 C 10.325 km/h
163 04-01-2017 18:00:00 4 C 5.46 g/m*3 1.03 C 12.1 km/h
164 04-01-2017 19:00:00 3.90833 C 5.56 g/m*3 0.46 C 14.63333 km/h
165 04-01-2017 20:00:00 3.18333 C 5.52 g/m*3 1.1 C 7.65833 km/h
166 04-01-2017 21:00:00 3.19167 C 5.6 g/m*3 1.19 C 7.39167 km/h
167 04-01-2017 22:00:00 3.425 C 5.6 g/m*3 0.7 C 10.34167 km/h
168 04-01-2017 23:00:00 2.39167 C 5.3 g/m*3 0.38 C 6.98333 km/h
169 05-01-2017 00:00:00 2.24167 C 5.26 g/m*3 0.86 C 5.225 km/h
170 05-01-2017 01:00:00 2.31667 C 5.3 g/m*3 2.32 C 4.01667 km/h
171 05-01-2017 02:00:00 2.08333 C 5.16 g/m*3 0.74 C 5.08333 km/h
172 05-01-2017 03:00:00 1.15 C 4.9 g/m*3 1.15 C 2 km/h
173 05-01-2017 04:00:00 0.96667 C 4.85 g/m*3 0.97 C 2.53333 km/h
174 05-01-2017 05:00:00 1.39167 C 4.95 g/m*3 1.39 C 2.675 km/h
175 05-01-2017 06:00:00 1.775 C 5.05 g/m*3 1.78 C 4.69167 km/h
Sensor: Nr:Datum:Temp:Abs-Feuchte:Windchill:Wind:
Aussen-T/F 176 05-01-2017 07:00:00 1.59167 C 4.96 g/m*3 1.59 C 3.33333 km/h
177 05-01-2017 08:00:00 0.78333 C 4.66 g/m*3 0.78 C 3.06667 km/h
178 05-01-2017 09:00:00 0.49167 C 4.41 g/m*3 -1.25 C 5.5 km/h
179 05-01-2017 10:00:00 0.775 C 4.18 g/m*3 -2.16 C 9.15 km/h
180 05-01-2017 11:00:00 0.95 C 4.04 g/m*3 -2.58 C 11.7 km/h
181 05-01-2017 12:00:00 1.2 C 3.88 g/m*3 -2.62 C 13.3 km/h
182 05-01-2017 13:00:00 1.24167 C 3.8 g/m*3 -2.23 C 11.7 km/h
183 05-01-2017 14:00:00 1.23333 C 3.67 g/m*3 -2.5 C 12.9 km/h
184 05-01-2017 15:00:00 0.96667 C 3.51 g/m*3 -2.59 C 11.80833 km/h
185 05-01-2017 16:00:00 0.48333 C 3.4 g/m*3 -2.06 C 7.65833 km/h
186 05-01-2017 17:00:00 -0.55 C 3.43 g/m*3 -0.55 C 4.93333 km/h
187 05-01-2017 18:00:00 -1.10833 C 3.36 g/m*3 -1.11 C 4.95 km/h
188 05-01-2017 19:00:00 -2.30833 C 3.22 g/m*3 -2.31 C 1.74167 km/h
189 05-01-2017 20:00:00 -3.33333 C 3.15 g/m*3 -3.33 C 0.8 km/h
190 05-01-2017 21:00:00 -3.91667 C 3.08 g/m*3 -3.92 C 1.06667 km/h
191 05-01-2017 22:00:00 -4.475 C 3.04 g/m*3 -4.47 C 0 km/h
192 05-01-2017 23:00:00 -4.825 C 3.02 g/m*3 -4.83 C 0 km/h
193 06-01-2017 00:00:00 -5.25833 C 2.95 g/m*3 -5.26 C 0 km/h
194 06-01-2017 01:00:00 -5.94167 C 2.86 g/m*3 -5.94 C 0 km/h
195 06-01-2017 02:00:00 -6.48333 C 2.78 g/m*3 -6.48 C 0 km/h
196 06-01-2017 03:00:00 -6.9 C 2.72 g/m*3 -6.9 C 0 km/h
197 06-01-2017 04:00:00 -7.29167 C 2.66 g/m*3 -7.29 C 0 km/h
198 06-01-2017 05:00:00 -7.55833 C 2.62 g/m*3 -7.56 C 0 km/h
199 06-01-2017 06:00:00 -7.80833 C 2.58 g/m*3 -7.81 C 0 km/h
200 06-01-2017 07:00:00 -8.11667 C 2.52 g/m*3 -8.12 C 0 km/h
Sensor: Nr:Datum:Temp:Abs-Feuchte:Windchill:Wind:
Aussen-T/F 201 06-01-2017 08:00:00 -8.2 C 2.51 g/m*3 -8.2 C 0 km/h
202 06-01-2017 09:00:00 -8.04167 C 2.54 g/m*3 -8.04 C 0 km/h
203 06-01-2017 10:00:00 -7.40833 C 2.68 g/m*3 -7.41 C 0 km/h
204 06-01-2017 11:00:00 -6.15 C 2.94 g/m*3 -6.15 C 0 km/h
205 06-01-2017 12:00:00 -5.31667 C 3.11 g/m*3 -5.32 C 0 km/h
206 06-01-2017 13:00:00 -4.50833 C 3.22 g/m*3 -4.51 C 0 km/h
207 06-01-2017 14:00:00 -4.13333 C 3.25 g/m*3 -4.13 C 0.66667 km/h
208 06-01-2017 15:00:00 -4.175 C 3.16 g/m*3 -4.18 C 2.93333 km/h
209 06-01-2017 16:00:00 -4.45833 C 2.99 g/m*3 -4.46 C 4.93333 km/h
210 06-01-2017 17:00:00 -5.1 C 2.83 g/m*3 -5.1 C 3.6 km/h
211 06-01-2017 18:00:00 -5.85 C 2.75 g/m*3 -5.85 C 1.33333 km/h
212 06-01-2017 19:00:00 -6.39167 C 2.68 g/m*3 -6.39 C 0.53333 km/h
213 06-01-2017 20:00:00 -6.96667 C 2.61 g/m*3 -6.97 C 0 km/h
214 06-01-2017 21:00:00 -7.58333 C 2.53 g/m*3 -7.58 C 0.13333 km/h
215 06-01-2017 22:00:00 -7.80833 C 2.5 g/m*3 -7.81 C 0.13333 km/h
216 06-01-2017 23:00:00 -8.1 C 2.45 g/m*3 -8.1 C 0.26667 km/h
217 07-01-2017 00:00:00 -8.41667 C 2.41 g/m*3 -8.42 C 0.13333 km/h
218 07-01-2017 01:00:00 -8.75833 C 2.35 g/m*3 -8.76 C 0 km/h
219 07-01-2017 02:00:00 -8.59167 C 2.41 g/m*3 -8.59 C 0 km/h
220 07-01-2017 03:00:00 -7.88333 C 2.55 g/m*3 -7.88 C 0.53333 km/h
221 07-01-2017 04:00:00 -7.375 C 2.63 g/m*3 -7.38 C 0.13333 km/h
222 07-01-2017 05:00:00 -6.94167 C 2.69 g/m*3 -6.94 C 0 km/h
223 07-01-2017 06:00:00 -6.375 C 2.78 g/m*3 -6.38 C 0.53333 km/h
224 07-01-2017 07:00:00 -5.76667 C 2.85 g/m*3 -5.77 C 0.26667 km/h
225 07-01-2017 08:00:00 -5.325 C 2.92 g/m*3 -5.33 C 0 km/h
Sensor: Nr:Datum:Temp:Abs-Feuchte:Windchill:Wind:
Aussen-T/F 226 07-01-2017 09:00:00 -4.64167 C 2.98 g/m*3 -4.64 C 4.28333 km/h
227 07-01-2017 10:00:00 -3.775 C 2.98 g/m*3 -6.61 C 6.56667 km/h
228 07-01-2017 11:00:00 -2.775 C 2.85 g/m*3 -6.02 C 8.06667 km/h
229 07-01-2017 12:00:00 -2.19167 C 2.69 g/m*3 -5.68 C 9.14167 km/h
230 07-01-2017 13:00:00 -2.075 C 2.81 g/m*3 -6 C 10.75833 km/h
231 07-01-2017 14:00:00 -2.34167 C 3.24 g/m*3 -5.06 C 6.84167 km/h
232 07-01-2017 15:00:00 -2.45833 C 3.56 g/m*3 -2.46 C 2.8 km/h
233 07-01-2017 16:00:00 -2.61667 C 3.65 g/m*3 -6.06 C 8.73333 km/h
234 07-01-2017 17:00:00 -2.53333 C 3.7 g/m*3 -6.09 C 9.15 km/h
235 07-01-2017 18:00:00 -2.25 C 3.78 g/m*3 -6.49 C 11.83333 km/h
236 07-01-2017 19:00:00 -1.94167 C 3.81 g/m*3 -6.36 C 12.9 km/h
237 07-01-2017 20:00:00 -1.69167 C 3.92 g/m*3 -5.87 C 12.1 km/h
238 07-01-2017 21:00:00 -1.53333 C 3.99 g/m*3 -5.1 C 9.81667 km/h
239 07-01-2017 22:00:00 -1.40833 C 4.09 g/m*3 -4.83 C 9.425 km/h
240 07-01-2017 23:00:00 -1.3 C 4.16 g/m*3 -4.67 C 9.29167 km/h
241 08-01-2017 00:00:00 -1.06667 C 4.22 g/m*3 -3.64 C 6.98333 km/h
242 08-01-2017 01:00:00 -0.94167 C 4.3 g/m*3 -3.99 C 8.46667 km/h
243 08-01-2017 02:00:00 -0.84167 C 4.34 g/m*3 -3.38 C 6.98333 km/h
244 08-01-2017 03:00:00 -0.73333 C 4.37 g/m*3 -0.73 C 2 km/h
245 08-01-2017 04:00:00 -0.575 C 4.42 g/m*3 -0.57 C 4.95 km/h
246 08-01-2017 05:00:00 -0.38333 C 4.48 g/m*3 -0.38 C 4.15 km/h
247 08-01-2017 06:00:00 -0.3 C 4.51 g/m*3 -0.3 C 4.54167 km/h
248 08-01-2017 07:00:00 -0.25 C 4.52 g/m*3 -0.25 C 2 km/h
249 08-01-2017 08:00:00 -0.11667 C 4.58 g/m*3 -0.12 C 2.93333 km/h
250 08-01-2017 09:00:00 0.18333 C 4.71 g/m*3 0.18 C 2.95 km/h
Sensor: Nr:Datum:Temp:Abs-Feuchte:Windchill:Wind:
Aussen-T/F 251 08-01-2017 10:00:00 0.53333 C 4.83 g/m*3 0.53 C 3.73333 km/h
252 08-01-2017 11:00:00 0.78333 C 4.9 g/m*3 0.78 C 4.4 km/h
253 08-01-2017 12:00:00 1.10833 C 5.02 g/m*3 1.11 C 3.20833 km/h
254 08-01-2017 13:00:00 1.49167 C 5.15 g/m*3 1.49 C 1.06667 km/h
255 08-01-2017 14:00:00 1.73333 C 5.21 g/m*3 1.73 C 0.53333 km/h
256 08-01-2017 15:00:00 1.8 C 5.21 g/m*3 1.8 C 3.06667 km/h
257 08-01-2017 16:00:00 1.73333 C 5.18 g/m*3 1.73 C 0.13333 km/h
258 08-01-2017 17:00:00 1.66667 C 5.21 g/m*3 1.67 C 0.13333 km/h
259 08-01-2017 18:00:00 1.44167 C 5.14 g/m*3 1.44 C 0 km/h
260 08-01-2017 19:00:00 1.4 C 5.12 g/m*3 1.4 C 0 km/h
261 08-01-2017 20:00:00 1.4 C 5.12 g/m*3 1.4 C 0.26667 km/h
262 08-01-2017 21:00:00 1.40833 C 5.12 g/m*3 1.41 C 0.8 km/h
263 08-01-2017 22:00:00 1.46667 C 5.14 g/m*3 1.47 C 0.8 km/h
264 08-01-2017 23:00:00 1.29167 C 5.08 g/m*3 1.29 C 0 km/h
265 09-01-2017 00:00:00 1.1 C 5.02 g/m*3 1.1 C 0 km/h
266 09-01-2017 01:00:00 1.1 C 5.02 g/m*3 1.1 C 0.26667 km/h
267 09-01-2017 02:00:00 1.08333 C 5.03 g/m*3 1.08 C 0 km/h
268 09-01-2017 03:00:00 1 C 5.03 g/m*3 1 C 0.13333 km/h
269 09-01-2017 04:00:00 1.01667 C 5.04 g/m*3 1.02 C 0.26667 km/h
270 09-01-2017 05:00:00 1.00833 C 5.04 g/m*3 1.01 C 0.4 km/h
271 09-01-2017 06:00:00 0.975 C 5.03 g/m*3 0.98 C 0.13333 km/h
272 09-01-2017 07:00:00 0.975 C 5.03 g/m*3 0.98 C 0.13333 km/h
273 09-01-2017 08:00:00 1.1 C 5.07 g/m*3 1.1 C 0.53333 km/h
274 09-01-2017 09:00:00 1.175 C 5.1 g/m*3 1.18 C 0 km/h
275 09-01-2017 10:00:00 1.68333 C 5.28 g/m*3 1.68 C 1.33333 km/h
Sensor: Nr:Datum:Temp:Abs-Feuchte:Windchill:Wind:
Aussen-T/F 276 09-01-2017 11:00:00 2.19167 C 5.46 g/m*3 2.19 C 1.60833 km/h
277 09-01-2017 12:00:00 2.925 C 5.58 g/m*3 2.93 C 4.00833 km/h
278 09-01-2017 13:00:00 3.59167 C 5.56 g/m*3 3.59 C 4.28333 km/h
279 09-01-2017 14:00:00 3.95833 C 5.62 g/m*3 2.77 C 5.34167 km/h
280 09-01-2017 15:00:00 3.79167 C 5.54 g/m*3 2.01 C 6.98333 km/h
281 09-01-2017 16:00:00 3.41667 C 5.47 g/m*3 1.71 C 6.56667 km/h
282 09-01-2017 17:00:00 2.76667 C 5.34 g/m*3 2.77 C 4.28333 km/h
283 09-01-2017 18:00:00 2.71667 C 5.37 g/m*3 2.72 C 1.46667 km/h
284 09-01-2017 19:00:00 2.90833 C 5.37 g/m*3 2.91 C 2.00833 km/h
285 09-01-2017 20:00:00 2.70833 C 5.34 g/m*3 2.71 C 0.93333 km/h
286 09-01-2017 21:00:00 2.69167 C 5.36 g/m*3 2.69 C 0.53333 km/h
287 09-01-2017 22:00:00 2.75833 C 5.39 g/m*3 2.76 C 1.875 km/h
288 09-01-2017 23:00:00 2.95833 C 5.41 g/m*3 2.96 C 1.06667 km/h
289 10-01-2017 00:00:00 2.79167 C 5.37 g/m*3 2.79 C 0.8 km/h
290 10-01-2017 01:00:00 2.74167 C 5.38 g/m*3 2.74 C 0.53333 km/h
291 10-01-2017 02:00:00 2.44167 C 5.31 g/m*3 2.44 C 1.86667 km/h
292 10-01-2017 03:00:00 1.975 C 5.21 g/m*3 1.98 C 0 km/h
293 10-01-2017 04:00:00 1.41667 C 5.06 g/m*3 1.42 C 0 km/h
294 10-01-2017 05:00:00 1.075 C 4.96 g/m*3 1.08 C 0.13333 km/h
295 10-01-2017 06:00:00 0.925 C 4.96 g/m*3 0.93 C 0.4 km/h
296 10-01-2017 07:00:00 0.89167 C 4.95 g/m*3 0.89 C 0 km/h
297 10-01-2017 08:00:00 0.825 C 4.92 g/m*3 0.83 C 0 km/h
298 10-01-2017 09:00:00 0.84167 C 4.93 g/m*3 0.84 C 0 km/h
299 10-01-2017 10:00:00 1.18333 C 5.06 g/m*3 1.18 C 0 km/h
300 10-01-2017 11:00:00 1.34167 C 5.1 g/m*3 1.34 C 0 km/h
Sensor: Nr:Datum:Temp:Abs-Feuchte:Windchill:Wind:
Aussen-T/F 301 10-01-2017 12:00:00 1.63333 C 5.21 g/m*3 1.63 C 0 km/h
302 10-01-2017 13:00:00 1.78333 C 5.26 g/m*3 1.78 C 0.13333 km/h
303 10-01-2017 14:00:00 1.88333 C 5.29 g/m*3 1.88 C 0 km/h
304 10-01-2017 15:00:00 1.75833 C 5.25 g/m*3 1.76 C 0.13333 km/h
305 10-01-2017 16:00:00 1.275 C 5.08 g/m*3 1.27 C 0.8 km/h
306 10-01-2017 17:00:00 1.175 C 5.04 g/m*3 1.18 C 0.53333 km/h
307 10-01-2017 18:00:00 0.71667 C 4.89 g/m*3 0.72 C 0 km/h
308 10-01-2017 19:00:00 0.95833 C 5.02 g/m*3 0.96 C 0.13333 km/h
309 10-01-2017 20:00:00 1.00833 C 5.04 g/m*3 1.01 C 0.13333 km/h
310 10-01-2017 21:00:00 1.1 C 5.07 g/m*3 1.1 C 0 km/h
311 10-01-2017 22:00:00 0.96667 C 5.02 g/m*3 0.97 C 0 km/h
312 10-01-2017 23:00:00 1.08333 C 5.06 g/m*3 1.08 C 0 km/h
313 11-01-2017 00:00:00 1.1 C 5.07 g/m*3 1.1 C 0 km/h
314 11-01-2017 01:00:00 1.1 C 5.07 g/m*3 1.1 C 0 km/h
315 11-01-2017 02:00:00 1.01667 C 5.04 g/m*3 1.02 C 0 km/h
316 11-01-2017 03:00:00 1.08333 C 5.06 g/m*3 1.08 C 0 km/h
317 11-01-2017 04:00:00 1.34167 C 5.15 g/m*3 1.34 C 1.73333 km/h
318 11-01-2017 05:00:00 1.625 C 5.25 g/m*3 1.63 C 1.33333 km/h
319 11-01-2017 06:00:00 1.825 C 5.33 g/m*3 1.83 C 1.73333 km/h
320 11-01-2017 07:00:00 2.19167 C 5.46 g/m*3 2.19 C 2.93333 km/h
321 11-01-2017 08:00:00 2.45 C 5.56 g/m*3 2.45 C 1.86667 km/h
322 11-01-2017 09:00:00 2.60833 C 5.63 g/m*3 2.61 C 3.06667 km/h
323 11-01-2017 10:00:00 3.79167 C 6.11 g/m*3 0.88 C 11.56667 km/h
324 11-01-2017 11:00:00 4.64167 C 6.34 g/m*3 1.91 C 11.56667 km/h
325 11-01-2017 12:00:00 5.23333 C 6.41 g/m*3 1.27 C 20.775 km/h
Sensor: Nr:Datum:Temp:Abs-Feuchte:Windchill:Wind:
Aussen-T/F 326 11-01-2017 13:00:00 5.39167 C 6.4 g/m*3 1.33 C 21.98333 km/h
327 11-01-2017 14:00:00 5.31667 C 6.47 g/m*3 1.69 C 18.24167 km/h
328 11-01-2017 15:00:00 5.64167 C 6.59 g/m*3 2.32 C 16.5 km/h
329 11-01-2017 16:00:00 5.69167 C 6.67 g/m*3 3.13 C 11.83333 km/h
330 11-01-2017 17:00:00 5.6 C 6.7 g/m*3 3.76 C 8.33333 km/h
331 11-01-2017 18:00:00 5.325 C 6.52 g/m*3 3.09 C 9.78333 km/h
332 11-01-2017 19:00:00 5.55 C 6.36 g/m*3 3.86 C 7.675 km/h
333 11-01-2017 20:00:00 5.575 C 6.17 g/m*3 3.28 C 10.33333 km/h
334 11-01-2017 21:00:00 5.95 C 5.94 g/m*3 2.84 C 15.56667 km/h
335 11-01-2017 22:00:00 4.975 C 5.71 g/m*3 2.79 C 9.28333 km/h
336 11-01-2017 23:00:00 4.40833 C 5.56 g/m*3 2.86 C 6.56667 km/h
337 12-01-2017 00:00:00 4.15833 C 5.55 g/m*3 2.2 C 7.8 km/h
338 12-01-2017 01:00:00 3.76667 C 5.47 g/m*3 2.12 C 6.55833 km/h
339 12-01-2017 02:00:00 3.69167 C 5.3 g/m*3 1.43 C 8.60833 km/h
340 12-01-2017 03:00:00 3.18333 C 5.23 g/m*3 1.26 C 7.11667 km/h
341 12-01-2017 04:00:00 2.71667 C 5.19 g/m*3 0.72 C 7.11667 km/h
342 12-01-2017 05:00:00 3.15833 C 5.32 g/m*3 1.11 C 7.51667 km/h
343 12-01-2017 06:00:00 2.81667 C 5.23 g/m*3 1.3 C 5.75833 km/h
344 12-01-2017 07:00:00 3.01667 C 5.28 g/m*3 0.57 C 8.86667 km/h
345 12-01-2017 08:00:00 3.725 C 5.39 g/m*3 0.69 C 12.09167 km/h
346 12-01-2017 09:00:00 3.76667 C 5.47 g/m*3 0.99 C 10.9 km/h
347 12-01-2017 10:00:00 4.375 C 5.66 g/m*3 1.69 C 11.025 km/h
348 12-01-2017 11:00:00 5.225 C 5.89 g/m*3 2.17 C 14.1 km/h
349 12-01-2017 12:00:00 5.65 C 6.06 g/m*3 3.33 C 10.49167 km/h
350 12-01-2017 13:00:00 6.05 C 6.14 g/m*3 2.83 C 16.50833 km/h
Sensor: Nr:Datum:Temp:Abs-Feuchte:Windchill:Wind:
Aussen-T/F 351 12-01-2017 14:00:00 6.24167 C 6.1 g/m*3 3.05 C 16.63333 km/h
352 12-01-2017 15:00:00 5.975 C 6.21 g/m*3 3.49 C 11.7 km/h
353 12-01-2017 16:00:00 5.61667 C 6.16 g/m*3 3.16 C 11.15833 km/h
354 12-01-2017 17:00:00 5.175 C 6.04 g/m*3 3.39 C 7.80833 km/h
355 12-01-2017 18:00:00 4.96667 C 5.9 g/m*3 4.97 C 2.4 km/h
356 12-01-2017 19:00:00 4.55833 C 5.98 g/m*3 4.56 C 1.2 km/h
357 12-01-2017 20:00:00 4.03333 C 5.99 g/m*3 4.03 C 3.2 km/h
358 12-01-2017 21:00:00 3.81667 C 5.97 g/m*3 3.82 C 3.875 km/h
359 12-01-2017 22:00:00 3.73333 C 5.93 g/m*3 3.73 C 1.6 km/h
360 12-01-2017 23:00:00 3.94167 C 6.07 g/m*3 3.94 C 4.95833 km/h
361 13-01-2017 00:00:00 4.79167 C 6.42 g/m*3 2.52 C 9.525 km/h
362 13-01-2017 01:00:00 5.03333 C 6.07 g/m*3 0.5 C 25.63333 km/h
363 13-01-2017 02:00:00 3.51667 C 5.51 g/m*3 -2.3 C 34.85833 km/h
364 13-01-2017 03:00:00 3.14167 C 5.38 g/m*3 -2.72 C 33.925 km/h
365 13-01-2017 04:00:00 2.98333 C 5.36 g/m*3 -1.82 C 22.78333 km/h
366 13-01-2017 05:00:00 2.4 C 5.33 g/m*3 -2.83 C 25.05833 km/h
367 13-01-2017 06:00:00 1.78333 C 5.2 g/m*3 -3.34 C 22.64167 km/h
368 13-01-2017 07:00:00 1.73333 C 5.18 g/m*3 -2.82 C 18.375 km/h
369 13-01-2017 08:00:00 1.75833 C 5.23 g/m*3 -2.79 C 18.36667 km/h
370 13-01-2017 09:00:00 2.1 C 5.3 g/m*3 -1.22 C 11.83333 km/h
371 13-01-2017 10:00:00 2.13333 C 5.32 g/m*3 -1.23 C 12.08333 km/h
372 13-01-2017 11:00:00 2.06667 C 5.3 g/m*3 -1.26 C 11.83333 km/h
373 13-01-2017 12:00:00 2.35 C 5.3 g/m*3 -1.16 C 13.025 km/h
374 13-01-2017 13:00:00 2.25833 C 5.32 g/m*3 -1.14 C 12.35833 km/h
375 13-01-2017 14:00:00 2.74167 C 5.25 g/m*3 0.21 C 8.99167 km/h
Sensor: Nr:Datum:Temp:Abs-Feuchte:Windchill:Wind:
Aussen-T/F 376 13-01-2017 15:00:00 2.75 C 5.09 g/m*3 0.93 C 6.575 km/h
377 13-01-2017 16:00:00 1.89167 C 4.69 g/m*3 -0.45 C 7.78333 km/h
378 13-01-2017 17:00:00 1.125 C 4.46 g/m*3 -1.43 C 8.04167 km/h
379 13-01-2017 18:00:00 0.89167 C 4.41 g/m*3 -2.27 C 10.075 km/h
380 13-01-2017 19:00:00 0.68333 C 4.43 g/m*3 -1.87 C 7.775 km/h
381 13-01-2017 20:00:00 0.83333 C 4.54 g/m*3 -2.69 C 11.53333 km/h
382 13-01-2017 21:00:00 1.31667 C 4.77 g/m*3 -1.8 C 10.225 km/h
383 13-01-2017 22:00:00 1.00833 C 4.92 g/m*3 -1.03 C 6.43333 km/h
384 13-01-2017 23:00:00 1.16667 C 5.01 g/m*3 1.17 C 3.875 km/h
385 14-01-2017 00:00:00 2.05 C 5.35 g/m*3 0.17 C 6.44167 km/h
386 14-01-2017 01:00:00 2.94167 C 5.58 g/m*3 -0.11 C 11.40833 km/h
387 14-01-2017 02:00:00 3.4 C 5.57 g/m*3 0.07 C 13.29167 km/h
388 14-01-2017 03:00:00 3.56667 C 5.39 g/m*3 0.69 C 11.15 km/h
389 14-01-2017 04:00:00 3.56667 C 5.12 g/m*3 0.35 C 12.89167 km/h
390 14-01-2017 05:00:00 3.38333 C 5 g/m*3 0.53 C 10.88333 km/h
391 14-01-2017 06:00:00 2.95 C 4.8 g/m*3 0.16 C 10.2 km/h
392 14-01-2017 07:00:00 2.93333 C 4.78 g/m*3 -0.52 C 13.43333 km/h
393 14-01-2017 08:00:00 2.73333 C 4.73 g/m*3 -0.31 C 11.15 km/h
394 14-01-2017 09:00:00 2.73333 C 4.76 g/m*3 -0.39 C 11.54167 km/h
395 14-01-2017 10:00:00 2.61667 C 4.87 g/m*3 -0.83 C 13.01667 km/h
396 14-01-2017 11:00:00 2.75833 C 4.95 g/m*3 -0.34 C 11.40833 km/h
397 14-01-2017 12:00:00 3.26667 C 5 g/m*3 0.73 C 9.40833 km/h
398 14-01-2017 13:00:00 3.525 C 5.05 g/m*3 1.04 C 9.40833 km/h
399 14-01-2017 14:00:00 3.275 C 4.96 g/m*3 0.29 C 11.41667 km/h
400 14-01-2017 15:00:00 3.025 C 4.74 g/m*3 -0.18 C 12.23333 km/h
Sensor: Nr:Datum:Temp:Abs-Feuchte:Windchill:Wind:
Aussen-T/F 401 14-01-2017 16:00:00 2.54167 C 4.56 g/m*3 -0.57 C 11.3 km/h
402 14-01-2017 17:00:00 2.25833 C 4.61 g/m*3 -1 C 11.68333 km/h
403 14-01-2017 18:00:00 1.76667 C 4.85 g/m*3 -2.03 C 13.83333 km/h
404 14-01-2017 19:00:00 1.98333 C 4.96 g/m*3 -0.8 C 9.41667 km/h
405 14-01-2017 20:00:00 1.74167 C 4.87 g/m*3 1.74 C 2.66667 km/h
406 14-01-2017 21:00:00 1.75833 C 4.82 g/m*3 1.76 C 4.28333 km/h
407 14-01-2017 22:00:00 1.84167 C 4.86 g/m*3 0.29 C 5.49167 km/h
408 14-01-2017 23:00:00 1.41667 C 4.88 g/m*3 1.42 C 1.6 km/h
409 15-01-2017 00:00:00 1.3 C 4.93 g/m*3 1.3 C 0.93333 km/h
410 15-01-2017 01:00:00 1.525 C 4.89 g/m*3 1.53 C 1.6 km/h
411 15-01-2017 02:00:00 1.66667 C 4.85 g/m*3 1.67 C 1.46667 km/h
412 15-01-2017 03:00:00 1.45 C 4.78 g/m*3 1.45 C 1.6 km/h
413 15-01-2017 04:00:00 1.25833 C 4.74 g/m*3 1.26 C 2.26667 km/h
414 15-01-2017 05:00:00 1.06667 C 4.78 g/m*3 1.07 C 2 km/h
415 15-01-2017 06:00:00 0.76667 C 4.78 g/m*3 0.77 C 0.93333 km/h
416 15-01-2017 07:00:00 0.66667 C 4.77 g/m*3 0.67 C 0.4 km/h
417 15-01-2017 08:00:00 0.575 C 4.73 g/m*3 0.57 C 1.73333 km/h
418 15-01-2017 09:00:00 0.39167 C 4.66 g/m*3 0.39 C 0.13333 km/h
419 15-01-2017 10:00:00 0.49167 C 4.72 g/m*3 0.49 C 0.93333 km/h
420 15-01-2017 11:00:00 0.95833 C 4.86 g/m*3 0.96 C 0.93333 km/h
421 15-01-2017 12:00:00 1.28333 C 4.93 g/m*3 1.28 C 0 km/h
422 15-01-2017 13:00:00 1.73333 C 4.99 g/m*3 1.73 C 1.475 km/h
423 15-01-2017 14:00:00 2.66667 C 4.97 g/m*3 2.67 C 2.80833 km/h
424 15-01-2017 15:00:00 2.33333 C 5.09 g/m*3 2.33 C 0.26667 km/h
425 15-01-2017 16:00:00 1.075 C 4.76 g/m*3 1.08 C 2.4 km/h
Sensor: Nr:Datum:Temp:Abs-Feuchte:Windchill:Wind:
Aussen-T/F 426 15-01-2017 17:00:00 0.125 C 4.51 g/m*3 0.13 C 2.53333 km/h
427 15-01-2017 18:00:00 -0.23333 C 4.45 g/m*3 -0.23 C 0 km/h
428 15-01-2017 19:00:00 -0.46667 C 4.39 g/m*3 -0.47 C 0 km/h
429 15-01-2017 20:00:00 -0.475 C 4.41 g/m*3 -0.48 C 0.26667 km/h
430 15-01-2017 21:00:00 -0.19167 C 4.49 g/m*3 -0.19 C 0.53333 km/h
431 15-01-2017 22:00:00 0.13333 C 4.57 g/m*3 0.13 C 2.26667 km/h
432 15-01-2017 23:00:00 0.01667 C 4.55 g/m*3 0.02 C 1.33333 km/h
433 16-01-2017 00:00:00 -0.46667 C 4.44 g/m*3 -0.47 C 0.93333 km/h
434 16-01-2017 01:00:00 -0.34167 C 4.5 g/m*3 -0.34 C 0.66667 km/h
435 16-01-2017 02:00:00 -0.30833 C 4.51 g/m*3 -0.31 C 0 km/h
436 16-01-2017 03:00:00 -0.73333 C 4.37 g/m*3 -0.73 C 0 km/h
437 16-01-2017 04:00:00 -0.53333 C 4.44 g/m*3 -0.53 C 0.4 km/h
438 16-01-2017 05:00:00 -0.46667 C 4.46 g/m*3 -0.47 C 0.4 km/h
439 16-01-2017 06:00:00 -0.56667 C 4.43 g/m*3 -0.57 C 0 km/h
440 16-01-2017 07:00:00 -0.69167 C 4.39 g/m*3 -0.69 C 0 km/h
441 16-01-2017 08:00:00 -1.13333 C 4.25 g/m*3 -1.13 C 0 km/h
442 16-01-2017 09:00:00 -1.55 C 4.15 g/m*3 -1.55 C 0 km/h
443 16-01-2017 10:00:00 -0.45833 C 4.51 g/m*3 -0.46 C 0 km/h
444 16-01-2017 11:00:00 0.125 C 4.64 g/m*3 0.13 C 1.6 km/h
445 16-01-2017 12:00:00 -0.24167 C 4.34 g/m*3 -0.24 C 1.73333 km/h
446 16-01-2017 13:00:00 -0.775 C 4.23 g/m*3 -0.78 C 1.73333 km/h
447 16-01-2017 14:00:00 -0.5 C 4.27 g/m*3 -0.5 C 1.86667 km/h
448 16-01-2017 15:00:00 -0.86667 C 4.08 g/m*3 -0.87 C 3.33333 km/h
449 16-01-2017 16:00:00 -1.44167 C 4.01 g/m*3 -1.44 C 3.86667 km/h
450 16-01-2017 17:00:00 -1.93333 C 3.88 g/m*3 -1.93 C 2.8 km/h
Sensor: Nr:Datum:Temp:Abs-Feuchte:Windchill:Wind:
Aussen-T/F 451 16-01-2017 18:00:00 -2.6 C 3.72 g/m*3 -2.6 C 1.2 km/h
452 16-01-2017 19:00:00 -3.44167 C 3.53 g/m*3 -3.44 C 0.13333 km/h
453 16-01-2017 20:00:00 -4.10833 C 3.39 g/m*3 -4.11 C 0.13333 km/h
454 16-01-2017 21:00:00 -4.81667 C 3.24 g/m*3 -4.82 C 0 km/h
455 16-01-2017 22:00:00 -5.375 C 3.12 g/m*3 -5.38 C 0 km/h
456 16-01-2017 23:00:00 -5.74167 C 3.04 g/m*3 -5.74 C 0 km/h
457 17-01-2017 00:00:00 -6.21667 C 2.93 g/m*3 -6.22 C 0 km/h
458 17-01-2017 01:00:00 -6.63333 C 2.84 g/m*3 -6.63 C 0 km/h
459 17-01-2017 02:00:00 -6.68333 C 2.84 g/m*3 -6.68 C 0 km/h
460 17-01-2017 03:00:00 -5.14167 C 3.21 g/m*3 -5.14 C 0 km/h
461 17-01-2017 04:00:00 -4.43333 C 3.37 g/m*3 -4.43 C 0.26667 km/h
462 17-01-2017 05:00:00 -4.55833 C 3.32 g/m*3 -4.56 C 0.13333 km/h
463 17-01-2017 06:00:00 -4.275 C 3.38 g/m*3 -4.28 C 0.26667 km/h
464 17-01-2017 07:00:00 -4.05833 C 3.41 g/m*3 -4.06 C 0 km/h
465 17-01-2017 08:00:00 -3.9 C 3.43 g/m*3 -3.9 C 0 km/h
466 17-01-2017 09:00:00 -4.01667 C 3.39 g/m*3 -4.02 C 0.26667 km/h
467 17-01-2017 10:00:00 -4.49167 C 3.25 g/m*3 -4.49 C 0.93333 km/h
468 17-01-2017 11:00:00 -3.65833 C 3.45 g/m*3 -3.66 C 0 km/h
469 17-01-2017 12:00:00 -1.9 C 3.7 g/m*3 -1.9 C 0.53333 km/h
470 17-01-2017 13:00:00 -1.14167 C 3.8 g/m*3 -3.06 C 5.375 km/h
471 17-01-2017 14:00:00 -0.55 C 3.84 g/m*3 -3.27 C 7.65833 km/h
472 17-01-2017 15:00:00 -0.40833 C 3.85 g/m*3 -3.24 C 8.075 km/h
473 17-01-2017 16:00:00 -1.56667 C 3.75 g/m*3 -1.57 C 1.73333 km/h
474 17-01-2017 17:00:00 -2.44167 C 3.63 g/m*3 -2.44 C 2.4 km/h
475 17-01-2017 18:00:00 -3.46667 C 3.46 g/m*3 -3.47 C 2.8 km/h
Sensor: Nr:Datum:Temp:Abs-Feuchte:Windchill:Wind:
Aussen-T/F 476 17-01-2017 19:00:00 -3.58333 C 3.47 g/m*3 -3.58 C 2 km/h
477 17-01-2017 20:00:00 -4.04167 C 3.33 g/m*3 -4.04 C 2.13333 km/h
478 17-01-2017 21:00:00 -4.94167 C 3.15 g/m*3 -4.94 C 0.53333 km/h
479 17-01-2017 22:00:00 -5.66667 C 3.01 g/m*3 -5.67 C 0 km/h
480 17-01-2017 23:00:00 -6.18333 C 2.91 g/m*3 -6.18 C 0 km/h
481 18-01-2017 00:00:00 -6.55 C 2.84 g/m*3 -6.55 C 0 km/h
482 18-01-2017 01:00:00 -6.875 C 2.78 g/m*3 -6.88 C 0 km/h
483 18-01-2017 02:00:00 -7.24167 C 2.72 g/m*3 -7.24 C 0 km/h
484 18-01-2017 03:00:00 -7.55 C 2.66 g/m*3 -7.55 C 0 km/h
485 18-01-2017 04:00:00 -7.75 C 2.62 g/m*3 -7.75 C 0 km/h
486 18-01-2017 05:00:00 -7.66667 C 2.63 g/m*3 -7.67 C 0 km/h
487 18-01-2017 06:00:00 -7.075 C 2.75 g/m*3 -7.08 C 2.66667 km/h
488 18-01-2017 07:00:00 -6.84 C 2.8 g/m*3 -6.84 C 2.88 km/h
489 18-01-2017 09:00:00 -6.125 C 2.95 g/m*3 -6.13 C 0.4 km/h
490 18-01-2017 10:00:00 -6.19167 C 2.94 g/m*3 -6.19 C 0.4 km/h
491 18-01-2017 11:00:00 -5.70833 C 3.04 g/m*3 -5.71 C 0.8 km/h
492 18-01-2017 12:00:00 -4.53333 C 3.29 g/m*3 -4.53 C 2.4 km/h
493 18-01-2017 13:00:00 -3.74167 C 3.46 g/m*3 -3.74 C 1.73333 km/h
494 18-01-2017 14:00:00 -3.05 C 3.55 g/m*3 -3.05 C 3.875 km/h
495 18-01-2017 15:00:00 -1.98333 C 3.64 g/m*3 -1.98 C 4.00833 km/h
496 18-01-2017 16:00:00 -1.34167 C 3.68 g/m*3 -1.34 C 3.20833 km/h
497 18-01-2017 17:00:00 -2.65833 C 3.45 g/m*3 -2.66 C 4.53333 km/h
498 18-01-2017 18:00:00 -3.45 C 3.35 g/m*3 -3.45 C 3.06667 km/h
499 18-01-2017 19:00:00 -4.275 C 3.21 g/m*3 -4.28 C 2.4 km/h
500 18-01-2017 20:00:00 -4.6 C 3.17 g/m*3 -4.6 C 2.4 km/h
Sensor: Nr:Datum:Temp:Abs-Feuchte:Windchill:Wind:
Aussen-T/F 501 18-01-2017 21:00:00 -5.15 C 3.07 g/m*3 -5.15 C 1.73333 km/h
502 18-01-2017 22:00:00 -5.225 C 3.06 g/m*3 -5.23 C 0.93333 km/h
503 18-01-2017 23:00:00 -6 C 2.91 g/m*3 -6 C 0.93333 km/h
504 19-01-2017 00:00:00 -6.525 C 2.81 g/m*3 -6.53 C 0.26667 km/h
505 19-01-2017 01:00:00 -6.93333 C 2.74 g/m*3 -6.93 C 0 km/h
506 19-01-2017 02:00:00 -7.29167 C 2.68 g/m*3 -7.29 C 0 km/h
507 19-01-2017 03:00:00 -7.55 C 2.63 g/m*3 -7.55 C 0 km/h
508 19-01-2017 04:00:00 -7.86667 C 2.58 g/m*3 -7.87 C 0 km/h
509 19-01-2017 05:00:00 -8.175 C 2.53 g/m*3 -8.18 C 0 km/h
510 19-01-2017 06:00:00 -8.34167 C 2.48 g/m*3 -8.34 C 0 km/h
511 19-01-2017 07:00:00 -8.525 C 2.46 g/m*3 -8.53 C 0 km/h
512 19-01-2017 10:00:00 -7.42 C 2.68 g/m*3 -7.42 C 0 km/h
513 19-01-2017 11:00:00 -6.50833 C 2.87 g/m*3 -6.51 C 0.26667 km/h
514 19-01-2017 12:00:00 -5.55 C 3.08 g/m*3 -5.55 C 2.13333 km/h
515 19-01-2017 13:00:00 -4.475 C 3.29 g/m*3 -4.47 C 2.93333 km/h
516 19-01-2017 14:00:00 -3.5 C 3.48 g/m*3 -3.5 C 4.4 km/h
517 19-01-2017 15:00:00 -2.925 C 3.56 g/m*3 -2.93 C 4.8 km/h
518 19-01-2017 16:00:00 -2.84167 C 3.57 g/m*3 -4.85 C 5.06667 km/h
519 19-01-2017 17:00:00 -3.025 C 3.47 g/m*3 -5.32 C 5.6 km/h
520 19-01-2017 18:00:00 -3.75 C 3.31 g/m*3 -3.75 C 1.73333 km/h
521 19-01-2017 19:00:00 -4.93333 C 3.09 g/m*3 -4.93 C 0.13333 km/h
522 19-01-2017 20:00:00 -5.71667 C 2.95 g/m*3 -5.72 C 0 km/h
523 19-01-2017 21:00:00 -6.18333 C 2.85 g/m*3 -6.18 C 0 km/h
524 19-01-2017 22:00:00 -6.61667 C 2.79 g/m*3 -6.62 C 0 km/h
525 19-01-2017 23:00:00 -6.88333 C 2.73 g/m*3 -6.88 C 0.13333 km/h
Sensor: Nr:Datum:Temp:Abs-Feuchte:Windchill:Wind:
Aussen-T/F 526 20-01-2017 00:00:00 -7.3 C 2.64 g/m*3 -7.3 C 0 km/h
527 20-01-2017 01:00:00 -7.73333 C 2.58 g/m*3 -7.73 C 0 km/h
528 20-01-2017 02:00:00 -8.19167 C 2.49 g/m*3 -8.19 C 0 km/h
529 20-01-2017 03:00:00 -8.55 C 2.44 g/m*3 -8.55 C 0 km/h
530 20-01-2017 04:00:00 -8.65833 C 2.42 g/m*3 -8.66 C 0 km/h
531 20-01-2017 05:00:00 -9.20833 C 2.32 g/m*3 -9.21 C 0 km/h
532 20-01-2017 06:00:00 -9.5 C 2.27 g/m*3 -9.5 C 0 km/h
533 20-01-2017 07:00:00 -9.6 C 2.26 g/m*3 -9.6 C 0 km/h
534 20-01-2017 10:00:00 -8.88 C 2.39 g/m*3 -8.88 C 0 km/h
535 20-01-2017 11:00:00 -7.35833 C 2.7 g/m*3 -7.36 C 0.4 km/h
536 20-01-2017 12:00:00 -5.80833 C 3.02 g/m*3 -5.81 C 1.6 km/h
537 20-01-2017 13:00:00 -4.275 C 3.29 g/m*3 -4.28 C 3.2 km/h
538 20-01-2017 14:00:00 -3.10833 C 3.47 g/m*3 -5.15 C 5.06667 km/h
539 20-01-2017 15:00:00 -2.45 C 3.58 g/m*3 -4.4 C 5.06667 km/h
540 20-01-2017 16:00:00 -2.11667 C 3.63 g/m*3 -4.34 C 5.73333 km/h
541 20-01-2017 17:00:00 -2.6 C 3.47 g/m*3 -2.6 C 3.46667 km/h
542 20-01-2017 18:00:00 -3.48333 C 3.33 g/m*3 -3.48 C 1.33333 km/h
543 20-01-2017 19:00:00 -4.45 C 3.14 g/m*3 -4.45 C 0 km/h
544 20-01-2017 20:00:00 -5.18333 C 3 g/m*3 -5.18 C 0 km/h
545 20-01-2017 21:00:00 -5.925 C 2.87 g/m*3 -5.93 C 0 km/h
546 20-01-2017 22:00:00 -6.45833 C 2.77 g/m*3 -6.46 C 0 km/h
547 20-01-2017 23:00:00 -6.88333 C 2.71 g/m*3 -6.88 C 0.26667 km/h
548 21-01-2017 00:00:00 -7.28333 C 2.65 g/m*3 -7.28 C 0.13333 km/h
549 21-01-2017 01:00:00 -7.40833 C 2.64 g/m*3 -7.41 C 0 km/h
550 21-01-2017 02:00:00 -7.71667 C 2.6 g/m*3 -7.72 C 0 km/h
Sensor: Nr:Datum:Temp:Abs-Feuchte:Windchill:Wind:
Aussen-T/F 551 21-01-2017 03:00:00 -8.08333 C 2.53 g/m*3 -8.08 C 0 km/h
552 21-01-2017 04:00:00 -8.34167 C 2.48 g/m*3 -8.34 C 0 km/h
553 21-01-2017 05:00:00 -8.55 C 2.45 g/m*3 -8.55 C 0 km/h
554 21-01-2017 06:00:00 -8.62 C 2.43 g/m*3 -8.62 C 0 km/h
555 21-01-2017 10:00:00 -7.69 C 2.63 g/m*3 -7.69 C 0 km/h
556 21-01-2017 11:00:00 -6.60833 C 2.85 g/m*3 -6.61 C 0 km/h
557 21-01-2017 12:00:00 -5.075 C 3.22 g/m*3 -5.08 C 0.26667 km/h
558 21-01-2017 13:00:00 -3.55833 C 3.56 g/m*3 -3.56 C 2.53333 km/h
559 21-01-2017 14:00:00 -2.1 C 3.86 g/m*3 -2.1 C 3.46667 km/h
560 21-01-2017 15:00:00 -1.225 C 4 g/m*3 -3.26 C 5.6 km/h
561 21-01-2017 16:00:00 -1.21667 C 3.93 g/m*3 -3.59 C 6.4 km/h
562 21-01-2017 17:00:00 -1.775 C 3.73 g/m*3 -3.64 C 5.06667 km/h
563 21-01-2017 18:00:00 -3.03333 C 3.47 g/m*3 -3.03 C 1.46667 km/h
564 21-01-2017 19:00:00 -4.25833 C 3.24 g/m*3 -4.26 C 0.93333 km/h
565 21-01-2017 20:00:00 -5.03333 C 3.08 g/m*3 -5.03 C 0.13333 km/h
566 21-01-2017 21:00:00 -5.70833 C 2.96 g/m*3 -5.71 C 0.13333 km/h
567 21-01-2017 22:00:00 -6.325 C 2.85 g/m*3 -6.33 C 0 km/h
568 21-01-2017 23:00:00 -6.85 C 2.75 g/m*3 -6.85 C 0 km/h
569 22-01-2017 00:00:00 -7.04167 C 2.73 g/m*3 -7.04 C 0.4 km/h
570 22-01-2017 01:00:00 -7.575 C 2.63 g/m*3 -7.58 C 0 km/h
571 22-01-2017 02:00:00 -8.01667 C 2.54 g/m*3 -8.02 C 0.13333 km/h
572 22-01-2017 03:00:00 -8.98333 C 2.36 g/m*3 -8.98 C 0 km/h
573 22-01-2017 04:00:00 -8.74167 C 2.41 g/m*3 -8.74 C 0.4 km/h
574 22-01-2017 05:00:00 -9.2 C 2.32 g/m*3 -9.2 C 0 km/h
575 22-01-2017 06:00:00 -10 C 2.17 g/m*3 -10 C 0 km/h
Sensor: Nr:Datum:Temp:Abs-Feuchte:Windchill:Wind:
Aussen-T/F 576 22-01-2017 07:00:00 -9.975 C 2.19 g/m*3 -9.98 C 0 km/h
577 22-01-2017 09:00:00 -9.9 C 2.21 g/m*3 -9.9 C 0 km/h
578 22-01-2017 10:00:00 -9.575 C 2.26 g/m*3 -9.57 C 0 km/h
579 22-01-2017 11:00:00 -8.49167 C 2.46 g/m*3 -8.49 C 0 km/h
580 22-01-2017 12:00:00 -7.13333 C 2.74 g/m*3 -7.13 C 0.8 km/h
581 22-01-2017 13:00:00 -5.85833 C 3.01 g/m*3 -5.86 C 2.26667 km/h
582 22-01-2017 14:00:00 -4.76667 C 3.25 g/m*3 -4.77 C 3.06667 km/h
583 22-01-2017 15:00:00 -3.94167 C 3.4 g/m*3 -3.94 C 3.73333 km/h
584 22-01-2017 16:00:00 -3.66667 C 3.43 g/m*3 -3.67 C 4.8 km/h
585 22-01-2017 17:00:00 -4.23333 C 3.24 g/m*3 -4.23 C 2.13333 km/h
586 22-01-2017 18:00:00 -5.25833 C 3.05 g/m*3 -5.26 C 1.2 km/h
587 22-01-2017 19:00:00 -6.21667 C 2.87 g/m*3 -6.22 C 0.13333 km/h
588 22-01-2017 20:00:00 -6.95 C 2.72 g/m*3 -6.95 C 0 km/h
589 22-01-2017 21:00:00 -7.51667 C 2.63 g/m*3 -7.52 C 0 km/h
590 22-01-2017 22:00:00 -8.01667 C 2.55 g/m*3 -8.02 C 0.26667 km/h
591 22-01-2017 23:00:00 -8.04167 C 2.54 g/m*3 -8.04 C 0.93333 km/h
592 23-01-2017 00:00:00 -8.24167 C 2.5 g/m*3 -8.24 C 0.13333 km/h
593 23-01-2017 01:00:00 -8.91667 C 2.37 g/m*3 -8.92 C 0 km/h
594 23-01-2017 02:00:00 -9.59167 C 2.26 g/m*3 -9.59 C 0 km/h
595 23-01-2017 03:00:00 -9.83333 C 2.22 g/m*3 -9.83 C 0 km/h
596 23-01-2017 04:00:00 -9.6 C 2.26 g/m*3 -9.6 C 0 km/h
597 23-01-2017 05:00:00 -10.19167 C 2.14 g/m*3 -10.19 C 0 km/h
598 23-01-2017 06:00:00 -10.225 C 2.15 g/m*3 -10.23 C 0.4 km/h
599 23-01-2017 07:00:00 -9.19167 C 2.33 g/m*3 -9.19 C 1.33333 km/h
600 23-01-2017 08:00:00 -8.29167 C 2.49 g/m*3 -8.29 C 0.53333 km/h
Sensor: Nr:Datum:Temp:Abs-Feuchte:Windchill:Wind:
Aussen-T/F 601 23-01-2017 09:00:00 -7.575 C 2.62 g/m*3 -7.58 C 1.73333 km/h
602 23-01-2017 10:00:00 -6.61667 C 2.82 g/m*3 -6.62 C 0.13333 km/h
603 23-01-2017 11:00:00 -5.51667 C 3.05 g/m*3 -5.52 C 0.53333 km/h
604 23-01-2017 12:00:00 -4.79167 C 3.19 g/m*3 -4.79 C 0.26667 km/h
605 23-01-2017 13:00:00 -3.70833 C 3.47 g/m*3 -3.71 C 0.66667 km/h
606 23-01-2017 14:00:00 -2.76667 C 3.7 g/m*3 -2.77 C 1.33333 km/h
607 23-01-2017 15:00:00 -2.25 C 3.83 g/m*3 -2.25 C 0 km/h
608 23-01-2017 16:00:00 -1.93333 C 3.9 g/m*3 -1.93 C 0 km/h
609 23-01-2017 17:00:00 -1.80833 C 3.97 g/m*3 -1.81 C 0.13333 km/h
610 23-01-2017 18:00:00 -1.85833 C 3.96 g/m*3 -1.86 C 0.26667 km/h
611 23-01-2017 19:00:00 -1.7 C 4.01 g/m*3 -1.7 C 0.8 km/h
612 23-01-2017 20:00:00 -1.425 C 4.13 g/m*3 -1.43 C 2 km/h
613 23-01-2017 21:00:00 -1.3 C 4.16 g/m*3 -1.3 C 2.01667 km/h
614 23-01-2017 22:00:00 -1.3 C 4.16 g/m*3 -1.3 C 0.93333 km/h
615 23-01-2017 23:00:00 -1.31667 C 4.16 g/m*3 -1.32 C 0.13333 km/h
616 24-01-2017 00:00:00 -1.4 C 4.13 g/m*3 -1.4 C 0 km/h
617 24-01-2017 01:00:00 -1.5 C 4.08 g/m*3 -1.5 C 0 km/h
618 24-01-2017 02:00:00 -1.64167 C 4.02 g/m*3 -1.64 C 0.4 km/h
619 24-01-2017 03:00:00 -1.7 C 4 g/m*3 -1.7 C 0 km/h
620 24-01-2017 04:00:00 -1.83333 C 3.97 g/m*3 -1.83 C 0 km/h
621 24-01-2017 05:00:00 -1.9 C 3.97 g/m*3 -1.9 C 0 km/h
622 24-01-2017 06:00:00 -1.80833 C 4.02 g/m*3 -1.81 C 0 km/h
623 24-01-2017 07:00:00 -1.8 C 4.02 g/m*3 -1.8 C 0 km/h
624 24-01-2017 08:00:00 -1.79167 C 4.02 g/m*3 -1.79 C 0 km/h
625 24-01-2017 09:00:00 -1.53333 C 4.09 g/m*3 -1.53 C 0.66667 km/h
Sensor: Nr:Datum:Temp:Abs-Feuchte:Windchill:Wind:
Aussen-T/F 626 24-01-2017 10:00:00 -0.925 C 4.22 g/m*3 -0.93 C 1.2 km/h
627 24-01-2017 11:00:00 -0.475 C 4.27 g/m*3 -0.48 C 0.13333 km/h
628 24-01-2017 12:00:00 -0.14167 C 4.32 g/m*3 -0.14 C 0 km/h
629 24-01-2017 13:00:00 0.23333 C 4.35 g/m*3 0.23 C 0 km/h
630 24-01-2017 14:00:00 0.29167 C 4.37 g/m*3 0.29 C 0 km/h
631 24-01-2017 15:00:00 0.3 C 4.4 g/m*3 0.3 C 0 km/h
632 24-01-2017 16:00:00 0.28333 C 4.46 g/m*3 0.28 C 0 km/h
633 24-01-2017 17:00:00 0.06667 C 4.43 g/m*3 0.07 C 0.4 km/h
634 24-01-2017 18:00:00 0.06667 C 4.38 g/m*3 0.07 C 1.2 km/h
635 24-01-2017 19:00:00 0.14167 C 4.31 g/m*3 0.14 C 2.80833 km/h
636 24-01-2017 20:00:00 0.03333 C 4.25 g/m*3 0.03 C 2.275 km/h
637 24-01-2017 21:00:00 -0.21667 C 4.22 g/m*3 -0.22 C 2.69167 km/h
638 24-01-2017 22:00:00 -0.35833 C 4.23 g/m*3 -0.36 C 0.53333 km/h
639 24-01-2017 23:00:00 -0.4 C 4.19 g/m*3 -0.4 C 2.26667 km/h
640 25-01-2017 00:00:00 -0.425 C 4.12 g/m*3 -0.43 C 4.81667 km/h
641 25-01-2017 01:00:00 -0.675 C 4.1 g/m*3 -0.68 C 0.66667 km/h
642 25-01-2017 02:00:00 -0.825 C 4.05 g/m*3 -0.83 C 4.14167 km/h
643 25-01-2017 03:00:00 -1.25833 C 3.87 g/m*3 -1.26 C 4 km/h
644 25-01-2017 04:00:00 -1.70833 C 3.7 g/m*3 -1.71 C 3.75 km/h
645 25-01-2017 05:00:00 -1.8 C 3.62 g/m*3 -1.8 C 4.01667 km/h
646 25-01-2017 06:00:00 -1.925 C 3.53 g/m*3 -4.07 C 5.625 km/h
647 25-01-2017 07:00:00 -2.14167 C 3.5 g/m*3 -2.14 C 4.55 km/h
648 25-01-2017 08:00:00 -2.2 C 3.53 g/m*3 -2.2 C 0.8 km/h
649 25-01-2017 09:00:00 -2.04167 C 3.59 g/m*3 -2.04 C 0.53333 km/h
650 25-01-2017 10:00:00 -1.53333 C 3.6 g/m*3 -1.53 C 4.95 km/h
Sensor: Nr:Datum:Temp:Abs-Feuchte:Windchill:Wind:
Aussen-T/F 651 25-01-2017 11:00:00 -1.175 C 3.64 g/m*3 -1.18 C 4.13333 km/h
652 25-01-2017 12:00:00 -0.86667 C 3.7 g/m*3 -2.62 C 5.09167 km/h
653 25-01-2017 13:00:00 -0.65833 C 3.73 g/m*3 -2.56 C 5.49167 km/h
654 25-01-2017 14:00:00 -0.41667 C 3.78 g/m*3 -3.07 C 7.50833 km/h
655 25-01-2017 15:00:00 -0.31667 C 3.79 g/m*3 -0.32 C 4.00833 km/h
656 25-01-2017 16:00:00 -0.4 C 3.78 g/m*3 -0.4 C 3.875 km/h
657 25-01-2017 17:00:00 -0.66667 C 3.76 g/m*3 -0.67 C 2.8 km/h
658 25-01-2017 18:00:00 -0.91667 C 3.81 g/m*3 -0.92 C 1.6 km/h
659 25-01-2017 19:00:00 -0.94167 C 3.71 g/m*3 -0.94 C 4.41667 km/h
660 25-01-2017 20:00:00 -1.075 C 3.71 g/m*3 -1.08 C 2.53333 km/h
661 25-01-2017 21:00:00 -1.16667 C 3.75 g/m*3 -1.17 C 1.475 km/h
662 25-01-2017 22:00:00 -1.425 C 3.76 g/m*3 -1.43 C 0 km/h
663 25-01-2017 23:00:00 -1.45 C 3.76 g/m*3 -1.45 C 2 km/h
664 26-01-2017 00:00:00 -1.26667 C 3.72 g/m*3 -1.27 C 2.00833 km/h
665 26-01-2017 01:00:00 -1.5 C 3.62 g/m*3 -1.5 C 2.81667 km/h
666 26-01-2017 02:00:00 -2.03333 C 3.63 g/m*3 -2.03 C 1.73333 km/h
667 26-01-2017 03:00:00 -2.025 C 3.65 g/m*3 -2.03 C 1.2 km/h
668 26-01-2017 04:00:00 -1.60833 C 3.66 g/m*3 -1.61 C 3.875 km/h
669 26-01-2017 05:00:00 -1.35 C 3.66 g/m*3 -1.35 C 3.2 km/h
670 26-01-2017 06:00:00 -1.3 C 3.68 g/m*3 -1.3 C 2.53333 km/h
671 26-01-2017 07:00:00 -1.30833 C 3.65 g/m*3 -1.31 C 3.33333 km/h
672 26-01-2017 08:00:00 -1.50833 C 3.66 g/m*3 -1.51 C 1.46667 km/h
673 26-01-2017 09:00:00 -1.21667 C 3.71 g/m*3 -1.22 C 1.73333 km/h
674 26-01-2017 10:00:00 -0.68333 C 3.7 g/m*3 -2.93 C 6.3 km/h
675 26-01-2017 11:00:00 -0.38333 C 3.69 g/m*3 -2.25 C 5.49167 km/h
Sensor: Nr:Datum:Temp:Abs-Feuchte:Windchill:Wind:
Aussen-T/F 676 26-01-2017 12:00:00 -0.33333 C 3.69 g/m*3 -2.48 C 6.175 km/h
677 26-01-2017 13:00:00 0.075 C 3.75 g/m*3 0.08 C 4.00833 km/h
678 26-01-2017 14:00:00 -0.01667 C 3.87 g/m*3 -0.02 C 1.6 km/h
679 26-01-2017 15:00:00 -0.21667 C 3.93 g/m*3 -0.22 C 2.4 km/h
680 26-01-2017 16:00:00 -0.63333 C 3.93 g/m*3 -0.63 C 4 km/h
681 26-01-2017 17:00:00 -1.29167 C 3.84 g/m*3 -3.4 C 5.73333 km/h
682 26-01-2017 18:00:00 -1.66667 C 3.77 g/m*3 -3.51 C 5.06667 km/h
683 26-01-2017 19:00:00 -2.65 C 3.55 g/m*3 -2.65 C 0.93333 km/h
684 26-01-2017 20:00:00 -3.66667 C 3.38 g/m*3 -3.67 C 0.26667 km/h
685 26-01-2017 21:00:00 -4.39167 C 3.25 g/m*3 -4.39 C 0.13333 km/h
686 26-01-2017 22:00:00 -4.94167 C 3.15 g/m*3 -4.94 C 0.26667 km/h
687 26-01-2017 23:00:00 -5.28333 C 3.09 g/m*3 -5.28 C 0.13333 km/h
688 27-01-2017 00:00:00 -5.79167 C 2.99 g/m*3 -5.79 C 0 km/h
689 27-01-2017 01:00:00 -5.89167 C 2.98 g/m*3 -5.89 C 0.8 km/h
690 27-01-2017 02:00:00 -6.15 C 2.91 g/m*3 -6.15 C 0.26667 km/h
691 27-01-2017 03:00:00 -6.675 C 2.81 g/m*3 -6.68 C 0 km/h
692 27-01-2017 04:00:00 -6.84167 C 2.79 g/m*3 -6.84 C 0 km/h
693 27-01-2017 05:00:00 -7.025 C 2.76 g/m*3 -7.03 C 0.13333 km/h
694 27-01-2017 06:00:00 -7.13333 C 2.74 g/m*3 -7.13 C 0 km/h
695 27-01-2017 07:00:00 -7.34167 C 2.69 g/m*3 -7.34 C 0 km/h
696 27-01-2017 08:00:00 -7.25833 C 2.72 g/m*3 -7.26 C 0.4 km/h
697 27-01-2017 09:00:00 -6.30833 C 2.91 g/m*3 -6.31 C 0.13333 km/h
698 27-01-2017 10:00:00 -4.93333 C 3.22 g/m*3 -4.93 C 0 km/h
699 27-01-2017 11:00:00 -2.975 C 3.65 g/m*3 -2.98 C 0.26667 km/h
700 27-01-2017 12:00:00 -1.075 C 3.89 g/m*3 -1.08 C 0.13333 km/h
Sensor: Nr:Datum:Temp:Abs-Feuchte:Windchill:Wind:
Aussen-T/F 701 27-01-2017 13:00:00 1.05 C 4.2 g/m*3 1.05 C 0.13333 km/h
702 27-01-2017 14:00:00 2.7 C 4.53 g/m*3 2.7 C 0 km/h
703 27-01-2017 15:00:00 2.64167 C 4.72 g/m*3 2.64 C 0 km/h
704 27-01-2017 16:00:00 1.24167 C 4.52 g/m*3 1.24 C 1.2 km/h
705 27-01-2017 17:00:00 0.225 C 4.28 g/m*3 0.23 C 1.46667 km/h
706 27-01-2017 18:00:00 -0.60833 C 4.11 g/m*3 -0.61 C 1.33333 km/h
707 27-01-2017 19:00:00 -1.54167 C 3.88 g/m*3 -1.54 C 0 km/h
708 27-01-2017 20:00:00 -2.30833 C 3.73 g/m*3 -2.31 C 0 km/h
709 27-01-2017 21:00:00 -3.05 C 3.57 g/m*3 -3.05 C 0 km/h
710 27-01-2017 22:00:00 -3.45 C 3.5 g/m*3 -3.45 C 0 km/h
711 27-01-2017 23:00:00 -4.13333 C 3.35 g/m*3 -4.13 C 0 km/h
712 28-01-2017 00:00:00 -4.34167 C 3.33 g/m*3 -4.34 C 0 km/h
713 28-01-2017 01:00:00 -4.66667 C 3.25 g/m*3 -4.67 C 0 km/h
714 28-01-2017 02:00:00 -4.96667 C 3.21 g/m*3 -4.97 C 0 km/h
715 28-01-2017 03:00:00 -5.225 C 3.15 g/m*3 -5.23 C 0 km/h
716 28-01-2017 04:00:00 -5.39167 C 3.11 g/m*3 -5.39 C 0.4 km/h
717 28-01-2017 05:00:00 -5.13333 C 3.18 g/m*3 -5.13 C 1.2 km/h
718 28-01-2017 06:00:00 -5.225 C 3.15 g/m*3 -5.23 C 0 km/h
719 28-01-2017 07:00:00 -5.79167 C 3.02 g/m*3 -5.79 C 0.13333 km/h
720 28-01-2017 08:00:00 -5.34167 C 3.15 g/m*3 -5.34 C 0 km/h
721 28-01-2017 09:00:00 -4.39167 C 3.37 g/m*3 -4.39 C 0.26667 km/h
722 28-01-2017 10:00:00 -3.35 C 3.56 g/m*3 -3.35 C 0.66667 km/h
723 28-01-2017 11:00:00 -2.7 C 3.66 g/m*3 -2.7 C 0 km/h
724 28-01-2017 12:00:00 -1.35833 C 4 g/m*3 -1.36 C 0 km/h
725 28-01-2017 13:00:00 1.10833 C 4.34 g/m*3 1.11 C 0 km/h
Sensor: Nr:Datum:Temp:Abs-Feuchte:Windchill:Wind:
Aussen-T/F 726 28-01-2017 14:00:00 2.41667 C 4.5 g/m*3 2.42 C 0 km/h
727 28-01-2017 15:00:00 2.75833 C 4.82 g/m*3 2.76 C 0.13333 km/h
728 28-01-2017 16:00:00 1.825 C 4.7 g/m*3 1.83 C 1.33333 km/h
729 28-01-2017 17:00:00 1.09167 C 4.6 g/m*3 1.09 C 1.2 km/h
730 28-01-2017 18:00:00 0.93333 C 4.6 g/m*3 0.93 C 0 km/h
731 28-01-2017 19:00:00 0.75833 C 4.6 g/m*3 0.76 C 0 km/h
732 28-01-2017 20:00:00 0.73333 C 4.62 g/m*3 0.73 C 0 km/h
733 28-01-2017 21:00:00 0.4 C 4.53 g/m*3 0.4 C 0 km/h
734 28-01-2017 22:00:00 -0.075 C 4.4 g/m*3 -0.08 C 0 km/h
735 28-01-2017 23:00:00 0.25 C 4.54 g/m*3 0.25 C 0.13333 km/h
736 29-01-2017 00:00:00 0.66667 C 4.62 g/m*3 0.67 C 0 km/h
737 29-01-2017 01:00:00 0.75833 C 4.65 g/m*3 0.76 C 0 km/h
738 29-01-2017 02:00:00 0.925 C 4.74 g/m*3 0.93 C 0 km/h
739 29-01-2017 03:00:00 1.1 C 4.88 g/m*3 1.1 C 0 km/h
740 29-01-2017 04:00:00 1.1 C 4.91 g/m*3 1.1 C 0 km/h
741 29-01-2017 05:00:00 1.175 C 4.99 g/m*3 1.18 C 0 km/h
742 29-01-2017 06:00:00 1.13333 C 4.98 g/m*3 1.13 C 0 km/h
743 29-01-2017 07:00:00 1.19167 C 5 g/m*3 1.19 C 0 km/h
744 29-01-2017 08:00:00 1.20833 C 5.01 g/m*3 1.21 C 0 km/h
745 29-01-2017 09:00:00 1.93333 C 5.29 g/m*3 1.93 C 0.8 km/h
746 29-01-2017 10:00:00 3.34167 C 5.67 g/m*3 3.34 C 1.06667 km/h
747 29-01-2017 11:00:00 4.8 C 6.04 g/m*3 4.8 C 0 km/h
748 29-01-2017 12:00:00 6.18333 C 6.35 g/m*3 6.18 C 0.8 km/h
749 29-01-2017 13:00:00 6.84167 C 6.63 g/m*3 6.84 C 1.2 km/h
750 29-01-2017 14:00:00 6.18333 C 6.42 g/m*3 6.18 C 4.95833 km/h
Sensor: Nr:Datum:Temp:Abs-Feuchte:Windchill:Wind:
Aussen-T/F 751 29-01-2017 15:00:00 6.21667 C 6.38 g/m*3 6.22 C 1.34167 km/h
752 29-01-2017 16:00:00 5.76667 C 6.27 g/m*3 5.77 C 1.73333 km/h
753 29-01-2017 17:00:00 4.75833 C 6.01 g/m*3 4.76 C 3.73333 km/h
754 29-01-2017 18:00:00 3.73333 C 5.71 g/m*3 3.73 C 3.6 km/h
755 29-01-2017 19:00:00 2.7 C 5.41 g/m*3 2.7 C 4.13333 km/h
756 29-01-2017 20:00:00 2.35833 C 5.35 g/m*3 2.36 C 2.66667 km/h
757 29-01-2017 21:00:00 1.78333 C 5.18 g/m*3 1.78 C 4 km/h
758 29-01-2017 22:00:00 1.7 C 5.17 g/m*3 1.7 C 1.06667 km/h
759 29-01-2017 23:00:00 1.3 C 5.03 g/m*3 1.3 C 0 km/h
760 30-01-2017 00:00:00 0.9 C 4.91 g/m*3 0.9 C 0.26667 km/h
761 30-01-2017 01:00:00 1.76667 C 5.25 g/m*3 1.77 C 0.26667 km/h
762 30-01-2017 02:00:00 2.15 C 5.39 g/m*3 2.15 C 0.26667 km/h
763 30-01-2017 03:00:00 2.50833 C 5.52 g/m*3 2.51 C 0.8 km/h
764 30-01-2017 04:00:00 3.15 C 5.77 g/m*3 3.15 C 2.93333 km/h
765 30-01-2017 05:00:00 3.375 C 5.85 g/m*3 3.38 C 1.06667 km/h
766 30-01-2017 06:00:00 3.20833 C 5.79 g/m*3 3.21 C 0.53333 km/h
767 30-01-2017 07:00:00 3.29167 C 5.82 g/m*3 3.29 C 1.2 km/h
768 30-01-2017 08:00:00 3.5 C 5.93 g/m*3 3.5 C 2 km/h
769 30-01-2017 09:00:00 3.84167 C 6.1 g/m*3 3.84 C 2.26667 km/h
770 30-01-2017 10:00:00 4.35 C 6.31 g/m*3 4.35 C 1.06667 km/h
771 30-01-2017 11:00:00 5.50833 C 6.8 g/m*3 5.51 C 4.55833 km/h
772 30-01-2017 12:00:00 6.39167 C 7.04 g/m*3 5.58 C 5.23333 km/h
773 30-01-2017 13:00:00 7.10833 C 7.11 g/m*3 5.27 C 9.53333 km/h
774 30-01-2017 14:00:00 7.2 C 7.12 g/m*3 5.07 C 11.16667 km/h
775 30-01-2017 15:00:00 6.90833 C 6.97 g/m*3 5.17 C 8.875 km/h
Sensor: Nr:Datum:Temp:Abs-Feuchte:Windchill:Wind:
Aussen-T/F 776 30-01-2017 16:00:00 6.89167 C 7 g/m*3 4.6 C 11.7 km/h
777 30-01-2017 17:00:00 6.8 C 7.04 g/m*3 5.02 C 9.00833 km/h
778 30-01-2017 18:00:00 6.36667 C 6.93 g/m*3 5.13 C 6.55 km/h
779 30-01-2017 19:00:00 6.23333 C 6.93 g/m*3 5.18 C 5.88333 km/h
780 30-01-2017 20:00:00 5.99167 C 6.83 g/m*3 5.99 C 1.73333 km/h
781 30-01-2017 21:00:00 5.43333 C 6.65 g/m*3 5.43 C 1.33333 km/h
782 30-01-2017 22:00:00 5.375 C 6.67 g/m*3 5.38 C 2.53333 km/h
783 30-01-2017 23:00:00 5.39167 C 6.62 g/m*3 5.39 C 3.075 km/h
784 31-01-2017 00:00:00 5.475 C 6.49 g/m*3 5.48 C 2.93333 km/h
785 31-01-2017 01:00:00 5.34167 C 6.38 g/m*3 3.48 C 8.2 km/h
786 31-01-2017 02:00:00 4.9 C 6.2 g/m*3 3.04 C 7.925 km/h
787 31-01-2017 03:00:00 4.54167 C 6.06 g/m*3 4.54 C 4.26667 km/h
788 31-01-2017 04:00:00 4.06667 C 5.9 g/m*3 2.22 C 7.36667 km/h
789 31-01-2017 05:00:00 3.51667 C 5.77 g/m*3 3.52 C 4.94167 km/h
790 31-01-2017 06:00:00 3.06667 C 5.61 g/m*3 3.07 C 2.8 km/h
791 31-01-2017 07:00:00 2.7 C 5.48 g/m*3 2.7 C 2 km/h
792 31-01-2017 08:00:00 2.44167 C 5.37 g/m*3 2.44 C 2.4 km/h
793 31-01-2017 09:00:00 2.65833 C 5.4 g/m*3 2.66 C 3.06667 km/h
794 31-01-2017 10:00:00 2.85833 C 5.38 g/m*3 2.86 C 4.94167 km/h
795 31-01-2017 11:00:00 3.18333 C 5.48 g/m*3 3.18 C 3.6 km/h
796 31-01-2017 12:00:00 3.68333 C 5.53 g/m*3 3.68 C 1.33333 km/h
797 31-01-2017 13:00:00 3.74167 C 5.43 g/m*3 3.74 C 2.26667 km/h
798 31-01-2017 14:00:00 3.65833 C 5.35 g/m*3 3.66 C 2.26667 km/h
799 31-01-2017 15:00:00 3.59167 C 5.36 g/m*3 3.59 C 0.13333 km/h
800 31-01-2017 16:00:00 3.31667 C 5.4 g/m*3 3.32 C 0 km/h
Sensor: Nr:Datum:Temp:Abs-Feuchte:Windchill:Wind:
Aussen-T/F 801 31-01-2017 17:00:00 2.81667 C 5.34 g/m*3 2.82 C 0.13333 km/h
802 31-01-2017 18:00:00 2.48333 C 5.29 g/m*3 2.48 C 0.13333 km/h
803 31-01-2017 19:00:00 2.33333 C 5.29 g/m*3 2.33 C 0 km/h
804 31-01-2017 20:00:00 2.275 C 5.27 g/m*3 2.28 C 0.26667 km/h
805 31-01-2017 21:00:00 2.2 C 5.24 g/m*3 2.2 C 0 km/h
806 31-01-2017 22:00:00 2.175 C 5.2 g/m*3 2.17 C 0.13333 km/h
807 31-01-2017 23:00:00 2.075 C 5.19 g/m*3 2.08 C 0 km/h
808 01-02-2017 00:00:00 1.89167 C 5.13 g/m*3 1.89 C 0.26667 km/h
809 01-02-2017 01:00:00 1.88333 C 5.15 g/m*3 1.88 C 0.26667 km/h
810 01-02-2017 02:00:00 1.9 C 5.13 g/m*3 1.9 C 0.13333 km/h
811 01-02-2017 03:00:00 2 C 5.13 g/m*3 2 C 0 km/h
812 01-02-2017 04:00:00 2.15833 C 5.1 g/m*3 2.16 C 0.66667 km/h
813 01-02-2017 05:00:00 1.95833 C 4.99 g/m*3 1.96 C 0.66667 km/h
814 01-02-2017 06:00:00 1.83333 C 5 g/m*3 1.83 C 0.53333 km/h
815 01-02-2017 07:00:00 1.84167 C 4.98 g/m*3 1.84 C 1.475 km/h
816 01-02-2017 08:00:00 2.06667 C 4.98 g/m*3 2.07 C 1.6 km/h
817 01-02-2017 09:00:00 2.525 C 5 g/m*3 2.53 C 2.4 km/h
818 01-02-2017 10:00:00 3.325 C 5.14 g/m*3 3.33 C 4.28333 km/h
819 01-02-2017 11:00:00 3.99167 C 5.23 g/m*3 2.6 C 5.89167 km/h
820 01-02-2017 12:00:00 4.23333 C 5.24 g/m*3 2.18 C 8.19167 km/h
821 01-02-2017 13:00:00 5.01667 C 5.43 g/m*3 4.07 C 5.075 km/h
822 01-02-2017 14:00:00 4.90833 C 5.48 g/m*3 4.91 C 3.60833 km/h
823 01-02-2017 15:00:00 5.175 C 5.56 g/m*3 5.18 C 4.14167 km/h
824 01-02-2017 16:00:00 5.16667 C 5.69 g/m*3 5.17 C 3.74167 km/h
825 01-02-2017 17:00:00 4.89167 C 5.8 g/m*3 4.89 C 3.475 km/h
Sensor: Nr:Datum:Temp:Abs-Feuchte:Windchill:Wind:
Aussen-T/F 826 01-02-2017 18:00:00 4.63333 C 5.85 g/m*3 4.63 C 3.33333 km/h
827 01-02-2017 19:00:00 4.575 C 5.92 g/m*3 4.58 C 1.73333 km/h
828 01-02-2017 20:00:00 4.46667 C 5.91 g/m*3 4.47 C 0.53333 km/h
829 01-02-2017 21:00:00 4.39167 C 5.94 g/m*3 4.39 C 0.13333 km/h
830 01-02-2017 22:00:00 4.31667 C 5.97 g/m*3 4.32 C 0.13333 km/h
831 01-02-2017 23:00:00 4.51667 C 6.06 g/m*3 4.52 C 0.26667 km/h
832 02-02-2017 00:00:00 4.49167 C 6.13 g/m*3 4.49 C 0.4 km/h
833 02-02-2017 01:00:00 4.1 C 6.06 g/m*3 4.1 C 0.93333 km/h
834 02-02-2017 02:00:00 3.23333 C 5.74 g/m*3 3.23 C 2.26667 km/h
835 02-02-2017 03:00:00 3.58333 C 5.94 g/m*3 3.58 C 1.06667 km/h
836 02-02-2017 04:00:00 3.54167 C 5.92 g/m*3 3.54 C 1.06667 km/h
837 02-02-2017 05:00:00 3.6 C 5.94 g/m*3 3.6 C 0.26667 km/h
838 02-02-2017 06:00:00 3.79167 C 6.03 g/m*3 3.79 C 0 km/h
839 02-02-2017 07:00:00 3.60833 C 5.95 g/m*3 3.61 C 1.46667 km/h
840 02-02-2017 08:00:00 3.23333 C 5.82 g/m*3 3.23 C 1.73333 km/h
841 02-02-2017 09:00:00 4.29167 C 6.29 g/m*3 4.29 C 0 km/h
842 02-02-2017 10:00:00 5.175 C 6.67 g/m*3 5.18 C 0.26667 km/h
843 02-02-2017 11:00:00 5.81667 C 6.96 g/m*3 5.82 C 0 km/h
844 02-02-2017 12:00:00 6.56667 C 7.23 g/m*3 6.57 C 0.53333 km/h
845 02-02-2017 13:00:00 8.35833 C 7.74 g/m*3 8.36 C 1.86667 km/h
846 02-02-2017 14:00:00 8.98333 C 7.79 g/m*3 8.98 C 0.13333 km/h
847 02-02-2017 15:00:00 9.11667 C 7.96 g/m*3 9.12 C 0 km/h
848 02-02-2017 16:00:00 8.65833 C 7.68 g/m*3 8.66 C 1.06667 km/h
849 02-02-2017 17:00:00 6.975 C 6.99 g/m*3 6.98 C 2.13333 km/h
850 02-02-2017 18:00:00 5.34167 C 6.48 g/m*3 5.34 C 2.93333 km/h
Sensor: Nr:Datum:Temp:Abs-Feuchte:Windchill:Wind:
Aussen-T/F 851 02-02-2017 19:00:00 4.85 C 6.37 g/m*3 4.85 C 3.06667 km/h
852 02-02-2017 20:00:00 4.71667 C 6.34 g/m*3 4.72 C 2.8 km/h
853 02-02-2017 21:00:00 4.325 C 6.19 g/m*3 4.33 C 2.66667 km/h
854 02-02-2017 22:00:00 3.94167 C 6.07 g/m*3 3.94 C 2.13333 km/h
855 02-02-2017 23:00:00 3.14167 C 5.75 g/m*3 3.14 C 0 km/h
856 03-02-2017 00:00:00 2.60833 C 5.56 g/m*3 2.61 C 0 km/h
857 03-02-2017 01:00:00 1.85833 C 5.28 g/m*3 1.86 C 0 km/h
858 03-02-2017 02:00:00 2.24167 C 5.45 g/m*3 2.24 C 0.26667 km/h
859 03-02-2017 03:00:00 2.75 C 5.67 g/m*3 2.75 C 0.13333 km/h
860 03-02-2017 04:00:00 2.95 C 5.75 g/m*3 2.95 C 0.13333 km/h
861 03-02-2017 05:00:00 3.20833 C 5.85 g/m*3 3.21 C 0 km/h
862 03-02-2017 06:00:00 3.275 C 5.87 g/m*3 3.28 C 0.13333 km/h
863 03-02-2017 07:00:00 3.6 C 6 g/m*3 3.6 C 0.66667 km/h
864 03-02-2017 08:00:00 3.74167 C 6.06 g/m*3 3.74 C 0.26667 km/h
865 03-02-2017 09:00:00 4.325 C 6.31 g/m*3 4.33 C 0 km/h
866 03-02-2017 10:00:00 5.75833 C 7 g/m*3 5.76 C 0.13333 km/h
867 03-02-2017 11:00:00 7.95 C 8.08 g/m*3 7.95 C 2.41667 km/h
868 03-02-2017 12:00:00 9.39167 C 8.85 g/m*3 9.39 C 3.06667 km/h
869 03-02-2017 13:00:00 9.91667 C 8.75 g/m*3 8.98 C 7.65 km/h
870 03-02-2017 14:00:00 10.575 C 8.5 g/m*3 9.81 C 7.39167 km/h
871 03-02-2017 15:00:00 10.75 C 8.28 g/m*3 10.58 C 5.09167 km/h
872 03-02-2017 16:00:00 10.08333 C 8.05 g/m*3 10.08 C 1.6 km/h
873 03-02-2017 17:00:00 8.775 C 7.63 g/m*3 8.78 C 2.26667 km/h
874 03-02-2017 18:00:00 6.13333 C 6.65 g/m*3 5.3 C 5.2 km/h
875 03-02-2017 19:00:00 4.78333 C 6.29 g/m*3 4.78 C 4.53333 km/h
Sensor: Nr:Datum:Temp:Abs-Feuchte:Windchill:Wind:
Aussen-T/F 876 03-02-2017 20:00:00 4.275 C 6.15 g/m*3 4.28 C 3.6 km/h
877 03-02-2017 21:00:00 4.99167 C 6.49 g/m*3 4.99 C 2.66667 km/h
878 03-02-2017 22:00:00 5.30833 C 6.56 g/m*3 5.31 C 2.4 km/h
879 03-02-2017 23:00:00 6.59167 C 6.99 g/m*3 6.59 C 3.06667 km/h
880 04-02-2017 00:00:00 7.35 C 7 g/m*3 7.35 C 2.80833 km/h
881 04-02-2017 01:00:00 7.04167 C 6.85 g/m*3 5.66 C 7.5 km/h
882 04-02-2017 02:00:00 7.71667 C 6.93 g/m*3 4.92 C 16.375 km/h
883 04-02-2017 03:00:00 7 C 6.73 g/m*3 4.55 C 12.75833 km/h
884 04-02-2017 04:00:00 6.15833 C 6.43 g/m*3 6.16 C 4.95 km/h
885 04-02-2017 05:00:00 4.20833 C 5.93 g/m*3 4.21 C 4.13333 km/h
886 04-02-2017 06:00:00 3.35833 C 5.73 g/m*3 3.36 C 2.26667 km/h
887 04-02-2017 07:00:00 3.30833 C 5.78 g/m*3 3.31 C 4.14167 km/h
888 04-02-2017 08:00:00 4.69167 C 6.25 g/m*3 3.6 C 5.34167 km/h
889 04-02-2017 09:00:00 5.625 C 6.36 g/m*3 4.67 C 5.34167 km/h
890 04-02-2017 10:00:00 6.44167 C 6.46 g/m*3 5.06 C 7.10833 km/h
891 04-02-2017 11:00:00 7.375 C 6.55 g/m*3 6.49 C 5.89167 km/h
892 04-02-2017 12:00:00 7.75 C 6.53 g/m*3 7.75 C 4.94167 km/h
893 04-02-2017 13:00:00 7.75833 C 6.4 g/m*3 7.05 C 5.49167 km/h
894 04-02-2017 14:00:00 7.16667 C 6.62 g/m*3 6.46 C 5.225 km/h
895 04-02-2017 15:00:00 6.95833 C 6.78 g/m*3 6.96 C 4.275 km/h
896 04-02-2017 16:00:00 6.95833 C 6.88 g/m*3 6.96 C 3.89167 km/h
897 04-02-2017 17:00:00 6.10833 C 6.79 g/m*3 6.11 C 0.4 km/h
898 04-02-2017 18:00:00 5.5 C 6.65 g/m*3 5.5 C 0 km/h
899 04-02-2017 19:00:00 5.225 C 6.59 g/m*3 5.23 C 0 km/h
900 04-02-2017 20:00:00 5.03333 C 6.54 g/m*3 5.03 C 0 km/h
Sensor: Nr:Datum:Temp:Abs-Feuchte:Windchill:Wind:
Aussen-T/F 901 04-02-2017 21:00:00 5.01667 C 6.53 g/m*3 5.02 C 0 km/h
902 04-02-2017 22:00:00 4.975 C 6.54 g/m*3 4.97 C 0 km/h
903 04-02-2017 23:00:00 5.40833 C 6.76 g/m*3 5.41 C 4.84167 km/h
904 05-02-2017 00:00:00 5.65 C 6.83 g/m*3 4.64 C 5.5 km/h
905 05-02-2017 01:00:00 5.43333 C 6.56 g/m*3 3.13 C 10.20833 km/h
906 05-02-2017 02:00:00 5.65833 C 6.52 g/m*3 3.24 C 11.025 km/h
907 05-02-2017 03:00:00 5.38333 C 6.29 g/m*3 3.04 C 10.35 km/h
908 05-02-2017 04:00:00 4.85 C 6.14 g/m*3 4.85 C 2 km/h
909 05-02-2017 05:00:00 3.53333 C 5.71 g/m*3 3.53 C 3.33333 km/h
910 05-02-2017 06:00:00 2.475 C 5.41 g/m*3 2.48 C 4 km/h
911 05-02-2017 07:00:00 1.76667 C 5.18 g/m*3 1.77 C 1.33333 km/h
912 05-02-2017 08:00:00 0.91667 C 4.9 g/m*3 0.92 C 0 km/h
913 05-02-2017 09:00:00 1.18333 C 5.05 g/m*3 1.18 C 0.13333 km/h
914 05-02-2017 10:00:00 2.80833 C 5.68 g/m*3 2.81 C 4.81667 km/h
915 05-02-2017 11:00:00 4.65 C 6.32 g/m*3 4.65 C 0.93333 km/h
916 05-02-2017 12:00:00 5.73333 C 6.63 g/m*3 5.73 C 1.06667 km/h
917 05-02-2017 13:00:00 7.40833 C 6.74 g/m*3 7.41 C 4.15 km/h
918 05-02-2017 14:00:00 8.025 C 6.71 g/m*3 8.03 C 2 km/h
919 05-02-2017 15:00:00 8.35833 C 6.67 g/m*3 8.36 C 1.86667 km/h
920 05-02-2017 16:00:00 7.725 C 6.92 g/m*3 7.73 C 0.53333 km/h
921 05-02-2017 17:00:00 6.18333 C 6.39 g/m*3 6.18 C 3.86667 km/h
922 05-02-2017 18:00:00 5.275 C 6.16 g/m*3 5.28 C 4.13333 km/h
923 05-02-2017 19:00:00 4.9 C 6.16 g/m*3 4.9 C 1.73333 km/h
924 05-02-2017 20:00:00 4.86667 C 6.2 g/m*3 4.87 C 0.13333 km/h
925 05-02-2017 21:00:00 4.55833 C 6.07 g/m*3 4.56 C 0.53333 km/h
Sensor: Nr:Datum:Temp:Abs-Feuchte:Windchill:Wind:
Aussen-T/F 926 05-02-2017 22:00:00 4.51667 C 6.09 g/m*3 4.52 C 0.93333 km/h
927 05-02-2017 23:00:00 4.3 C 5.97 g/m*3 4.3 C 0.53333 km/h
928 06-02-2017 00:00:00 3.83333 C 5.85 g/m*3 3.83 C 0.66667 km/h
929 06-02-2017 01:00:00 3.775 C 5.88 g/m*3 3.78 C 0.53333 km/h
930 06-02-2017 02:00:00 3.81667 C 5.9 g/m*3 3.82 C 0 km/h
931 06-02-2017 03:00:00 3.76667 C 5.89 g/m*3 3.77 C 0 km/h
932 06-02-2017 04:00:00 3.575 C 5.81 g/m*3 3.58 C 0 km/h
933 06-02-2017 05:00:00 3.325 C 5.71 g/m*3 3.33 C 0 km/h
934 06-02-2017 06:00:00 2.75 C 5.51 g/m*3 2.75 C 0.13333 km/h
935 06-02-2017 07:00:00 2.275 C 5.36 g/m*3 2.28 C 0.4 km/h
936 06-02-2017 08:00:00 1.4 C 5.06 g/m*3 1.4 C 0 km/h
937 06-02-2017 09:00:00 1.20833 C 5.04 g/m*3 1.21 C 0 km/h
938 06-02-2017 10:00:00 2.11667 C 5.39 g/m*3 2.12 C 0.13333 km/h
939 06-02-2017 11:00:00 3.79167 C 6.01 g/m*3 3.79 C 1.2 km/h
940 06-02-2017 12:00:00 5.34167 C 6.17 g/m*3 5.34 C 2 km/h
941 06-02-2017 13:00:00 6.275 C 6.16 g/m*3 6.28 C 2 km/h
942 06-02-2017 14:00:00 7.19167 C 6.05 g/m*3 6.19 C 6.16667 km/h
943 06-02-2017 15:00:00 7.84167 C 5.82 g/m*3 7.84 C 3.875 km/h
944 06-02-2017 16:00:00 7.45833 C 5.77 g/m*3 7.46 C 1.06667 km/h
945 06-02-2017 17:00:00 6.05833 C 5.93 g/m*3 6.06 C 2 km/h
946 06-02-2017 18:00:00 4.4 C 5.63 g/m*3 4.4 C 4.4 km/h
947 06-02-2017 19:00:00 3.75 C 5.51 g/m*3 3.75 C 2.53333 km/h
948 06-02-2017 20:00:00 2.4 C 5.13 g/m*3 2.4 C 0.8 km/h
949 06-02-2017 21:00:00 1.5 C 4.96 g/m*3 1.5 C 0 km/h
950 06-02-2017 22:00:00 1.825 C 5.11 g/m*3 1.83 C 0 km/h
Sensor: Nr:Datum:Temp:Abs-Feuchte:Windchill:Wind:
Aussen-T/F 951 06-02-2017 23:00:00 2.1 C 5.21 g/m*3 2.1 C 0 km/h
952 07-02-2017 00:00:00 2.36667 C 5.32 g/m*3 2.37 C 0.13333 km/h
953 07-02-2017 01:00:00 2.46667 C 5.32 g/m*3 2.47 C 0.26667 km/h
954 07-02-2017 02:00:00 2.575 C 5.37 g/m*3 2.58 C 0 km/h
955 07-02-2017 03:00:00 2.66667 C 5.41 g/m*3 2.67 C 0.13333 km/h
956 07-02-2017 04:00:00 2.76667 C 5.44 g/m*3 2.77 C 0 km/h
957 07-02-2017 05:00:00 2.8 C 5.46 g/m*3 2.8 C 0 km/h
958 07-02-2017 06:00:00 2.8 C 5.46 g/m*3 2.8 C 0 km/h
959 07-02-2017 07:00:00 2.71667 C 5.42 g/m*3 2.72 C 0 km/h
960 07-02-2017 08:00:00 2.73333 C 5.44 g/m*3 2.73 C 0 km/h
961 07-02-2017 09:00:00 3.14167 C 5.56 g/m*3 3.14 C 0.13333 km/h
962 07-02-2017 10:00:00 3.88333 C 5.7 g/m*3 3.88 C 0.53333 km/h
963 07-02-2017 11:00:00 5.275 C 6 g/m*3 5.28 C 1.46667 km/h
964 07-02-2017 12:00:00 6.61667 C 6.26 g/m*3 5.71 C 5.60833 km/h
965 07-02-2017 13:00:00 6.95833 C 6.28 g/m*3 6.17 C 5.375 km/h
966 07-02-2017 14:00:00 7.03333 C 6.28 g/m*3 7.03 C 4.95 km/h
967 07-02-2017 15:00:00 6.86667 C 6.26 g/m*3 6.87 C 4.275 km/h
968 07-02-2017 16:00:00 6.58333 C 6.27 g/m*3 6.58 C 2.4 km/h
969 07-02-2017 17:00:00 5.89167 C 6.18 g/m*3 5.89 C 0.8 km/h
970 07-02-2017 18:00:00 5.15833 C 6.09 g/m*3 5.16 C 0.53333 km/h
971 07-02-2017 19:00:00 4.675 C 6.01 g/m*3 4.68 C 0.26667 km/h
972 07-02-2017 20:00:00 4.30833 C 5.97 g/m*3 4.31 C 0.53333 km/h
973 07-02-2017 21:00:00 3.875 C 5.8 g/m*3 3.88 C 0.13333 km/h
974 07-02-2017 22:00:00 3.66667 C 5.7 g/m*3 3.67 C 0.26667 km/h
975 07-02-2017 23:00:00 3.41667 C 5.6 g/m*3 3.42 C 1.06667 km/h
Sensor: Nr:Datum:Temp:Abs-Feuchte:Windchill:Wind:
Aussen-T/F 976 08-02-2017 00:00:00 3.36667 C 5.5 g/m*3 3.37 C 2.8 km/h
977 08-02-2017 01:00:00 3.24167 C 5.4 g/m*3 3.24 C 3.20833 km/h
978 08-02-2017 02:00:00 3.05 C 5.32 g/m*3 3.05 C 1.875 km/h
979 08-02-2017 03:00:00 2.85833 C 5.26 g/m*3 2.86 C 3.76667 km/h
980 08-02-2017 04:00:00 2.66667 C 5.21 g/m*3 2.67 C 0.8 km/h
981 08-02-2017 05:00:00 2.225 C 5.08 g/m*3 2.23 C 1.46667 km/h
982 08-02-2017 06:00:00 2.1 C 5 g/m*3 2.1 C 4.00833 km/h
983 08-02-2017 07:00:00 1.74167 C 4.92 g/m*3 1.74 C 0.66667 km/h
984 08-02-2017 08:00:00 1.44167 C 4.89 g/m*3 1.44 C 0.53333 km/h
985 08-02-2017 09:00:00 2.16667 C 5.01 g/m*3 2.17 C 3.06667 km/h
986 08-02-2017 10:00:00 2.85 C 5.09 g/m*3 1.1 C 6.43333 km/h
987 08-02-2017 11:00:00 3.56667 C 5.17 g/m*3 1.05 C 9.54167 km/h
988 08-02-2017 12:00:00 4.225 C 5.27 g/m*3 1.8 C 9.68333 km/h
989 08-02-2017 13:00:00 5.03333 C 5.37 g/m*3 3.09 C 8.34167 km/h
990 08-02-2017 14:00:00 5.48333 C 5.4 g/m*3 3.62 C 8.33333 km/h
991 08-02-2017 15:00:00 5.75833 C 5.45 g/m*3 4.63 C 5.89167 km/h
992 08-02-2017 16:00:00 5.60833 C 5.4 g/m*3 5.61 C 3.6 km/h
993 08-02-2017 17:00:00 4.84167 C 5.29 g/m*3 4.84 C 1.875 km/h
994 08-02-2017 18:00:00 3.76667 C 5.09 g/m*3 3.77 C 0.93333 km/h
995 08-02-2017 19:00:00 2.81667 C 4.99 g/m*3 2.82 C 0 km/h
996 08-02-2017 20:00:00 2.125 C 4.88 g/m*3 2.13 C 0.13333 km/h
997 08-02-2017 21:00:00 0.89167 C 4.54 g/m*3 0.89 C 0.93333 km/h
998 08-02-2017 22:00:00 0.05 C 4.4 g/m*3 0.05 C 4.28333 km/h
999 08-02-2017 23:00:00 -0.16667 C 4.34 g/m*3 -0.17 C 0.53333 km/h
1000 09-02-2017 00:00:00 -0.675 C 4.23 g/m*3 -0.68 C 0.8 km/h
Sensor: Nr:Datum:Temp:Abs-Feuchte:Windchill:Wind:
Aussen-T/F 1001 09-02-2017 01:00:00 -0.95833 C 4.17 g/m*3 -0.96 C 0.93333 km/h
1002 09-02-2017 02:00:00 -1.125 C 4.12 g/m*3 -1.13 C 0 km/h
1003 09-02-2017 03:00:00 -1.41667 C 4.04 g/m*3 -1.42 C 0 km/h
1004 09-02-2017 04:00:00 -1.66667 C 3.98 g/m*3 -1.67 C 0 km/h
1005 09-02-2017 05:00:00 -1.7 C 4 g/m*3 -1.7 C 0.53333 km/h
1006 09-02-2017 06:00:00 -1.89167 C 3.88 g/m*3 -1.89 C 0.26667 km/h
1007 09-02-2017 07:00:00 -2.31667 C 3.78 g/m*3 -2.32 C 0 km/h
1008 09-02-2017 08:00:00 -2.43333 C 3.78 g/m*3 -2.43 C 0 km/h
1009 09-02-2017 09:00:00 -1.575 C 3.93 g/m*3 -1.58 C 2.66667 km/h
1010 09-02-2017 10:00:00 -0.75833 C 3.97 g/m*3 -2.62 C 5.35833 km/h
1011 09-02-2017 11:00:00 0.18333 C 4.06 g/m*3 -2.67 C 8.475 km/h
1012 09-02-2017 12:00:00 1.03333 C 4.11 g/m*3 -1.5 C 7.925 km/h
1013 09-02-2017 13:00:00 1.93333 C 4.19 g/m*3 1.93 C 4.4 km/h
1014 09-02-2017 14:00:00 3.025 C 4.3 g/m*3 1.54 C 5.75833 km/h
1015 09-02-2017 15:00:00 3.20833 C 4.28 g/m*3 3.21 C 3.475 km/h
1016 09-02-2017 16:00:00 2.875 C 4.23 g/m*3 1.37 C 5.76667 km/h
1017 09-02-2017 17:00:00 1.89167 C 4.26 g/m*3 1.89 C 0.8 km/h
1018 09-02-2017 18:00:00 0.79167 C 4.23 g/m*3 0.79 C 0.26667 km/h
1019 09-02-2017 19:00:00 0.25 C 4.14 g/m*3 0.25 C 0.4 km/h
1020 09-02-2017 20:00:00 0.63333 C 4.12 g/m*3 0.63 C 1.46667 km/h
1021 09-02-2017 21:00:00 0.83333 C 4.06 g/m*3 0.83 C 1.875 km/h
1022 09-02-2017 22:00:00 0.76667 C 3.96 g/m*3 0.77 C 3.75 km/h
1023 09-02-2017 23:00:00 0.50833 C 3.96 g/m*3 0.51 C 1.73333 km/h
1024 10-02-2017 00:00:00 0.26667 C 3.94 g/m*3 -1.63 C 5.78333 km/h
1025 10-02-2017 01:00:00 0.075 C 3.92 g/m*3 0.08 C 2.81667 km/h
Sensor: Nr:Datum:Temp:Abs-Feuchte:Windchill:Wind:
Aussen-T/F 1026 10-02-2017 02:00:00 -0.09167 C 3.93 g/m*3 -0.09 C 1.73333 km/h
1027 10-02-2017 03:00:00 -0.01667 C 3.96 g/m*3 -0.02 C 1.33333 km/h
1028 10-02-2017 04:00:00 -0.075 C 3.98 g/m*3 -0.08 C 0 km/h
1029 10-02-2017 05:00:00 -0.15 C 3.97 g/m*3 -0.15 C 0.53333 km/h
1030 10-02-2017 06:00:00 -0.09167 C 3.95 g/m*3 -0.09 C 0.66667 km/h
1031 10-02-2017 07:00:00 -0.09167 C 4 g/m*3 -0.09 C 0.26667 km/h
1032 10-02-2017 08:00:00 0.05833 C 4.03 g/m*3 0.06 C 2 km/h
1033 10-02-2017 09:00:00 0.34167 C 4.07 g/m*3 0.34 C 3.6 km/h
1034 10-02-2017 10:00:00 0.55 C 4.11 g/m*3 0.55 C 4.41667 km/h
1035 10-02-2017 11:00:00 0.85 C 4.19 g/m*3 0.85 C 4.53333 km/h
1036 10-02-2017 12:00:00 1.175 C 4.25 g/m*3 -1.16 C 7.38333 km/h
1037 10-02-2017 13:00:00 1.40833 C 4.27 g/m*3 -1.15 C 8.20833 km/h
1038 10-02-2017 14:00:00 1.49167 C 4.31 g/m*3 -0.7 C 7.1 km/h
1039 10-02-2017 15:00:00 1.7 C 4.36 g/m*3 -0.18 C 6.3 km/h
1040 10-02-2017 16:00:00 1.79167 C 4.41 g/m*3 1.79 C 3.46667 km/h
1041 10-02-2017 17:00:00 1.69167 C 4.44 g/m*3 1.69 C 0.53333 km/h
1042 10-02-2017 18:00:00 1.41667 C 4.46 g/m*3 1.42 C 0.26667 km/h
1043 10-02-2017 19:00:00 1.25833 C 4.49 g/m*3 1.26 C 0.66667 km/h
1044 10-02-2017 20:00:00 1.23333 C 4.52 g/m*3 1.23 C 0.8 km/h
1045 10-02-2017 21:00:00 0.5 C 4.38 g/m*3 0.5 C 0.93333 km/h
1046 10-02-2017 22:00:00 0.15 C 4.39 g/m*3 0.15 C 1.33333 km/h
1047 10-02-2017 23:00:00 0.69167 C 4.56 g/m*3 0.69 C 0.53333 km/h
1048 11-02-2017 00:00:00 1.125 C 4.67 g/m*3 1.13 C 1.74167 km/h
1049 11-02-2017 01:00:00 0.68333 C 4.7 g/m*3 0.68 C 0.13333 km/h
1050 11-02-2017 02:00:00 0.44167 C 4.67 g/m*3 0.44 C 0.53333 km/h
Sensor: Nr:Datum:Temp:Abs-Feuchte:Windchill:Wind:
Aussen-T/F 1051 11-02-2017 03:00:00 0.3 C 4.65 g/m*3 0.3 C 0 km/h
1052 11-02-2017 04:00:00 0.3 C 4.69 g/m*3 0.3 C 0 km/h
1053 11-02-2017 05:00:00 0.21667 C 4.66 g/m*3 0.22 C 0 km/h
1054 11-02-2017 06:00:00 0.14167 C 4.65 g/m*3 0.14 C 0.13333 km/h
1055 11-02-2017 07:00:00 0.175 C 4.66 g/m*3 0.18 C 0 km/h
1056 11-02-2017 08:00:00 0.31667 C 4.71 g/m*3 0.32 C 0 km/h
1057 11-02-2017 09:00:00 0.81667 C 4.92 g/m*3 0.82 C 0 km/h
1058 11-02-2017 10:00:00 1.34167 C 5.08 g/m*3 1.34 C 0.13333 km/h
1059 11-02-2017 11:00:00 1.84167 C 5.19 g/m*3 1.84 C 3.2 km/h
1060 11-02-2017 12:00:00 2.9 C 5.39 g/m*3 2.9 C 4.28333 km/h
1061 11-02-2017 13:00:00 3.575 C 5.53 g/m*3 3.58 C 4.41667 km/h
1062 11-02-2017 14:00:00 3.74167 C 5.51 g/m*3 3.74 C 4.4 km/h
1063 11-02-2017 15:00:00 4.13333 C 5.72 g/m*3 4.13 C 2.94167 km/h
1064 11-02-2017 16:00:00 3.575 C 5.7 g/m*3 3.58 C 3.6 km/h
1065 11-02-2017 17:00:00 3.10833 C 5.63 g/m*3 3.11 C 1.46667 km/h
1066 11-02-2017 18:00:00 2.625 C 5.49 g/m*3 2.63 C 0.8 km/h
1067 11-02-2017 19:00:00 2.54167 C 5.51 g/m*3 2.54 C 0.4 km/h
1068 11-02-2017 20:00:00 2.53333 C 5.53 g/m*3 2.53 C 2.4 km/h
1069 11-02-2017 21:00:00 2.28333 C 5.44 g/m*3 2.28 C 1.46667 km/h
1070 11-02-2017 22:00:00 2.35833 C 5.47 g/m*3 2.36 C 2 km/h
1071 11-02-2017 23:00:00 2.1 C 5.38 g/m*3 2.1 C 4 km/h
1072 12-02-2017 00:00:00 2.09167 C 5.39 g/m*3 2.09 C 2.13333 km/h
1073 12-02-2017 01:00:00 2.275 C 5.48 g/m*3 2.28 C 2.4 km/h
1074 12-02-2017 02:00:00 2.5 C 5.58 g/m*3 2.5 C 1.06667 km/h
1075 12-02-2017 03:00:00 2.04167 C 5.4 g/m*3 2.04 C 0.93333 km/h
Sensor: Nr:Datum:Temp:Abs-Feuchte:Windchill:Wind:
Aussen-T/F 1076 12-02-2017 04:00:00 1.48333 C 5.19 g/m*3 1.48 C 2.13333 km/h
1077 12-02-2017 05:00:00 1.575 C 5.24 g/m*3 1.58 C 1.33333 km/h
1078 12-02-2017 06:00:00 1.58333 C 5.24 g/m*3 1.58 C 2.13333 km/h
1079 12-02-2017 07:00:00 1.325 C 5.15 g/m*3 1.33 C 1.86667 km/h
1080 12-02-2017 08:00:00 1.50833 C 5.21 g/m*3 1.51 C 1.46667 km/h
1081 12-02-2017 09:00:00 2.36667 C 5.53 g/m*3 2.37 C 2.93333 km/h
1082 12-02-2017 10:00:00 3 C 5.63 g/m*3 3 C 4.68333 km/h
1083 12-02-2017 11:00:00 4.21667 C 5.76 g/m*3 4.22 C 4.66667 km/h
1084 12-02-2017 12:00:00 5.075 C 5.87 g/m*3 3.25 C 7.90833 km/h
1085 12-02-2017 13:00:00 5.9 C 6.01 g/m*3 3.98 C 8.875 km/h
1086 12-02-2017 14:00:00 6.38333 C 5.94 g/m*3 4.81 C 7.79167 km/h
1087 12-02-2017 15:00:00 6.21667 C 5.91 g/m*3 6.22 C 4.7 km/h
1088 12-02-2017 16:00:00 5.625 C 5.81 g/m*3 5.63 C 4.55 km/h
1089 12-02-2017 17:00:00 3.58333 C 5.51 g/m*3 3.58 C 3.46667 km/h
1090 12-02-2017 18:00:00 2.36667 C 5.23 g/m*3 2.37 C 4.13333 km/h
1091 12-02-2017 19:00:00 1.88333 C 5.09 g/m*3 1.88 C 3.33333 km/h
1092 12-02-2017 20:00:00 1.39167 C 4.94 g/m*3 1.39 C 2.80833 km/h
1093 12-02-2017 21:00:00 0.75833 C 4.75 g/m*3 0.76 C 1.73333 km/h
1094 12-02-2017 22:00:00 0.35833 C 4.65 g/m*3 0.36 C 1.33333 km/h
1095 12-02-2017 23:00:00 0.28333 C 4.64 g/m*3 0.28 C 2.4 km/h
1096 13-02-2017 00:00:00 0.61667 C 4.78 g/m*3 0.62 C 0.4 km/h
1097 13-02-2017 01:00:00 1.28333 C 4.94 g/m*3 1.28 C 2.53333 km/h
1098 13-02-2017 02:00:00 1.58333 C 4.92 g/m*3 1.58 C 2.66667 km/h
1099 13-02-2017 03:00:00 1.625 C 4.88 g/m*3 1.63 C 1.73333 km/h
1100 13-02-2017 04:00:00 1.63333 C 4.88 g/m*3 1.63 C 2.00833 km/h
Sensor: Nr:Datum:Temp:Abs-Feuchte:Windchill:Wind:
Aussen-T/F 1101 13-02-2017 05:00:00 1.61667 C 4.89 g/m*3 1.62 C 2.4 km/h
1102 13-02-2017 06:00:00 1.7 C 4.86 g/m*3 1.7 C 4.69167 km/h
1103 13-02-2017 07:00:00 1.7 C 4.8 g/m*3 1.7 C 4.95 km/h
1104 13-02-2017 08:00:00 1.8 C 4.84 g/m*3 1.8 C 2.93333 km/h
1105 13-02-2017 09:00:00 2.24167 C 4.87 g/m*3 -0.16 C 8.2 km/h
1106 13-02-2017 10:00:00 2.94167 C 4.93 g/m*3 0.27 C 9.7 km/h
1107 13-02-2017 11:00:00 3.65 C 5.01 g/m*3 1.42 C 8.45833 km/h
1108 13-02-2017 12:00:00 4.75833 C 5.2 g/m*3 3.14 C 6.975 km/h
1109 13-02-2017 13:00:00 6.45 C 5.4 g/m*3 4.66 C 8.73333 km/h
1110 13-02-2017 14:00:00 7.74167 C 5.56 g/m*3 6.51 C 7.36667 km/h
1111 13-02-2017 15:00:00 8.75833 C 5.57 g/m*3 7.16 C 9.925 km/h
1112 13-02-2017 16:00:00 8.2 C 5.84 g/m*3 8.2 C 4.825 km/h
1113 13-02-2017 17:00:00 6.225 C 5.67 g/m*3 5.4 C 5.20833 km/h
1114 13-02-2017 18:00:00 4.48333 C 5.35 g/m*3 3.32 C 5.475 km/h
1115 13-02-2017 19:00:00 3.96667 C 5.27 g/m*3 3.97 C 4.26667 km/h
1116 13-02-2017 20:00:00 3.61667 C 5.12 g/m*3 1.73 C 7.25 km/h
1117 13-02-2017 21:00:00 3.61667 C 4.97 g/m*3 1.49 C 8.075 km/h
1118 13-02-2017 22:00:00 2.19167 C 4.74 g/m*3 2.19 C 4.95833 km/h
1119 13-02-2017 23:00:00 1.25833 C 4.53 g/m*3 1.26 C 4.00833 km/h
1120 14-02-2017 00:00:00 0.44167 C 4.4 g/m*3 0.44 C 4.00833 km/h
1121 14-02-2017 01:00:00 0.6 C 4.33 g/m*3 0.6 C 2.93333 km/h
1122 14-02-2017 02:00:00 -0.075 C 4.23 g/m*3 -0.08 C 2.93333 km/h
1123 14-02-2017 03:00:00 -0.60833 C 4.14 g/m*3 -0.61 C 3.46667 km/h
1124 14-02-2017 04:00:00 -0.75 C 4.12 g/m*3 -0.75 C 4.26667 km/h
1125 14-02-2017 05:00:00 -1.11667 C 4.02 g/m*3 -1.12 C 2.26667 km/h
Sensor: Nr:Datum:Temp:Abs-Feuchte:Windchill:Wind:
Aussen-T/F 1126 14-02-2017 06:00:00 -1.63333 C 3.93 g/m*3 -1.63 C 0.66667 km/h
1127 14-02-2017 07:00:00 -2.025 C 3.86 g/m*3 -2.03 C 0.53333 km/h
1128 14-02-2017 08:00:00 -2.225 C 3.86 g/m*3 -2.23 C 0.26667 km/h
1129 14-02-2017 09:00:00 -1.55 C 4.09 g/m*3 -1.55 C 0.53333 km/h
1130 14-02-2017 10:00:00 -0.23333 C 4.42 g/m*3 -0.23 C 2.66667 km/h
1131 14-02-2017 11:00:00 2.31667 C 4.94 g/m*3 2.32 C 4.66667 km/h
1132 14-02-2017 12:00:00 3.78333 C 5.09 g/m*3 3.78 C 4.13333 km/h
1133 14-02-2017 13:00:00 6.15 C 4.96 g/m*3 5.36 C 5.08333 km/h
1134 14-02-2017 14:00:00 7.50833 C 5.13 g/m*3 7.51 C 4.80833 km/h
1135 14-02-2017 15:00:00 7.09167 C 5.51 g/m*3 7.09 C 4.26667 km/h
1136 14-02-2017 16:00:00 6.64167 C 5.63 g/m*3 6.64 C 4.26667 km/h
1137 14-02-2017 17:00:00 5.43333 C 5.55 g/m*3 4.01 C 6.68333 km/h
1138 14-02-2017 18:00:00 4.16667 C 5.29 g/m*3 2.5 C 6.825 km/h
1139 14-02-2017 19:00:00 3.24167 C 5.11 g/m*3 2.06 C 5.06667 km/h
1140 14-02-2017 20:00:00 2.01667 C 4.81 g/m*3 2.02 C 0.8 km/h
1141 14-02-2017 21:00:00 0.55833 C 4.54 g/m*3 0.56 C 0.13333 km/h
1142 14-02-2017 22:00:00 0.24167 C 4.5 g/m*3 0.24 C 0 km/h
1143 14-02-2017 23:00:00 -0.125 C 4.38 g/m*3 -0.13 C 0.13333 km/h
1144 15-02-2017 00:00:00 -0.83333 C 4.2 g/m*3 -0.83 C 0 km/h
1145 15-02-2017 01:00:00 -1.275 C 4.12 g/m*3 -1.27 C 0 km/h
1146 15-02-2017 02:00:00 -1.625 C 4.04 g/m*3 -1.63 C 0.13333 km/h
1147 15-02-2017 03:00:00 -1.7 C 4.05 g/m*3 -1.7 C 0.13333 km/h
1148 15-02-2017 04:00:00 -1.91667 C 3.99 g/m*3 -1.92 C 0.13333 km/h
1149 15-02-2017 05:00:00 -2.3 C 3.88 g/m*3 -2.3 C 0 km/h
1150 15-02-2017 06:00:00 -2.35 C 3.91 g/m*3 -2.35 C 0 km/h
Sensor: Nr:Datum:Temp:Abs-Feuchte:Windchill:Wind:
Aussen-T/F 1151 15-02-2017 07:00:00 -2.70833 C 3.81 g/m*3 -2.71 C 0 km/h
1152 15-02-2017 08:00:00 -2.55833 C 3.85 g/m*3 -2.56 C 0 km/h
1153 15-02-2017 09:00:00 -1.90833 C 4.07 g/m*3 -1.91 C 0 km/h
1154 15-02-2017 10:00:00 -0.725 C 4.42 g/m*3 -0.73 C 0 km/h
1155 15-02-2017 11:00:00 1.725 C 5.24 g/m*3 1.73 C 1.06667 km/h
1156 15-02-2017 12:00:00 3.60833 C 5.77 g/m*3 3.61 C 2.66667 km/h
1157 15-02-2017 13:00:00 6.31667 C 6.32 g/m*3 6.32 C 4.13333 km/h
1158 15-02-2017 14:00:00 8.33333 C 6.57 g/m*3 8.33 C 4.66667 km/h
1159 15-02-2017 15:00:00 8.65833 C 6.72 g/m*3 8.66 C 4.8 km/h
1160 15-02-2017 16:00:00 9.09167 C 6.95 g/m*3 8.43 C 6 km/h
1161 15-02-2017 17:00:00 8.725 C 6.95 g/m*3 8.08 C 5.73333 km/h
1162 15-02-2017 18:00:00 7.41667 C 6.61 g/m*3 7.42 C 2.4 km/h
1163 15-02-2017 19:00:00 5.53333 C 6.1 g/m*3 5.53 C 0.26667 km/h
1164 15-02-2017 20:00:00 4.575 C 5.97 g/m*3 4.58 C 0.93333 km/h
1165 15-02-2017 21:00:00 4.1 C 5.84 g/m*3 4.1 C 0.13333 km/h
1166 15-02-2017 22:00:00 3.29167 C 5.59 g/m*3 3.29 C 0 km/h
1167 15-02-2017 23:00:00 3.15833 C 5.63 g/m*3 3.16 C 0 km/h
1168 16-02-2017 00:00:00 2.56667 C 5.43 g/m*3 2.57 C 0.13333 km/h
1169 16-02-2017 01:00:00 1.86667 C 5.19 g/m*3 1.87 C 0.26667 km/h
1170 16-02-2017 02:00:00 1.15 C 4.96 g/m*3 1.15 C 0.13333 km/h
1171 16-02-2017 03:00:00 0.9 C 4.9 g/m*3 0.9 C 0.13333 km/h
1172 16-02-2017 04:00:00 0.29167 C 4.72 g/m*3 0.29 C 0 km/h
1173 16-02-2017 05:00:00 0.25 C 4.73 g/m*3 0.25 C 0 km/h
1174 16-02-2017 06:00:00 -0.14167 C 4.61 g/m*3 -0.14 C 0.13333 km/h
1175 16-02-2017 07:00:00 -0.15833 C 4.6 g/m*3 -0.16 C 0.4 km/h
Sensor: Nr:Datum:Temp:Abs-Feuchte:Windchill:Wind:
Aussen-T/F 1176 16-02-2017 08:00:00 0.19167 C 4.73 g/m*3 0.19 C 1.60833 km/h
1177 16-02-2017 09:00:00 2.15 C 5.45 g/m*3 2.15 C 3.35 km/h
1178 16-02-2017 10:00:00 3.79167 C 6.07 g/m*3 3.79 C 2.13333 km/h
1179 16-02-2017 11:00:00 5.04167 C 6.47 g/m*3 5.04 C 2.40833 km/h
1180 16-02-2017 12:00:00 6 C 6.62 g/m*3 6 C 1.6 km/h
1181 16-02-2017 13:00:00 7.08333 C 6.88 g/m*3 7.08 C 2.4 km/h
1182 16-02-2017 14:00:00 7.58333 C 7.26 g/m*3 7.58 C 0 km/h
1183 16-02-2017 15:00:00 6.95833 C 7.25 g/m*3 6.96 C 0.53333 km/h
1184 16-02-2017 16:00:00 6.71667 C 7.26 g/m*3 6.72 C 0.13333 km/h
1185 16-02-2017 17:00:00 7.15 C 7.51 g/m*3 7.15 C 0.93333 km/h
1186 16-02-2017 18:00:00 7.275 C 7.58 g/m*3 7.28 C 2 km/h
1187 16-02-2017 19:00:00 6.26667 C 7.09 g/m*3 6.27 C 1.2 km/h
1188 16-02-2017 20:00:00 5.60833 C 6.81 g/m*3 5.61 C 1.2 km/h
1189 16-02-2017 21:00:00 6.20833 C 7.14 g/m*3 6.21 C 2 km/h
1190 16-02-2017 22:00:00 6.28333 C 7.17 g/m*3 6.28 C 1.33333 km/h
1191 16-02-2017 23:00:00 6.55 C 7.3 g/m*3 6.55 C 4.4 km/h
1192 17-02-2017 00:00:00 6.31667 C 7.19 g/m*3 6.32 C 1.6 km/h
1193 17-02-2017 01:00:00 6.175 C 7.12 g/m*3 6.18 C 0.53333 km/h
1194 17-02-2017 02:00:00 5.86667 C 6.98 g/m*3 5.87 C 0.93333 km/h
1195 17-02-2017 03:00:00 5.51667 C 6.82 g/m*3 5.52 C 1.46667 km/h
1196 17-02-2017 04:00:00 4.5 C 6.38 g/m*3 4.5 C 0.26667 km/h
1197 17-02-2017 05:00:00 4.13333 C 6.22 g/m*3 4.13 C 0.66667 km/h
1198 17-02-2017 06:00:00 3.4 C 5.92 g/m*3 3.4 C 1.06667 km/h
1199 17-02-2017 07:00:00 3.03333 C 5.78 g/m*3 3.03 C 0.53333 km/h
1200 17-02-2017 08:00:00 3.44167 C 5.94 g/m*3 3.44 C 3.06667 km/h
Sensor: Nr:Datum:Temp:Abs-Feuchte:Windchill:Wind:
Aussen-T/F 1201 17-02-2017 09:00:00 5.29167 C 6.78 g/m*3 3.6 C 7.525 km/h
1202 17-02-2017 10:00:00 6.04167 C 7.06 g/m*3 4.31 C 8.18333 km/h
1203 17-02-2017 11:00:00 7.30833 C 7.34 g/m*3 5.2 C 11.15833 km/h
1204 17-02-2017 12:00:00 7.70833 C 7.43 g/m*3 6.75 C 6.30833 km/h
1205 17-02-2017 13:00:00 7.69167 C 7.62 g/m*3 6.73 C 6.3 km/h
1206 17-02-2017 14:00:00 7.78333 C 7.66 g/m*3 7.08 C 5.48333 km/h
1207 17-02-2017 15:00:00 7.69167 C 7.64 g/m*3 7.69 C 1.73333 km/h
1208 17-02-2017 16:00:00 7.39167 C 7.6 g/m*3 7.39 C 2.4 km/h
1209 17-02-2017 17:00:00 7.08333 C 7.4 g/m*3 7.08 C 3.075 km/h
1210 17-02-2017 18:00:00 6.65 C 7.23 g/m*3 6.65 C 2.53333 km/h
1211 17-02-2017 19:00:00 6.55833 C 7.19 g/m*3 6.56 C 1.46667 km/h
1212 17-02-2017 20:00:00 6.39167 C 7.07 g/m*3 6.39 C 2 km/h
1213 17-02-2017 21:00:00 6.2 C 7.04 g/m*3 6.2 C 1.33333 km/h
1214 17-02-2017 22:00:00 6.18333 C 7.05 g/m*3 6.18 C 0.26667 km/h
1215 17-02-2017 23:00:00 6.175 C 7.05 g/m*3 6.18 C 1.33333 km/h
1216 18-02-2017 00:00:00 6.125 C 7.03 g/m*3 6.13 C 0.53333 km/h
1217 18-02-2017 01:00:00 5.90833 C 6.93 g/m*3 5.91 C 1.33333 km/h
1218 18-02-2017 02:00:00 5.50833 C 6.75 g/m*3 5.51 C 0.13333 km/h
1219 18-02-2017 03:00:00 5.475 C 6.73 g/m*3 5.48 C 0 km/h
1220 18-02-2017 04:00:00 5.325 C 6.66 g/m*3 5.33 C 0.26667 km/h
1221 18-02-2017 05:00:00 5.2 C 6.61 g/m*3 5.2 C 0.53333 km/h
1222 18-02-2017 06:00:00 5.2 C 6.67 g/m*3 5.2 C 0.13333 km/h
1223 18-02-2017 07:00:00 5.00833 C 6.57 g/m*3 5.01 C 0 km/h
1224 18-02-2017 08:00:00 5.09167 C 6.63 g/m*3 5.09 C 0 km/h
1225 18-02-2017 09:00:00 5.53333 C 6.83 g/m*3 5.53 C 1.46667 km/h
Sensor: Nr:Datum:Temp:Abs-Feuchte:Windchill:Wind:
Aussen-T/F 1226 18-02-2017 10:00:00 6.09167 C 7.08 g/m*3 6.09 C 2 km/h
1227 18-02-2017 11:00:00 6.85833 C 7.34 g/m*3 6.86 C 1.6 km/h
1228 18-02-2017 12:00:00 7.54167 C 7.41 g/m*3 7.54 C 0.4 km/h
1229 18-02-2017 13:00:00 8.225 C 6.77 g/m*3 8.23 C 1.6 km/h
1230 18-02-2017 14:00:00 8.7 C 6.25 g/m*3 8.7 C 4.95 km/h
1231 18-02-2017 15:00:00 8.675 C 6.07 g/m*3 8.68 C 2.13333 km/h
1232 18-02-2017 16:00:00 8.55 C 6.04 g/m*3 8.55 C 1.6 km/h
1233 18-02-2017 17:00:00 7.80833 C 6.6 g/m*3 7.81 C 0.8 km/h
1234 18-02-2017 18:00:00 6.35833 C 6.35 g/m*3 6.36 C 3.86667 km/h
1235 18-02-2017 19:00:00 5.60833 C 6.21 g/m*3 5.61 C 4.93333 km/h
1236 18-02-2017 20:00:00 5.275 C 6.15 g/m*3 5.28 C 4 km/h
1237 18-02-2017 21:00:00 4.18333 C 5.77 g/m*3 3.08 C 5.2 km/h
1238 18-02-2017 22:00:00 2.99167 C 5.41 g/m*3 2.99 C 3.46667 km/h
1239 18-02-2017 23:00:00 1.34167 C 4.93 g/m*3 1.34 C 0 km/h
1240 19-02-2017 00:00:00 0.5 C 4.71 g/m*3 0.5 C 0 km/h
1241 19-02-2017 01:00:00 -0.2 C 4.53 g/m*3 -0.2 C 0 km/h
1242 19-02-2017 02:00:00 -0.64167 C 4.4 g/m*3 -0.64 C 0 km/h
1243 19-02-2017 03:00:00 -0.88333 C 4.34 g/m*3 -0.88 C 0.26667 km/h
1244 19-02-2017 04:00:00 -1.15833 C 4.28 g/m*3 -1.16 C 0 km/h
1245 19-02-2017 05:00:00 -1.33333 C 4.24 g/m*3 -1.33 C 0.53333 km/h
1246 19-02-2017 06:00:00 -1.65833 C 4.14 g/m*3 -1.66 C 0 km/h
1247 19-02-2017 07:00:00 -1.49167 C 4.19 g/m*3 -1.49 C 0.13333 km/h
1248 19-02-2017 08:00:00 -0.80833 C 4.42 g/m*3 -0.81 C 0.93333 km/h
1249 19-02-2017 09:00:00 0.06667 C 4.71 g/m*3 0.07 C 0.13333 km/h
1250 19-02-2017 10:00:00 1.30833 C 5.14 g/m*3 1.31 C 3.2 km/h
Sensor: Nr:Datum:Temp:Abs-Feuchte:Windchill:Wind:
Aussen-T/F 1251 19-02-2017 11:00:00 3.08333 C 5.69 g/m*3 1.6 C 5.775 km/h
1252 19-02-2017 12:00:00 6 C 6.16 g/m*3 3.84 C 10.06667 km/h
1253 19-02-2017 13:00:00 7.95833 C 6.53 g/m*3 6.5 C 8.475 km/h
1254 19-02-2017 14:00:00 8.21667 C 6.58 g/m*3 6.72 C 8.88333 km/h
1255 19-02-2017 15:00:00 7.85833 C 6.79 g/m*3 6.96 C 6.15833 km/h
1256 19-02-2017 16:00:00 8.21667 C 6.8 g/m*3 7.7 C 5.08333 km/h
1257 19-02-2017 17:00:00 7.93333 C 6.85 g/m*3 7.29 C 5.35 km/h
1258 19-02-2017 18:00:00 7.375 C 6.98 g/m*3 7.38 C 3.73333 km/h
1259 19-02-2017 19:00:00 7.04167 C 7.07 g/m*3 7.04 C 3.06667 km/h
1260 19-02-2017 20:00:00 6.63333 C 7.12 g/m*3 6.63 C 3.20833 km/h
1261 19-02-2017 21:00:00 6.475 C 7.06 g/m*3 6.48 C 2.13333 km/h
1262 19-02-2017 22:00:00 6.35833 C 7.06 g/m*3 6.36 C 1.73333 km/h
1263 19-02-2017 23:00:00 6.45 C 7.1 g/m*3 6.45 C 3.2 km/h
1264 20-02-2017 00:00:00 6.525 C 7.14 g/m*3 6.53 C 4 km/h
1265 20-02-2017 01:00:00 6.36667 C 7.03 g/m*3 6.37 C 2 km/h
1266 20-02-2017 02:00:00 6.45833 C 7.04 g/m*3 6.46 C 2.93333 km/h
1267 20-02-2017 03:00:00 6.825 C 7.14 g/m*3 6.83 C 4.40833 km/h
1268 20-02-2017 04:00:00 6.825 C 7.12 g/m*3 6.83 C 2.94167 km/h
1269 20-02-2017 05:00:00 7.175 C 7.1 g/m*3 5.95 C 6.975 km/h
1270 20-02-2017 06:00:00 7.08333 C 7.09 g/m*3 6.11 C 6.025 km/h
1271 20-02-2017 07:00:00 7.24167 C 7.15 g/m*3 5.38 C 9.8 km/h
1272 20-02-2017 08:00:00 7.7 C 7.28 g/m*3 5.74 C 10.75 km/h
1273 20-02-2017 09:00:00 8.375 C 7.52 g/m*3 5.7 C 16.63333 km/h
1274 20-02-2017 10:00:00 9.025 C 7.73 g/m*3 6.45 C 17.16667 km/h
1275 20-02-2017 11:00:00 9.51667 C 7.85 g/m*3 6.67 C 21.03333 km/h
Sensor: Nr:Datum:Temp:Abs-Feuchte:Windchill:Wind:
Aussen-T/F 1276 20-02-2017 12:00:00 9.60833 C 7.91 g/m*3 6.87 C 20.11667 km/h
1277 20-02-2017 13:00:00 9.53333 C 7.96 g/m*3 7.05 C 17.43333 km/h
1278 20-02-2017 14:00:00 9.18333 C 8.05 g/m*3 6.95 C 14.63333 km/h
1279 20-02-2017 15:00:00 8.93333 C 8.13 g/m*3 7.07 C 11.69167 km/h
1280 20-02-2017 16:00:00 8.84167 C 8.15 g/m*3 6.76 C 13.03333 km/h
1281 20-02-2017 17:00:00 9 C 8.18 g/m*3 6.69 C 14.9 km/h
1282 20-02-2017 18:00:00 9.3 C 8.27 g/m*3 6.62 C 18.76667 km/h
1283 20-02-2017 19:00:00 9.46667 C 8.36 g/m*3 7.29 C 14.76667 km/h
1284 20-02-2017 20:00:00 9.65833 C 8.45 g/m*3 7.36 C 16.1 km/h
1285 20-02-2017 21:00:00 9.875 C 8.48 g/m*3 7.89 C 13.96667 km/h
1286 20-02-2017 22:00:00 10.10833 C 8.61 g/m*3 8.21 C 13.7 km/h
1287 20-02-2017 23:00:00 10.2 C 8.72 g/m*3 8.32 C 13.7 km/h
1288 21-02-2017 00:00:00 10.175 C 8.8 g/m*3 8.05 C 15.7 km/h
1289 21-02-2017 01:00:00 10.325 C 8.9 g/m*3 7.99 C 17.96667 km/h
1290 21-02-2017 02:00:00 10.53333 C 8.95 g/m*3 8.6 C 14.76667 km/h
1291 21-02-2017 03:00:00 10.675 C 9.06 g/m*3 9.12 C 12.1 km/h
1292 21-02-2017 04:00:00 10.63333 C 9.1 g/m*3 9.91 C 7.25 km/h
1293 21-02-2017 05:00:00 10.575 C 9.1 g/m*3 10.16 C 5.9 km/h
1294 21-02-2017 06:00:00 10.325 C 9.1 g/m*3 10.33 C 2.93333 km/h
1295 21-02-2017 07:00:00 10.04167 C 8.94 g/m*3 10.04 C 3.075 km/h
1296 21-02-2017 08:00:00 9.8 C 8.77 g/m*3 9.8 C 2.94167 km/h
1297 21-02-2017 09:00:00 9.95 C 8.9 g/m*3 9.95 C 4.41667 km/h
1298 21-02-2017 10:00:00 10.66667 C 9.26 g/m*3 10.34 C 5.625 km/h
1299 21-02-2017 11:00:00 11.36667 C 9.13 g/m*3 11.37 C 9.66667 km/h
1300 21-02-2017 12:00:00 11.05833 C 8.76 g/m*3 11.06 C 11.15 km/h
Sensor: Nr:Datum:Temp:Abs-Feuchte:Windchill:Wind:
Aussen-T/F 1301 21-02-2017 13:00:00 10.35 C 8.77 g/m*3 10.35 C 4.55 km/h
1302 21-02-2017 14:00:00 10.95 C 9.19 g/m*3 10.95 C 2.4 km/h
1303 21-02-2017 15:00:00 11.23333 C 8.88 g/m*3 11.23 C 9.15 km/h
1304 21-02-2017 16:00:00 10.71667 C 8.7 g/m*3 10.32 C 5.90833 km/h
1305 21-02-2017 17:00:00 10.25 C 8.68 g/m*3 10.25 C 0 km/h
1306 21-02-2017 18:00:00 9.59167 C 8.47 g/m*3 9.59 C 0 km/h
1307 21-02-2017 19:00:00 9.175 C 8.37 g/m*3 9.18 C 0 km/h
1308 21-02-2017 20:00:00 9.48333 C 8.64 g/m*3 9.05 C 5.38333 km/h
1309 21-02-2017 21:00:00 10.36667 C 8.94 g/m*3 9.01 C 10.34167 km/h
1310 21-02-2017 22:00:00 10.675 C 8.95 g/m*3 9.08 C 12.35833 km/h
1311 21-02-2017 23:00:00 11.03333 C 9.03 g/m*3 11.03 C 17.3 km/h
1312 22-02-2017 00:00:00 11.23333 C 9.14 g/m*3 11.23 C 14.5 km/h
1313 22-02-2017 01:00:00 11.39167 C 9.17 g/m*3 11.39 C 16.76667 km/h
1314 22-02-2017 02:00:00 11.35833 C 9.21 g/m*3 11.36 C 14.23333 km/h
1315 22-02-2017 03:00:00 11.34167 C 9.2 g/m*3 11.34 C 13.03333 km/h
1316 22-02-2017 04:00:00 11.53333 C 9.14 g/m*3 11.53 C 13.3 km/h
1317 22-02-2017 05:00:00 11.43333 C 8.96 g/m*3 11.43 C 15.3 km/h
1318 22-02-2017 06:00:00 11.15 C 8.72 g/m*3 11.15 C 12.21667 km/h
1319 22-02-2017 07:00:00 10.725 C 8.44 g/m*3 8.95 C 13.825 km/h
1320 22-02-2017 08:00:00 10.59167 C 8.36 g/m*3 7.75 C 24.4 km/h
1321 22-02-2017 09:00:00 10.75 C 8.44 g/m*3 8.17 C 21.71667 km/h
1322 22-02-2017 10:00:00 11.18333 C 8.62 g/m*3 11.18 C 18.90833 km/h
1323 22-02-2017 11:00:00 11.70833 C 8.76 g/m*3 11.71 C 18.1 km/h
1324 22-02-2017 12:00:00 11.85833 C 8.72 g/m*3 11.86 C 18.23333 km/h
1325 22-02-2017 13:00:00 12.18333 C 8.8 g/m*3 12.18 C 24.40833 km/h
Sensor: Nr:Datum:Temp:Abs-Feuchte:Windchill:Wind:
Aussen-T/F 1326 22-02-2017 14:00:00 11.825 C 8.68 g/m*3 11.83 C 22.38333 km/h
1327 22-02-2017 15:00:00 11.6 C 8.7 g/m*3 11.6 C 24.00833 km/h
1328 22-02-2017 16:00:00 11.375 C 8.69 g/m*3 11.38 C 21.85 km/h
1329 22-02-2017 17:00:00 10.91667 C 8.61 g/m*3 8.41 C 21.44167 km/h
1330 22-02-2017 18:00:00 10.54167 C 8.67 g/m*3 8.26 C 17.975 km/h
1331 22-02-2017 19:00:00 10.3 C 8.68 g/m*3 8.01 C 17.43333 km/h
1332 22-02-2017 20:00:00 10.325 C 8.66 g/m*3 7.93 C 18.5 km/h
1333 22-02-2017 21:00:00 10.40833 C 8.61 g/m*3 8.02 C 18.63333 km/h
1334 22-02-2017 22:00:00 10.425 C 8.59 g/m*3 8.14 C 17.7 km/h
1335 22-02-2017 23:00:00 10.3 C 8.52 g/m*3 7.94 C 18.1 km/h
1336 23-02-2017 00:00:00 10.1 C 8.45 g/m*3 7.53 C 19.7 km/h
1337 23-02-2017 01:00:00 10.05 C 8.48 g/m*3 7.53 C 19.04167 km/h
1338 23-02-2017 02:00:00 9.95 C 8.39 g/m*3 7.63 C 16.9 km/h
1339 23-02-2017 03:00:00 9.91667 C 8.32 g/m*3 7.55 C 17.30833 km/h
1340 23-02-2017 04:00:00 10 C 8.32 g/m*3 7.68 C 17.03333 km/h
1341 23-02-2017 05:00:00 9.83333 C 8.21 g/m*3 7.29 C 18.775 km/h
1342 23-02-2017 06:00:00 9.66667 C 8.1 g/m*3 7.15 C 18.10833 km/h
1343 23-02-2017 07:00:00 9.5 C 7.87 g/m*3 6.8 C 19.43333 km/h
1344 23-02-2017 08:00:00 9.41667 C 7.7 g/m*3 6.7 C 19.43333 km/h
1345 23-02-2017 09:00:00 9.35833 C 7.51 g/m*3 6.39 C 21.85833 km/h
1346 23-02-2017 10:00:00 9.58333 C 7.37 g/m*3 6.62 C 22.525 km/h
1347 23-02-2017 11:00:00 9.74167 C 7.35 g/m*3 7.05 C 19.96667 km/h
1348 23-02-2017 12:00:00 9.91667 C 7.27 g/m*3 7.15 C 21.325 km/h
1349 23-02-2017 13:00:00 9.74167 C 7.14 g/m*3 7.23 C 18.23333 km/h
1350 23-02-2017 14:00:00 9.675 C 7.29 g/m*3 7.13 C 18.36667 km/h
Sensor: Nr:Datum:Temp:Abs-Feuchte:Windchill:Wind:
Aussen-T/F 1351 23-02-2017 15:00:00 9.70833 C 7.47 g/m*3 6.87 C 21.43333 km/h
1352 23-02-2017 16:00:00 9.85833 C 7.67 g/m*3 6.65 C 26.41667 km/h
1353 23-02-2017 17:00:00 8.89167 C 7.76 g/m*3 6.13 C 18.50833 km/h
1354 23-02-2017 18:00:00 8.4 C 7.02 g/m*3 5.8 C 16.1 km/h
1355 23-02-2017 19:00:00 8.90833 C 6.57 g/m*3 5.78 C 22.25 km/h
1356 23-02-2017 20:00:00 8.65 C 6.35 g/m*3 5.41 C 22.675 km/h
1357 23-02-2017 21:00:00 7.85833 C 6.15 g/m*3 4.68 C 19.98333 km/h
1358 23-02-2017 22:00:00 8.26667 C 6.07 g/m*3 5.06 C 21.30833 km/h
1359 23-02-2017 23:00:00 8.05833 C 6.06 g/m*3 4.96 C 19.70833 km/h
1360 24-02-2017 00:00:00 5.64167 C 6.08 g/m*3 1.48 C 23.59167 km/h
1361 24-02-2017 01:00:00 6.05833 C 6.03 g/m*3 2.27 C 21.19167 km/h
1362 24-02-2017 02:00:00 6.15 C 5.91 g/m*3 2.52 C 19.975 km/h
1363 24-02-2017 03:00:00 5.50833 C 5.89 g/m*3 2.12 C 16.775 km/h
1364 24-02-2017 04:00:00 5.125 C 5.69 g/m*3 2.09 C 13.83333 km/h
1365 24-02-2017 05:00:00 4.26667 C 5.68 g/m*3 1.41 C 11.80833 km/h
1366 24-02-2017 06:00:00 3.75 C 5.7 g/m*3 1.89 C 7.23333 km/h
1367 24-02-2017 07:00:00 3.04167 C 5.53 g/m*3 1.66 C 5.49167 km/h
1368 24-02-2017 08:00:00 3.2 C 5.55 g/m*3 3.2 C 4.53333 km/h
1369 24-02-2017 09:00:00 4.31667 C 5.79 g/m*3 3.12 C 5.48333 km/h
1370 24-02-2017 10:00:00 5.64167 C 5.82 g/m*3 3.41 C 10.06667 km/h
1371 24-02-2017 11:00:00 6.15833 C 5.44 g/m*3 4.11 C 9.68333 km/h
1372 24-02-2017 12:00:00 6.63333 C 5.28 g/m*3 4.65 C 9.825 km/h
1373 24-02-2017 13:00:00 7.225 C 5.53 g/m*3 4.98 C 11.825 km/h
1374 24-02-2017 14:00:00 7.39167 C 5.23 g/m*3 5.14 C 12.09167 km/h
1375 24-02-2017 15:00:00 7.24167 C 4.89 g/m*3 5.22 C 10.625 km/h
Sensor: Nr:Datum:Temp:Abs-Feuchte:Windchill:Wind:
Aussen-T/F 1376 24-02-2017 16:00:00 7.98333 C 5.07 g/m*3 6.39 C 9.15833 km/h
1377 24-02-2017 17:00:00 7.5 C 5.26 g/m*3 7.5 C 4.55 km/h
1378 24-02-2017 18:00:00 5.81667 C 5.47 g/m*3 5.82 C 1.2 km/h
1379 24-02-2017 19:00:00 5.26667 C 5.32 g/m*3 5.27 C 3.475 km/h
1380 24-02-2017 20:00:00 4.34167 C 5.3 g/m*3 4.34 C 2.26667 km/h
1381 24-02-2017 21:00:00 3.19167 C 5.22 g/m*3 3.19 C 2.93333 km/h
1382 24-02-2017 22:00:00 2.325 C 5.08 g/m*3 2.33 C 1.46667 km/h
1383 24-02-2017 23:00:00 1.26667 C 4.83 g/m*3 1.27 C 1.86667 km/h
1384 25-02-2017 00:00:00 0.66667 C 4.71 g/m*3 0.67 C 0.93333 km/h
1385 25-02-2017 01:00:00 0.20833 C 4.6 g/m*3 0.21 C 1.06667 km/h
1386 25-02-2017 02:00:00 -0.14167 C 4.51 g/m*3 -0.14 C 3.46667 km/h
1387 25-02-2017 03:00:00 -0.225 C 4.5 g/m*3 -0.23 C 1.6 km/h
1388 25-02-2017 04:00:00 -0.56667 C 4.42 g/m*3 -0.57 C 0.66667 km/h
1389 25-02-2017 05:00:00 -0.79167 C 4.36 g/m*3 -0.79 C 0 km/h
1390 25-02-2017 06:00:00 -1.1 C 4.27 g/m*3 -1.1 C 1.6 km/h
1391 25-02-2017 07:00:00 -0.2 C 4.59 g/m*3 -0.2 C 1.46667 km/h
1392 25-02-2017 08:00:00 0.725 C 4.89 g/m*3 0.73 C 3.08333 km/h
1393 25-02-2017 09:00:00 1.825 C 5.27 g/m*3 -0.18 C 6.7 km/h
1394 25-02-2017 10:00:00 2.60833 C 5.47 g/m*3 0.59 C 7.11667 km/h
1395 25-02-2017 11:00:00 4.46667 C 5.88 g/m*3 3.15 C 5.89167 km/h
1396 25-02-2017 12:00:00 6.125 C 6.13 g/m*3 3.8 C 11.025 km/h
1397 25-02-2017 13:00:00 7.46667 C 6.09 g/m*3 4.88 C 14.36667 km/h
1398 25-02-2017 14:00:00 8.21667 C 6.02 g/m*3 5.49 C 16.76667 km/h
1399 25-02-2017 15:00:00 8.81667 C 6.08 g/m*3 6.35 C 15.83333 km/h
1400 25-02-2017 16:00:00 8.56667 C 5.77 g/m*3 6.67 C 11.41667 km/h
Sensor: Nr:Datum:Temp:Abs-Feuchte:Windchill:Wind:
Aussen-T/F 1401 25-02-2017 17:00:00 7.96667 C 5.46 g/m*3 6.51 C 8.475 km/h
1402 25-02-2017 18:00:00 7.14167 C 5.72 g/m*3 7.14 C 0.4 km/h
1403 25-02-2017 19:00:00 6.125 C 5.85 g/m*3 6.13 C 0 km/h
1404 25-02-2017 20:00:00 6.025 C 5.82 g/m*3 6.03 C 0.26667 km/h
1405 25-02-2017 21:00:00 6.3 C 5.86 g/m*3 6.3 C 1.875 km/h
1406 25-02-2017 22:00:00 6.50833 C 5.82 g/m*3 6.51 C 4.425 km/h
1407 25-02-2017 23:00:00 5.425 C 5.65 g/m*3 5.43 C 0.4 km/h
1408 26-02-2017 00:00:00 3.84167 C 5.44 g/m*3 3.84 C 0.13333 km/h
1409 26-02-2017 01:00:00 3.40833 C 5.42 g/m*3 3.41 C 0.93333 km/h
1410 26-02-2017 02:00:00 3.65833 C 5.56 g/m*3 3.66 C 0 km/h
1411 26-02-2017 03:00:00 4 C 5.7 g/m*3 4 C 0.13333 km/h
1412 26-02-2017 04:00:00 4.4 C 5.84 g/m*3 4.4 C 0.4 km/h
1413 26-02-2017 05:00:00 4.675 C 5.9 g/m*3 4.68 C 0.13333 km/h
1414 26-02-2017 06:00:00 4.74167 C 5.88 g/m*3 4.74 C 0.4 km/h
1415 26-02-2017 07:00:00 5.33333 C 5.82 g/m*3 5.33 C 4.975 km/h
1416 26-02-2017 08:00:00 6.84167 C 5.77 g/m*3 4.87 C 9.925 km/h
1417 26-02-2017 09:00:00 7.73333 C 5.8 g/m*3 5.86 C 10.35833 km/h
1418 26-02-2017 10:00:00 8.55833 C 5.95 g/m*3 6.19 C 14.63333 km/h
1419 26-02-2017 11:00:00 9.38333 C 5.99 g/m*3 6.9 C 17.16667 km/h
1420 26-02-2017 12:00:00 11.08333 C 5.99 g/m*3 11.08 C 15.56667 km/h
1421 26-02-2017 13:00:00 12.79167 C 6.07 g/m*3 12.79 C 17.03333 km/h
1422 26-02-2017 14:00:00 13.86667 C 6.24 g/m*3 13.87 C 19.16667 km/h
1423 26-02-2017 15:00:00 13.79167 C 6.42 g/m*3 13.79 C 14.23333 km/h
1424 26-02-2017 16:00:00 13.05 C 6.53 g/m*3 13.05 C 12.63333 km/h
1425 26-02-2017 17:00:00 12.48333 C 6.92 g/m*3 12.48 C 11.01667 km/h
Sensor: Nr:Datum:Temp:Abs-Feuchte:Windchill:Wind:
Aussen-T/F 1426 26-02-2017 18:00:00 11.45 C 7.55 g/m*3 11.45 C 11.825 km/h
1427 26-02-2017 19:00:00 10.875 C 7.76 g/m*3 10.22 C 7.1 km/h
1428 26-02-2017 20:00:00 10.55 C 7.84 g/m*3 8.97 C 12.09167 km/h
1429 26-02-2017 21:00:00 10.21667 C 7.84 g/m*3 9.61 C 6.44167 km/h
1430 26-02-2017 22:00:00 10.16667 C 7.81 g/m*3 9.55 C 6.43333 km/h
1431 26-02-2017 23:00:00 10.20833 C 7.78 g/m*3 9.32 C 7.65833 km/h
1432 27-02-2017 00:00:00 10.36667 C 7.69 g/m*3 9.92 C 5.90833 km/h
1433 27-02-2017 01:00:00 10.21667 C 7.6 g/m*3 10.22 C 1.74167 km/h
1434 27-02-2017 02:00:00 9.85 C 7.54 g/m*3 9.85 C 2.40833 km/h
1435 27-02-2017 03:00:00 10.625 C 7.49 g/m*3 10.4 C 5.225 km/h
1436 27-02-2017 04:00:00 10.85 C 7.48 g/m*3 10.85 C 4.81667 km/h
1437 27-02-2017 05:00:00 10.8 C 7.43 g/m*3 10.05 C 7.50833 km/h
1438 27-02-2017 06:00:00 11.025 C 7.4 g/m*3 11.03 C 10.86667 km/h
1439 27-02-2017 07:00:00 11.125 C 7.36 g/m*3 11.13 C 9.65833 km/h
1440 27-02-2017 08:00:00 11.09167 C 7.34 g/m*3 11.09 C 8.19167 km/h
1441 27-02-2017 09:00:00 11.375 C 7.23 g/m*3 11.38 C 8.33333 km/h
1442 27-02-2017 10:00:00 11.91667 C 7.16 g/m*3 11.92 C 11.95833 km/h
1443 27-02-2017 11:00:00 12.50833 C 7.24 g/m*3 12.51 C 10.89167 km/h
1444 27-02-2017 12:00:00 12.69167 C 7.13 g/m*3 12.69 C 10.75833 km/h
1445 27-02-2017 13:00:00 13.04167 C 6.94 g/m*3 13.04 C 15.03333 km/h
1446 27-02-2017 14:00:00 13.325 C 6.9 g/m*3 13.33 C 14.36667 km/h
1447 27-02-2017 15:00:00 13.15 C 6.71 g/m*3 13.15 C 11.3 km/h
1448 27-02-2017 16:00:00 13.025 C 6.75 g/m*3 13.03 C 6.575 km/h
1449 27-02-2017 17:00:00 12.675 C 7.01 g/m*3 12.68 C 9.66667 km/h
1450 27-02-2017 18:00:00 12.275 C 6.91 g/m*3 12.28 C 9.54167 km/h
Sensor: Nr:Datum:Temp:Abs-Feuchte:Windchill:Wind:
Aussen-T/F 1451 27-02-2017 19:00:00 11.325 C 7.23 g/m*3 11.33 C 17.58333 km/h
1452 27-02-2017 20:00:00 7.54167 C 7.32 g/m*3 5.53 C 10.88333 km/h
1453 27-02-2017 21:00:00 7.59167 C 7.39 g/m*3 5.87 C 9.4 km/h
1454 27-02-2017 22:00:00 7.55833 C 7.26 g/m*3 5.6 C 10.6 km/h
1455 27-02-2017 23:00:00 7.1 C 7.08 g/m*3 5.38 C 8.99167 km/h
1456 28-02-2017 00:00:00 6.29167 C 6.64 g/m*3 4.51 C 8.59167 km/h
1457 28-02-2017 01:00:00 6.325 C 6.51 g/m*3 4.14 C 10.49167 km/h
1458 28-02-2017 02:00:00 6.30833 C 6.29 g/m*3 3.82 C 12.1 km/h
1459 28-02-2017 03:00:00 6.175 C 6.19 g/m*3 3.53 C 12.88333 km/h
1460 28-02-2017 04:00:00 6.30833 C 5.93 g/m*3 4.05 C 10.875 km/h
1461 28-02-2017 05:00:00 5.58333 C 5.65 g/m*3 3.58 C 9 km/h
1462 28-02-2017 06:00:00 5.5 C 5.49 g/m*3 3.05 C 11.01667 km/h
1463 28-02-2017 07:00:00 5.39167 C 5.38 g/m*3 2.01 C 16.50833 km/h
1464 28-02-2017 08:00:00 5.63333 C 5.6 g/m*3 2.48 C 15.30833 km/h
1465 28-02-2017 09:00:00 5.08333 C 5.83 g/m*3 1.89 C 14.75833 km/h
1466 28-02-2017 10:00:00 6.46667 C 5.74 g/m*3 2.86 C 20.50833 km/h
1467 28-02-2017 11:00:00 7.75 C 5.61 g/m*3 4.46 C 20.775 km/h
1468 28-02-2017 12:00:00 8.90833 C 5.59 g/m*3 6.78 C 13.43333 km/h
1469 28-02-2017 13:00:00 9.5 C 5.53 g/m*3 8.17 C 9.275 km/h
1470 28-02-2017 14:00:00 8.56667 C 5.77 g/m*3 7.37 C 7.79167 km/h
1471 28-02-2017 15:00:00 6.26667 C 6.3 g/m*3 5.49 C 5.08333 km/h
1472 28-02-2017 16:00:00 4.79167 C 6.05 g/m*3 4.79 C 2.00833 km/h
1473 28-02-2017 17:00:00 4.48333 C 6.06 g/m*3 4.48 C 4.54167 km/h
1474 28-02-2017 18:00:00 3.93333 C 5.86 g/m*3 1.25 C 10.61667 km/h
1475 28-02-2017 19:00:00 3.75833 C 5.7 g/m*3 0.11 C 15.7 km/h
Sensor: Nr:Datum:Temp:Abs-Feuchte:Windchill:Wind:
Aussen-T/F 1476 28-02-2017 20:00:00 4.09167 C 5.75 g/m*3 1.14 C 12.08333 km/h
1477 28-02-2017 21:00:00 3.86667 C 5.61 g/m*3 1.98 C 7.38333 km/h
1478 28-02-2017 22:00:00 3.8 C 5.55 g/m*3 1.24 C 9.94167 km/h
1479 28-02-2017 23:00:00 4.325 C 5.73 g/m*3 2.76 C 6.58333 km/h
1480 01-03-2017 00:00:00 5.04167 C 5.81 g/m*3 2.15 C 12.89167 km/h
1481 01-03-2017 01:00:00 5.36667 C 5.99 g/m*3 1.66 C 18.9 km/h
1482 01-03-2017 02:00:00 5.325 C 5.94 g/m*3 1.73 C 17.96667 km/h
1483 01-03-2017 03:00:00 5.25833 C 5.98 g/m*3 2.3 C 13.56667 km/h
1484 01-03-2017 04:00:00 5 C 6.06 g/m*3 2.05 C 13.16667 km/h
1485 01-03-2017 05:00:00 5.46667 C 6.14 g/m*3 2.28 C 15.3 km/h
1486 01-03-2017 06:00:00 5.76667 C 6.27 g/m*3 2.53 C 16.1 km/h
1487 01-03-2017 07:00:00 6.03333 C 6.3 g/m*3 2.94 C 15.56667 km/h
1488 01-03-2017 08:00:00 6.54167 C 6.45 g/m*3 4.18 C 11.7 km/h
1489 01-03-2017 09:00:00 6.825 C 6.51 g/m*3 4.39 C 12.475 km/h
1490 01-03-2017 10:00:00 7.51667 C 6.64 g/m*3 4.74 C 15.83333 km/h
1491 01-03-2017 11:00:00 8.55 C 6.73 g/m*3 6 C 15.96667 km/h
1492 01-03-2017 12:00:00 8.64167 C 6.81 g/m*3 6.13 C 15.83333 km/h
1493 01-03-2017 13:00:00 8.88333 C 6.87 g/m*3 6.27 C 17.18333 km/h
1494 01-03-2017 14:00:00 7.50833 C 6.97 g/m*3 5.81 C 9.25 km/h
1495 01-03-2017 15:00:00 8.10833 C 7.08 g/m*3 6.71 C 8.325 km/h
1496 01-03-2017 16:00:00 8.20833 C 6.84 g/m*3 6.26 C 11.28333 km/h
1497 01-03-2017 17:00:00 7.9 C 6.8 g/m*3 5.53 C 13.55833 km/h
1498 01-03-2017 18:00:00 6.69167 C 6.79 g/m*3 6.69 C 3.08333 km/h
1499 01-03-2017 19:00:00 6.04167 C 6.75 g/m*3 6.04 C 0.4 km/h
1500 01-03-2017 20:00:00 5.88333 C 6.78 g/m*3 5.88 C 0.26667 km/h
Sensor: Nr:Datum:Temp:Abs-Feuchte:Windchill:Wind:
Aussen-T/F 1501 01-03-2017 21:00:00 6.1 C 6.94 g/m*3 6.1 C 0.53333 km/h
1502 01-03-2017 22:00:00 6.50833 C 7.19 g/m*3 6.51 C 1.6 km/h
1503 01-03-2017 23:00:00 6.975 C 7.43 g/m*3 6.98 C 0.53333 km/h
1504 02-03-2017 00:00:00 7.825 C 7.83 g/m*3 6.56 C 7.525 km/h
1505 02-03-2017 01:00:00 8.85833 C 7.86 g/m*3 7 C 11.54167 km/h
1506 02-03-2017 02:00:00 8.85833 C 7.21 g/m*3 6.64 C 13.96667 km/h
1507 02-03-2017 03:00:00 8.64167 C 7.05 g/m*3 6.15 C 15.7 km/h
1508 02-03-2017 04:00:00 8.075 C 6.47 g/m*3 5.36 C 16.38333 km/h
1509 02-03-2017 05:00:00 8.13333 C 6.32 g/m*3 5.12 C 19.05 km/h
1510 02-03-2017 06:00:00 7.51667 C 5.25 g/m*3 4.13 C 21.05 km/h
1511 02-03-2017 07:00:00 7.08333 C 5.29 g/m*3 4.33 C 14.9 km/h
1512 02-03-2017 08:00:00 7.3 C 5.31 g/m*3 3.37 C 26.15 km/h
1513 02-03-2017 09:00:00 7.575 C 5.5 g/m*3 4.15 C 21.58333 km/h
1514 02-03-2017 10:00:00 8.25833 C 5.15 g/m*3 4.52 C 27.21667 km/h
1515 02-03-2017 11:00:00 9.13333 C 5.13 g/m*3 5.59 C 28.025 km/h
1516 02-03-2017 12:00:00 9.74167 C 5.01 g/m*3 6.4 C 27.75 km/h
1517 02-03-2017 13:00:00 10.06667 C 4.96 g/m*3 7.31 C 21.58333 km/h
1518 02-03-2017 14:00:00 10.45833 C 4.91 g/m*3 7.93 C 20.23333 km/h
1519 02-03-2017 15:00:00 10.81667 C 4.87 g/m*3 8.36 C 20.50833 km/h
1520 02-03-2017 16:00:00 10.73333 C 4.96 g/m*3 8.21 C 21.04167 km/h
1521 02-03-2017 17:00:00 10.58333 C 5.22 g/m*3 8.71 C 14.36667 km/h
1522 02-03-2017 18:00:00 9.36667 C 5.38 g/m*3 8.34 C 7.65 km/h
1523 02-03-2017 19:00:00 8.30833 C 5.48 g/m*3 8.31 C 3.06667 km/h
1524 02-03-2017 20:00:00 7.35833 C 5.77 g/m*3 7.36 C 1.73333 km/h
1525 02-03-2017 21:00:00 5.59167 C 5.59 g/m*3 5.59 C 1.86667 km/h
Sensor: Nr:Datum:Temp:Abs-Feuchte:Windchill:Wind:
Aussen-T/F 1526 02-03-2017 22:00:00 4.475 C 5.41 g/m*3 4.47 C 3.6 km/h
1527 02-03-2017 23:00:00 3.95833 C 5.36 g/m*3 3.96 C 2.26667 km/h
1528 03-03-2017 00:00:00 3.43333 C 5.25 g/m*3 3.43 C 1.33333 km/h
1529 03-03-2017 01:00:00 3.23333 C 5.3 g/m*3 3.23 C 1.86667 km/h
1530 03-03-2017 02:00:00 2.825 C 5.21 g/m*3 2.83 C 0.4 km/h
1531 03-03-2017 03:00:00 2.4 C 5.09 g/m*3 2.4 C 0.66667 km/h
1532 03-03-2017 04:00:00 1.64167 C 4.93 g/m*3 1.64 C 0 km/h
1533 03-03-2017 05:00:00 0.875 C 4.73 g/m*3 0.88 C 0 km/h
1534 03-03-2017 06:00:00 0.61667 C 4.73 g/m*3 0.62 C 0 km/h
1535 03-03-2017 07:00:00 0.88333 C 4.84 g/m*3 0.88 C 0 km/h
1536 03-03-2017 08:00:00 1.74167 C 5.18 g/m*3 1.74 C 0.13333 km/h
1537 03-03-2017 09:00:00 3.74167 C 5.83 g/m*3 3.74 C 0.66667 km/h
1538 03-03-2017 10:00:00 6.41667 C 6.1 g/m*3 6.42 C 1.86667 km/h
1539 03-03-2017 11:00:00 9.23333 C 5.63 g/m*3 8.51 C 6.29167 km/h
1540 03-03-2017 12:00:00 10.13333 C 5.54 g/m*3 9.32 C 7.25 km/h
1541 03-03-2017 13:00:00 10.95 C 5.75 g/m*3 10.34 C 6.975 km/h
1542 03-03-2017 14:00:00 11.38333 C 5.9 g/m*3 11.38 C 6.30833 km/h
1543 03-03-2017 15:00:00 11.775 C 6.18 g/m*3 11.78 C 4.00833 km/h
1544 03-03-2017 16:00:00 11.725 C 6.12 g/m*3 11.73 C 3.20833 km/h
1545 03-03-2017 17:00:00 10.71667 C 6.19 g/m*3 10.72 C 2.13333 km/h
1546 03-03-2017 18:00:00 8.98333 C 5.84 g/m*3 8.98 C 3.2 km/h
1547 03-03-2017 19:00:00 7.70833 C 5.62 g/m*3 7.71 C 1.86667 km/h
1548 03-03-2017 20:00:00 7.33333 C 5.64 g/m*3 7.33 C 2.4 km/h
1549 03-03-2017 21:00:00 7.29167 C 5.78 g/m*3 7.29 C 0 km/h
1550 03-03-2017 22:00:00 6.95833 C 5.89 g/m*3 6.96 C 1.73333 km/h
Sensor: Nr:Datum:Temp:Abs-Feuchte:Windchill:Wind:
Aussen-T/F 1551 03-03-2017 23:00:00 7.225 C 5.92 g/m*3 7.23 C 2.8 km/h
1552 04-03-2017 00:00:00 7.54167 C 6.08 g/m*3 7.54 C 0.93333 km/h
1553 04-03-2017 01:00:00 7.64167 C 6.15 g/m*3 7.64 C 3.2 km/h
1554 04-03-2017 02:00:00 7.80833 C 6.46 g/m*3 7.81 C 3.46667 km/h
1555 04-03-2017 03:00:00 9.54167 C 6.93 g/m*3 9.54 C 4.28333 km/h
1556 04-03-2017 04:00:00 10.4 C 7.02 g/m*3 10.4 C 3.33333 km/h
1557 04-03-2017 05:00:00 11.49167 C 6.99 g/m*3 11.49 C 5.63333 km/h
1558 04-03-2017 06:00:00 11.35833 C 6.94 g/m*3 11.36 C 5.23333 km/h
1559 04-03-2017 07:00:00 9.74167 C 7.03 g/m*3 9.74 C 0 km/h
1560 04-03-2017 08:00:00 9.525 C 7.07 g/m*3 9.53 C 1.06667 km/h
1561 04-03-2017 09:00:00 9.55833 C 7.1 g/m*3 9.56 C 1.46667 km/h
1562 04-03-2017 10:00:00 12.43333 C 7.36 g/m*3 12.43 C 1.6 km/h
1563 04-03-2017 11:00:00 14.26667 C 7.24 g/m*3 14.27 C 5.475 km/h
1564 04-03-2017 12:00:00 14.525 C 7.22 g/m*3 14.53 C 4.94167 km/h
1565 04-03-2017 13:00:00 15.31667 C 7.3 g/m*3 15.32 C 10.35 km/h
1566 04-03-2017 14:00:00 16.06667 C 7.26 g/m*3 16.07 C 6.975 km/h
1567 04-03-2017 15:00:00 16.225 C 7.37 g/m*3 16.23 C 8.88333 km/h
1568 04-03-2017 16:00:00 15.35 C 7.36 g/m*3 15.35 C 7.10833 km/h
1569 04-03-2017 17:00:00 14.01667 C 7.92 g/m*3 14.02 C 4.15 km/h
1570 04-03-2017 18:00:00 11 C 7.04 g/m*3 8.15 C 26.00833 km/h
1571 04-03-2017 19:00:00 9.31667 C 7.24 g/m*3 7.47 C 12.08333 km/h
1572 04-03-2017 20:00:00 8.06667 C 7.62 g/m*3 8.07 C 0.8 km/h
1573 04-03-2017 21:00:00 7.41667 C 7.45 g/m*3 7.42 C 0.13333 km/h
1574 04-03-2017 22:00:00 7.05 C 7.36 g/m*3 7.05 C 1.6 km/h
1575 04-03-2017 23:00:00 7.25 C 7.48 g/m*3 7.25 C 1.33333 km/h
Sensor: Nr:Datum:Temp:Abs-Feuchte:Windchill:Wind:
Aussen-T/F 1576 05-03-2017 00:00:00 7.4 C 7.55 g/m*3 6.6 C 5.625 km/h
1577 05-03-2017 01:00:00 6.86667 C 6.75 g/m*3 3.76 C 17.16667 km/h
1578 05-03-2017 02:00:00 6.61667 C 6.54 g/m*3 4.11 C 12.625 km/h
1579 05-03-2017 03:00:00 6.48333 C 6.69 g/m*3 5.74 C 5.075 km/h
1580 05-03-2017 04:00:00 7.04167 C 6.84 g/m*3 4.24 C 15.16667 km/h
1581 05-03-2017 05:00:00 7.15 C 6.81 g/m*3 5.61 C 8.20833 km/h
1582 05-03-2017 06:00:00 6.875 C 6.67 g/m*3 5.56 C 7.10833 km/h
1583 05-03-2017 07:00:00 6.74167 C 6.78 g/m*3 6.74 C 3.75 km/h
1584 05-03-2017 08:00:00 7.35 C 6.91 g/m*3 6.54 C 5.63333 km/h
1585 05-03-2017 09:00:00 7.39167 C 7.2 g/m*3 7.39 C 2.275 km/h
1586 05-03-2017 10:00:00 8.35833 C 7.13 g/m*3 7.36 C 6.83333 km/h
1587 05-03-2017 11:00:00 9.625 C 7.05 g/m*3 8.17 C 10.08333 km/h
1588 05-03-2017 12:00:00 8.55 C 7.17 g/m*3 7.24 C 8.30833 km/h
1589 05-03-2017 13:00:00 8.475 C 7.26 g/m*3 7.36 C 7.36667 km/h
1590 05-03-2017 14:00:00 9.8 C 6.87 g/m*3 8.16 C 11.41667 km/h
1591 05-03-2017 15:00:00 9.59167 C 6.59 g/m*3 8.46 C 8.33333 km/h
1592 05-03-2017 16:00:00 8.9 C 6.62 g/m*3 7.89 C 7.23333 km/h
1593 05-03-2017 17:00:00 7.00833 C 6.97 g/m*3 7.01 C 1.86667 km/h
1594 05-03-2017 18:00:00 6.08333 C 6.76 g/m*3 6.08 C 2 km/h
1595 05-03-2017 19:00:00 5.61667 C 6.58 g/m*3 5.62 C 2.80833 km/h
1596 05-03-2017 20:00:00 5.34167 C 6.41 g/m*3 5.34 C 0.93333 km/h
1597 05-03-2017 21:00:00 5.25 C 6.42 g/m*3 4.18 C 5.49167 km/h
1598 05-03-2017 22:00:00 5.25 C 6.42 g/m*3 3.35 C 8.325 km/h
1599 05-03-2017 23:00:00 5.35833 C 6.49 g/m*3 2.87 C 11.03333 km/h
1600 06-03-2017 00:00:00 5.45833 C 6.47 g/m*3 3.59 C 8.34167 km/h
Sensor: Nr:Datum:Temp:Abs-Feuchte:Windchill:Wind:
Aussen-T/F 1601 06-03-2017 01:00:00 5.39167 C 6.32 g/m*3 3.29 C 9.26667 km/h
1602 06-03-2017 02:00:00 5.425 C 6.29 g/m*3 3.69 C 7.775 km/h
1603 06-03-2017 03:00:00 5.84167 C 6.45 g/m*3 4.47 C 6.71667 km/h
1604 06-03-2017 04:00:00 5.775 C 6.44 g/m*3 4.14 C 7.64167 km/h
1605 06-03-2017 05:00:00 5.75833 C 6.49 g/m*3 3.88 C 8.59167 km/h
1606 06-03-2017 06:00:00 5.975 C 6.52 g/m*3 3.11 C 13.96667 km/h
1607 06-03-2017 07:00:00 6.175 C 6.52 g/m*3 3.1 C 15.7 km/h
1608 06-03-2017 08:00:00 6.45 C 6.54 g/m*3 3.47 C 15.43333 km/h
1609 06-03-2017 09:00:00 6.86667 C 6.63 g/m*3 3.83 C 16.63333 km/h
1610 06-03-2017 10:00:00 7.45833 C 6.69 g/m*3 4.85 C 14.5 km/h
1611 06-03-2017 11:00:00 7.61667 C 6.72 g/m*3 5.41 C 12.09167 km/h
1612 06-03-2017 12:00:00 7.51667 C 6.74 g/m*3 5.4 C 11.425 km/h
1613 06-03-2017 13:00:00 8.16667 C 7 g/m*3 5.61 C 15.3 km/h
1614 06-03-2017 14:00:00 8.36667 C 7.02 g/m*3 6.88 C 8.99167 km/h
1615 06-03-2017 15:00:00 7.81667 C 7.08 g/m*3 7.82 C 4.41667 km/h
1616 06-03-2017 16:00:00 7.025 C 6.99 g/m*3 5.81 C 6.85 km/h
1617 06-03-2017 17:00:00 6.90833 C 6.95 g/m*3 6.91 C 2.8 km/h
1618 06-03-2017 18:00:00 6.31667 C 6.85 g/m*3 6.32 C 1.86667 km/h
1619 06-03-2017 19:00:00 5.65833 C 6.67 g/m*3 5.66 C 2.26667 km/h
1620 06-03-2017 20:00:00 5.75833 C 6.72 g/m*3 5.76 C 2 km/h
1621 06-03-2017 21:00:00 5.91667 C 6.65 g/m*3 4.49 C 6.96667 km/h
1622 06-03-2017 22:00:00 6.00833 C 6.54 g/m*3 4.92 C 5.89167 km/h
1623 06-03-2017 23:00:00 5.95 C 6.57 g/m*3 5.95 C 4.94167 km/h
1624 07-03-2017 00:00:00 5.76667 C 6.66 g/m*3 5.77 C 1.33333 km/h
1625 07-03-2017 01:00:00 5.85833 C 6.69 g/m*3 4.93 C 5.35833 km/h
Sensor: Nr:Datum:Temp:Abs-Feuchte:Windchill:Wind:
Aussen-T/F 1626 07-03-2017 02:00:00 5.70833 C 6.66 g/m*3 5.71 C 0.8 km/h
1627 07-03-2017 03:00:00 5.36667 C 6.53 g/m*3 5.37 C 0.93333 km/h
1628 07-03-2017 04:00:00 5.23333 C 6.49 g/m*3 5.23 C 1.86667 km/h
1629 07-03-2017 05:00:00 5.04167 C 6.4 g/m*3 5.04 C 1.86667 km/h
1630 07-03-2017 06:00:00 4.85 C 6.32 g/m*3 4.85 C 2.26667 km/h
1631 07-03-2017 07:00:00 4.775 C 6.29 g/m*3 4.78 C 2.13333 km/h
1632 07-03-2017 08:00:00 5.225 C 6.44 g/m*3 5.23 C 2.53333 km/h
1633 07-03-2017 09:00:00 5.775 C 6.55 g/m*3 5.78 C 3.6 km/h
1634 07-03-2017 10:00:00 6.81667 C 6.9 g/m*3 5.76 C 6.16667 km/h
1635 07-03-2017 11:00:00 6.59167 C 6.83 g/m*3 6.59 C 3.35 km/h
1636 07-03-2017 12:00:00 7.41667 C 7.01 g/m*3 7.42 C 2 km/h
1637 07-03-2017 13:00:00 7.69167 C 6.86 g/m*3 7.01 C 5.36667 km/h
1638 07-03-2017 14:00:00 7.85833 C 6.84 g/m*3 6.68 C 7.225 km/h
1639 07-03-2017 15:00:00 7.08333 C 7.18 g/m*3 7.08 C 4.41667 km/h
1640 07-03-2017 16:00:00 7.20833 C 7.3 g/m*3 7.21 C 1.46667 km/h
1641 07-03-2017 17:00:00 7.5 C 7.35 g/m*3 7.5 C 2.8 km/h
1642 07-03-2017 18:00:00 6.56667 C 6.8 g/m*3 6.57 C 3.46667 km/h
1643 07-03-2017 19:00:00 6.15833 C 6.78 g/m*3 6.16 C 2.4 km/h
1644 07-03-2017 20:00:00 5.825 C 6.67 g/m*3 5.83 C 4.29167 km/h
1645 07-03-2017 21:00:00 5.225 C 6.52 g/m*3 5.23 C 4.26667 km/h
1646 07-03-2017 22:00:00 5.225 C 6.55 g/m*3 5.23 C 3.08333 km/h
1647 07-03-2017 23:00:00 4.86667 C 6.4 g/m*3 4.87 C 0.53333 km/h
1648 08-03-2017 00:00:00 3.56667 C 5.87 g/m*3 3.57 C 1.46667 km/h
1649 08-03-2017 01:00:00 2.76667 C 5.56 g/m*3 2.77 C 0.26667 km/h
1650 08-03-2017 02:00:00 2.41667 C 5.49 g/m*3 2.42 C 1.2 km/h
Sensor: Nr:Datum:Temp:Abs-Feuchte:Windchill:Wind:
Aussen-T/F 1651 08-03-2017 03:00:00 1.96667 C 5.32 g/m*3 1.97 C 0.26667 km/h
1652 08-03-2017 04:00:00 1.7 C 5.23 g/m*3 1.7 C 0.93333 km/h
1653 08-03-2017 05:00:00 1.23333 C 5.06 g/m*3 1.23 C 0.13333 km/h
1654 08-03-2017 06:00:00 1.30833 C 5.09 g/m*3 1.31 C 0 km/h
1655 08-03-2017 07:00:00 1.68333 C 5.27 g/m*3 1.68 C 0.26667 km/h
1656 08-03-2017 08:00:00 2.225 C 5.47 g/m*3 2.23 C 0.4 km/h
1657 08-03-2017 09:00:00 3.975 C 6.17 g/m*3 3.98 C 2.13333 km/h
1658 08-03-2017 10:00:00 5.85833 C 6.91 g/m*3 5.86 C 4.00833 km/h
1659 08-03-2017 11:00:00 6.225 C 6.77 g/m*3 5.26 C 5.61667 km/h
1660 08-03-2017 12:00:00 5.25833 C 6.47 g/m*3 5.26 C 1.06667 km/h
1661 08-03-2017 13:00:00 5.1 C 6.44 g/m*3 5.1 C 1.875 km/h
1662 08-03-2017 14:00:00 5.31667 C 6.59 g/m*3 5.32 C 0.8 km/h
1663 08-03-2017 15:00:00 5.725 C 6.81 g/m*3 5.73 C 1.06667 km/h
1664 08-03-2017 16:00:00 6.15833 C 7.04 g/m*3 6.16 C 0.4 km/h
1665 08-03-2017 17:00:00 6.5 C 7.2 g/m*3 6.5 C 1.34167 km/h
1666 08-03-2017 18:00:00 7.24167 C 7.59 g/m*3 6.02 C 6.975 km/h
1667 08-03-2017 19:00:00 8.01667 C 7.95 g/m*3 6.15 C 10.63333 km/h
1668 08-03-2017 20:00:00 8.475 C 8.18 g/m*3 6.85 C 9.8 km/h
1669 08-03-2017 21:00:00 9.01667 C 8.48 g/m*3 7.73 C 8.6 km/h
1670 08-03-2017 22:00:00 9.38333 C 8.67 g/m*3 8.52 C 6.96667 km/h
1671 08-03-2017 23:00:00 9.25 C 8.6 g/m*3 9.25 C 1.46667 km/h
1672 09-03-2017 00:00:00 9.075 C 8.5 g/m*3 9.07 C 0.26667 km/h
1673 09-03-2017 01:00:00 9.025 C 8.56 g/m*3 9.03 C 0 km/h
1674 09-03-2017 02:00:00 9.01667 C 8.55 g/m*3 9.02 C 0.66667 km/h
1675 09-03-2017 03:00:00 8.75833 C 8.42 g/m*3 8.76 C 0 km/h
Sensor: Nr:Datum:Temp:Abs-Feuchte:Windchill:Wind:
Aussen-T/F 1676 09-03-2017 04:00:00 8.75833 C 8.42 g/m*3 8.76 C 0.26667 km/h
1677 09-03-2017 05:00:00 8.775 C 8.43 g/m*3 8.78 C 0.13333 km/h
1678 09-03-2017 06:00:00 8.45 C 8.26 g/m*3 8.45 C 0 km/h
1679 09-03-2017 07:00:00 8.475 C 8.27 g/m*3 8.48 C 0.13333 km/h
1680 09-03-2017 08:00:00 9.05 C 8.59 g/m*3 9.05 C 1.2 km/h
1681 09-03-2017 09:00:00 9.9 C 9.09 g/m*3 9.9 C 2.66667 km/h
1682 09-03-2017 10:00:00 10.925 C 9.71 g/m*3 10.56 C 5.9 km/h
1683 09-03-2017 11:00:00 12.06667 C 10.29 g/m*3 12.07 C 11.15 km/h
1684 09-03-2017 12:00:00 13.58333 C 10.46 g/m*3 13.58 C 12.23333 km/h
1685 09-03-2017 13:00:00 14.85 C 10.19 g/m*3 14.85 C 14.36667 km/h
1686 09-03-2017 14:00:00 15.53333 C 9.69 g/m*3 15.53 C 18.90833 km/h
1687 09-03-2017 15:00:00 15.08333 C 8.96 g/m*3 15.08 C 16.1 km/h
1688 09-03-2017 16:00:00 14.70833 C 8.68 g/m*3 14.71 C 16.64167 km/h
1689 09-03-2017 17:00:00 14.5 C 8.32 g/m*3 14.5 C 10.88333 km/h
1690 09-03-2017 18:00:00 13.49167 C 8.06 g/m*3 13.49 C 11.025 km/h
1691 09-03-2017 19:00:00 12.01667 C 7.85 g/m*3 12.02 C 8.73333 km/h
1692 09-03-2017 20:00:00 11.075 C 7.54 g/m*3 11.08 C 8.33333 km/h
1693 09-03-2017 21:00:00 10.80833 C 7.36 g/m*3 8.95 C 14.63333 km/h
1694 09-03-2017 22:00:00 9.70833 C 6.61 g/m*3 8.2 C 10.49167 km/h
1695 09-03-2017 23:00:00 9.04167 C 6.56 g/m*3 7.29 C 11.15 km/h
1696 10-03-2017 00:00:00 8.35 C 6.43 g/m*3 6.37 C 11.69167 km/h
1697 10-03-2017 01:00:00 7.68333 C 6.39 g/m*3 6.27 C 8.06667 km/h
1698 10-03-2017 02:00:00 7.38333 C 6.28 g/m*3 6.05 C 7.525 km/h
1699 10-03-2017 03:00:00 7.21667 C 6.31 g/m*3 6.1 C 6.575 km/h
1700 10-03-2017 04:00:00 6.90833 C 6.32 g/m*3 6.22 C 5.08333 km/h
Sensor: Nr:Datum:Temp:Abs-Feuchte:Windchill:Wind:
Aussen-T/F 1701 10-03-2017 05:00:00 6.475 C 6.18 g/m*3 5.41 C 6.03333 km/h
1702 10-03-2017 06:00:00 6.13333 C 6.16 g/m*3 6.13 C 1.46667 km/h
1703 10-03-2017 07:00:00 5.98333 C 6.07 g/m*3 5.98 C 2.53333 km/h
1704 10-03-2017 08:00:00 6.45 C 6.04 g/m*3 6.45 C 4.00833 km/h
1705 10-03-2017 09:00:00 6.50833 C 5.77 g/m*3 5.29 C 6.56667 km/h
1706 10-03-2017 10:00:00 7.25 C 5.66 g/m*3 5.55 C 9.025 km/h
1707 10-03-2017 11:00:00 7.96667 C 5.74 g/m*3 6.73 C 7.53333 km/h
1708 10-03-2017 12:00:00 8.64167 C 5.83 g/m*3 7.98 C 5.75833 km/h
1709 10-03-2017 13:00:00 9.65833 C 5.88 g/m*3 9.3 C 5.20833 km/h
1710 10-03-2017 14:00:00 10.725 C 5.85 g/m*3 10.73 C 4.80833 km/h
1711 10-03-2017 15:00:00 10.95 C 5.59 g/m*3 10.95 C 4.95 km/h
1712 10-03-2017 16:00:00 11.775 C 5.24 g/m*3 11.78 C 4.41667 km/h
1713 10-03-2017 17:00:00 11.68333 C 6.35 g/m*3 11.68 C 0.93333 km/h
1714 10-03-2017 18:00:00 8.39167 C 6.15 g/m*3 7.78 C 5.48333 km/h
1715 10-03-2017 19:00:00 6.63333 C 5.91 g/m*3 6.63 C 4.93333 km/h
1716 10-03-2017 20:00:00 5.41667 C 5.82 g/m*3 5.42 C 0.53333 km/h
1717 10-03-2017 21:00:00 4.325 C 5.55 g/m*3 4.33 C 0.26667 km/h
1718 10-03-2017 22:00:00 3.43333 C 5.36 g/m*3 3.43 C 0 km/h
1719 10-03-2017 23:00:00 3.3 C 5.42 g/m*3 3.3 C 0 km/h
1720 11-03-2017 00:00:00 3.325 C 5.48 g/m*3 3.33 C 0 km/h
1721 11-03-2017 01:00:00 3.63333 C 5.63 g/m*3 3.63 C 0 km/h
1722 11-03-2017 02:00:00 2.98333 C 5.36 g/m*3 2.98 C 0 km/h
1723 11-03-2017 03:00:00 2.3 C 5.19 g/m*3 2.3 C 0.26667 km/h
1724 11-03-2017 04:00:00 2.14167 C 5.23 g/m*3 2.14 C 0.13333 km/h
1725 11-03-2017 05:00:00 2.69167 C 5.47 g/m*3 2.69 C 0.13333 km/h
Sensor: Nr:Datum:Temp:Abs-Feuchte:Windchill:Wind:
Aussen-T/F 1726 11-03-2017 06:00:00 2.35 C 5.29 g/m*3 2.35 C 0.13333 km/h
1727 11-03-2017 07:00:00 1.625 C 5.07 g/m*3 1.63 C 0 km/h
1728 11-03-2017 08:00:00 2.175 C 5.29 g/m*3 2.17 C 0 km/h
1729 11-03-2017 09:00:00 3.1 C 5.62 g/m*3 3.1 C 1.46667 km/h
1730 11-03-2017 10:00:00 6.09167 C 6.39 g/m*3 6.09 C 0.66667 km/h
1731 11-03-2017 11:00:00 9.69167 C 6.09 g/m*3 9.38 C 5.08333 km/h
1732 11-03-2017 12:00:00 11.98333 C 5.21 g/m*3 11.98 C 7.375 km/h
1733 11-03-2017 13:00:00 13.15833 C 5.47 g/m*3 13.16 C 7.11667 km/h
1734 11-03-2017 14:00:00 13.725 C 5.7 g/m*3 13.73 C 10.625 km/h
1735 11-03-2017 15:00:00 13.94167 C 5.72 g/m*3 13.94 C 8.33333 km/h
1736 11-03-2017 16:00:00 14.425 C 5.39 g/m*3 14.43 C 4.675 km/h
1737 11-03-2017 17:00:00 12.50833 C 6.76 g/m*3 12.51 C 0.93333 km/h
1738 11-03-2017 18:00:00 9.76667 C 6.52 g/m*3 9.77 C 2 km/h
1739 11-03-2017 19:00:00 7.875 C 6.09 g/m*3 7.88 C 0 km/h
1740 11-03-2017 20:00:00 7.01667 C 5.93 g/m*3 7.02 C 0 km/h
1741 11-03-2017 21:00:00 5.84167 C 5.67 g/m*3 5.84 C 0 km/h
1742 11-03-2017 22:00:00 4.66667 C 5.55 g/m*3 4.67 C 0 km/h
1743 11-03-2017 23:00:00 4.54167 C 5.54 g/m*3 4.54 C 2.13333 km/h
1744 12-03-2017 00:00:00 3.35833 C 5.26 g/m*3 3.36 C 0 km/h
1745 12-03-2017 01:00:00 2.64167 C 5.13 g/m*3 2.64 C 0 km/h
1746 12-03-2017 02:00:00 2.09167 C 5.05 g/m*3 2.09 C 0 km/h
1747 12-03-2017 03:00:00 1.7 C 4.98 g/m*3 1.7 C 0 km/h
1748 12-03-2017 04:00:00 1.35 C 4.92 g/m*3 1.35 C 0 km/h
1749 12-03-2017 05:00:00 1.30833 C 4.89 g/m*3 1.31 C 0 km/h
1750 12-03-2017 06:00:00 0.86667 C 4.75 g/m*3 0.87 C 0 km/h
Sensor: Nr:Datum:Temp:Abs-Feuchte:Windchill:Wind:
Aussen-T/F 1751 12-03-2017 07:00:00 0.825 C 4.77 g/m*3 0.83 C 0 km/h
1752 12-03-2017 08:00:00 1.64167 C 5.09 g/m*3 1.64 C 0 km/h
1753 12-03-2017 09:00:00 3.40833 C 5.57 g/m*3 3.41 C 1.86667 km/h
1754 12-03-2017 10:00:00 6.10833 C 5.95 g/m*3 6.11 C 2.8 km/h
1755 12-03-2017 11:00:00 9.64167 C 5.86 g/m*3 8.95 C 6.43333 km/h
1756 12-03-2017 12:00:00 12.15 C 5.32 g/m*3 12.15 C 7.25 km/h
1757 12-03-2017 13:00:00 13.55 C 4.98 g/m*3 13.55 C 9.95 km/h
1758 12-03-2017 14:00:00 14.175 C 4.84 g/m*3 14.18 C 9.68333 km/h
1759 12-03-2017 15:00:00 14.31667 C 4.89 g/m*3 14.32 C 7.51667 km/h
1760 12-03-2017 16:00:00 14.875 C 4.88 g/m*3 14.88 C 6.99167 km/h
1761 12-03-2017 17:00:00 14.65 C 5.6 g/m*3 14.65 C 3.74167 km/h
1762 12-03-2017 18:00:00 10.29167 C 5.95 g/m*3 9.91 C 5.6 km/h
1763 12-03-2017 19:00:00 8.1 C 5.72 g/m*3 7.25 C 6.14167 km/h
1764 12-03-2017 20:00:00 7.06667 C 5.7 g/m*3 6.27 C 5.46667 km/h
1765 12-03-2017 21:00:00 5.975 C 5.6 g/m*3 5.98 C 4.53333 km/h
1766 12-03-2017 22:00:00 4.95833 C 5.38 g/m*3 4.96 C 0.8 km/h
1767 12-03-2017 23:00:00 4.025 C 5.21 g/m*3 4.03 C 1.06667 km/h
1768 13-03-2017 00:00:00 3.36667 C 5.12 g/m*3 3.37 C 1.46667 km/h
1769 13-03-2017 01:00:00 2.50833 C 4.96 g/m*3 2.51 C 0 km/h
1770 13-03-2017 02:00:00 1.83333 C 4.84 g/m*3 1.83 C 0 km/h
1771 13-03-2017 03:00:00 1.38333 C 4.74 g/m*3 1.38 C 0 km/h
1772 13-03-2017 04:00:00 0.59167 C 4.56 g/m*3 0.59 C 0 km/h
1773 13-03-2017 05:00:00 0.43333 C 4.56 g/m*3 0.43 C 0 km/h
1774 13-03-2017 06:00:00 0.31667 C 4.54 g/m*3 0.32 C 0 km/h
1775 13-03-2017 07:00:00 0.09167 C 4.51 g/m*3 0.09 C 0 km/h
Sensor: Nr:Datum:Temp:Abs-Feuchte:Windchill:Wind:
Aussen-T/F 1776 13-03-2017 08:00:00 0.575 C 4.69 g/m*3 0.57 C 0 km/h
1777 13-03-2017 09:00:00 2.09167 C 5.21 g/m*3 2.09 C 0 km/h
1778 13-03-2017 10:00:00 5.55833 C 5.88 g/m*3 5.56 C 0 km/h
1779 13-03-2017 11:00:00 8.73333 C 5.91 g/m*3 8.73 C 0.26667 km/h
1780 13-03-2017 12:00:00 10.40833 C 5.95 g/m*3 10.41 C 1.86667 km/h
1781 13-03-2017 13:00:00 12.5 C 5.95 g/m*3 12.5 C 4.68333 km/h
1782 13-03-2017 14:00:00 13.74167 C 6.03 g/m*3 13.74 C 7.79167 km/h
1783 13-03-2017 15:00:00 14.475 C 6.3 g/m*3 14.48 C 8.6 km/h
1784 13-03-2017 16:00:00 14.775 C 6.59 g/m*3 14.78 C 8.61667 km/h
1785 13-03-2017 17:00:00 13.775 C 6.74 g/m*3 13.78 C 8.88333 km/h
1786 13-03-2017 18:00:00 11.84167 C 6.5 g/m*3 11.84 C 3.86667 km/h
1787 13-03-2017 19:00:00 9.88333 C 6.55 g/m*3 9.6 C 5.06667 km/h
1788 13-03-2017 20:00:00 8.89167 C 6.63 g/m*3 8.89 C 4.8 km/h
1789 13-03-2017 21:00:00 7.625 C 6.59 g/m*3 7.63 C 1.73333 km/h
1790 13-03-2017 22:00:00 7.73333 C 6.8 g/m*3 7.73 C 1.33333 km/h
1791 13-03-2017 23:00:00 7.90833 C 7.12 g/m*3 7.91 C 2 km/h
1792 14-03-2017 00:00:00 7.64167 C 7.01 g/m*3 7.64 C 0.4 km/h
1793 14-03-2017 01:00:00 6.74167 C 6.77 g/m*3 6.74 C 0.53333 km/h
1794 14-03-2017 02:00:00 7.19167 C 7.05 g/m*3 7.19 C 0.53333 km/h
1795 14-03-2017 03:00:00 7.43333 C 7.08 g/m*3 7.43 C 0.13333 km/h
1796 14-03-2017 04:00:00 7.73333 C 7.42 g/m*3 7.73 C 1.6 km/h
1797 14-03-2017 05:00:00 6.88333 C 7.04 g/m*3 6.88 C 1.33333 km/h
1798 14-03-2017 06:00:00 6.03333 C 6.7 g/m*3 6.03 C 1.33333 km/h
1799 14-03-2017 07:00:00 5.125 C 6.35 g/m*3 5.13 C 0.53333 km/h
1800 14-03-2017 08:00:00 5.13333 C 6.44 g/m*3 5.13 C 0.26667 km/h
Sensor: Nr:Datum:Temp:Abs-Feuchte:Windchill:Wind:
Aussen-T/F 1801 14-03-2017 09:00:00 6.80833 C 7.19 g/m*3 6.81 C 3.875 km/h
1802 14-03-2017 10:00:00 8.68333 C 7.54 g/m*3 8.11 C 5.475 km/h
1803 14-03-2017 11:00:00 10.68333 C 6.92 g/m*3 10.68 C 4.54167 km/h
1804 14-03-2017 12:00:00 11.725 C 6.95 g/m*3 11.73 C 4.54167 km/h
1805 14-03-2017 13:00:00 13.14167 C 7.16 g/m*3 13.14 C 4.53333 km/h
1806 14-03-2017 14:00:00 14.425 C 7.2 g/m*3 14.43 C 6.7 km/h
1807 14-03-2017 15:00:00 15.15833 C 7.16 g/m*3 15.16 C 6.7 km/h
1808 14-03-2017 16:00:00 15.55 C 7.41 g/m*3 15.55 C 3.2 km/h
1809 14-03-2017 17:00:00 14.85 C 7.85 g/m*3 14.85 C 0.4 km/h
1810 14-03-2017 18:00:00 11.86667 C 7.72 g/m*3 11.87 C 5.06667 km/h
1811 14-03-2017 19:00:00 10.48333 C 7.49 g/m*3 10.48 C 4.8 km/h
1812 14-03-2017 20:00:00 9.64167 C 7.35 g/m*3 9.64 C 2 km/h
1813 14-03-2017 21:00:00 8.575 C 7.11 g/m*3 8.57 C 0.53333 km/h
1814 14-03-2017 22:00:00 7.86667 C 7.01 g/m*3 7.87 C 1.6 km/h
1815 14-03-2017 23:00:00 7.575 C 7.09 g/m*3 7.58 C 1.06667 km/h
1816 15-03-2017 00:00:00 8.2 C 7.48 g/m*3 8.2 C 0.93333 km/h
1817 15-03-2017 01:00:00 8.575 C 7.5 g/m*3 8.57 C 0.4 km/h
1818 15-03-2017 02:00:00 8.40833 C 7.43 g/m*3 8.41 C 0.4 km/h
1819 15-03-2017 03:00:00 8.34167 C 7.43 g/m*3 8.34 C 0.26667 km/h
1820 15-03-2017 04:00:00 8.54167 C 7.55 g/m*3 8.54 C 1.86667 km/h
1821 15-03-2017 05:00:00 8.725 C 7.62 g/m*3 8.73 C 0.8 km/h
1822 15-03-2017 06:00:00 8.46667 C 7.52 g/m*3 8.47 C 0.8 km/h
1823 15-03-2017 07:00:00 8.3 C 7.48 g/m*3 8.3 C 0 km/h
1824 15-03-2017 08:00:00 8.60833 C 7.69 g/m*3 8.61 C 0.53333 km/h
1825 15-03-2017 09:00:00 9.61667 C 8.16 g/m*3 9.62 C 1.46667 km/h
Sensor: Nr:Datum:Temp:Abs-Feuchte:Windchill:Wind:
Aussen-T/F 1826 15-03-2017 10:00:00 10.91667 C 8.74 g/m*3 10.92 C 2.4 km/h
1827 15-03-2017 11:00:00 12.06667 C 8.72 g/m*3 12.07 C 7.525 km/h
1828 15-03-2017 12:00:00 13.025 C 8.63 g/m*3 13.03 C 5.475 km/h
1829 15-03-2017 13:00:00 13.575 C 8.47 g/m*3 13.58 C 8.60833 km/h
1830 15-03-2017 14:00:00 14.21667 C 8.02 g/m*3 14.22 C 8.73333 km/h
1831 15-03-2017 15:00:00 14.75 C 7.62 g/m*3 14.75 C 9.00833 km/h
1832 15-03-2017 16:00:00 15.54167 C 7.61 g/m*3 15.54 C 7.10833 km/h
1833 15-03-2017 17:00:00 15.9 C 7.34 g/m*3 15.9 C 6.83333 km/h
1834 15-03-2017 18:00:00 13.55833 C 7.32 g/m*3 13.56 C 5.475 km/h
1835 15-03-2017 19:00:00 10.55833 C 7.4 g/m*3 10.37 C 5.06667 km/h
1836 15-03-2017 20:00:00 9.775 C 7.41 g/m*3 9.78 C 4 km/h
1837 15-03-2017 21:00:00 8.29167 C 7.02 g/m*3 8.29 C 0.8 km/h
1838 15-03-2017 22:00:00 6.58333 C 6.59 g/m*3 6.58 C 0 km/h
1839 15-03-2017 23:00:00 5.41667 C 6.25 g/m*3 5.42 C 0 km/h
1840 16-03-2017 00:00:00 4.50833 C 6.05 g/m*3 4.51 C 0 km/h
1841 16-03-2017 01:00:00 3.96667 C 5.89 g/m*3 3.97 C 0 km/h
1842 16-03-2017 02:00:00 3.46667 C 5.76 g/m*3 3.47 C 0 km/h
1843 16-03-2017 03:00:00 3.03333 C 5.62 g/m*3 3.03 C 0 km/h
1844 16-03-2017 04:00:00 2.80833 C 5.57 g/m*3 2.81 C 0.93333 km/h
1845 16-03-2017 05:00:00 2.13333 C 5.31 g/m*3 2.13 C 0 km/h
1846 16-03-2017 06:00:00 1.65 C 5.15 g/m*3 1.65 C 0 km/h
1847 16-03-2017 07:00:00 1.61667 C 5.16 g/m*3 1.62 C 0 km/h
1848 16-03-2017 08:00:00 2.33333 C 5.46 g/m*3 2.33 C 0 km/h
1849 16-03-2017 09:00:00 3.55 C 5.93 g/m*3 3.55 C 0 km/h
1850 16-03-2017 10:00:00 5.81667 C 6.93 g/m*3 5.82 C 0 km/h
Sensor: Nr:Datum:Temp:Abs-Feuchte:Windchill:Wind:
Aussen-T/F 1851 16-03-2017 11:00:00 8.75833 C 7.79 g/m*3 8.76 C 0.53333 km/h
1852 16-03-2017 12:00:00 12.35 C 7.69 g/m*3 12.35 C 0.53333 km/h
1853 16-03-2017 13:00:00 14.975 C 7.1 g/m*3 14.98 C 4 km/h
1854 16-03-2017 14:00:00 16.525 C 6.63 g/m*3 16.52 C 3.6 km/h
1855 16-03-2017 15:00:00 17.28333 C 6.7 g/m*3 17.28 C 3.33333 km/h
1856 16-03-2017 16:00:00 18.50833 C 7.44 g/m*3 18.51 C 1.33333 km/h
1857 16-03-2017 17:00:00 18.09167 C 8.13 g/m*3 18.09 C 1.86667 km/h
1858 16-03-2017 18:00:00 13.75 C 7.6 g/m*3 13.75 C 5.46667 km/h
1859 16-03-2017 19:00:00 11.75 C 7.11 g/m*3 11.75 C 4.93333 km/h
1860 16-03-2017 20:00:00 10.13333 C 6.98 g/m*3 10.13 C 2.53333 km/h
1861 16-03-2017 21:00:00 8.575 C 6.73 g/m*3 8.57 C 0.13333 km/h
1862 16-03-2017 22:00:00 7.575 C 6.55 g/m*3 7.58 C 0.13333 km/h
1863 16-03-2017 23:00:00 6.65833 C 6.36 g/m*3 6.66 C 0.26667 km/h
1864 17-03-2017 00:00:00 5.83333 C 6.15 g/m*3 5.83 C 0 km/h
1865 17-03-2017 01:00:00 5.41667 C 6.11 g/m*3 5.42 C 0 km/h
1866 17-03-2017 02:00:00 4.825 C 5.98 g/m*3 4.83 C 0.66667 km/h
1867 17-03-2017 03:00:00 5.04167 C 6.07 g/m*3 5.04 C 0.4 km/h
1868 17-03-2017 04:00:00 4.73333 C 6 g/m*3 4.73 C 0.8 km/h
1869 17-03-2017 05:00:00 5.29167 C 6.14 g/m*3 5.29 C 2.53333 km/h
1870 17-03-2017 06:00:00 5.98333 C 6.37 g/m*3 5.98 C 2.41667 km/h
1871 17-03-2017 07:00:00 6.8 C 6.62 g/m*3 6.8 C 1.73333 km/h
1872 17-03-2017 08:00:00 7.5 C 6.77 g/m*3 7.5 C 1.73333 km/h
1873 17-03-2017 09:00:00 8 C 6.97 g/m*3 8 C 1.06667 km/h
1874 17-03-2017 10:00:00 9.93333 C 7.73 g/m*3 9.42 C 5.9 km/h
1875 17-03-2017 11:00:00 12.03333 C 7.87 g/m*3 12.03 C 8.34167 km/h
Sensor: Nr:Datum:Temp:Abs-Feuchte:Windchill:Wind:
Aussen-T/F 1876 17-03-2017 12:00:00 11.75833 C 7.68 g/m*3 11.76 C 13.3 km/h
1877 17-03-2017 13:00:00 11.78333 C 8 g/m*3 11.78 C 10.475 km/h
1878 17-03-2017 14:00:00 12.08333 C 7.49 g/m*3 12.08 C 15.03333 km/h
1879 17-03-2017 15:00:00 12.3 C 6.65 g/m*3 12.3 C 14.775 km/h
1880 17-03-2017 16:00:00 12.225 C 6.61 g/m*3 12.23 C 10.76667 km/h
1881 17-03-2017 17:00:00 11.76667 C 6.51 g/m*3 11.77 C 9 km/h
1882 17-03-2017 18:00:00 10.89167 C 6.55 g/m*3 10.52 C 5.89167 km/h
1883 17-03-2017 19:00:00 9.35833 C 6.53 g/m*3 9.36 C 1.2 km/h
1884 17-03-2017 20:00:00 8.375 C 6.3 g/m*3 8.38 C 1.46667 km/h
1885 17-03-2017 21:00:00 8.13333 C 6.39 g/m*3 8.13 C 2.80833 km/h
1886 17-03-2017 22:00:00 9.10833 C 6.34 g/m*3 7.63 C 9.66667 km/h
1887 17-03-2017 23:00:00 9.26667 C 5.63 g/m*3 7.14 C 13.96667 km/h
1888 18-03-2017 00:00:00 9.125 C 5.85 g/m*3 7.1 C 13.03333 km/h
1889 18-03-2017 01:00:00 8.65 C 6.28 g/m*3 6.21 C 15.3 km/h
1890 18-03-2017 02:00:00 7.58333 C 6.34 g/m*3 4.89 C 15.3 km/h
1891 18-03-2017 03:00:00 6.91667 C 6.25 g/m*3 3.43 C 20.50833 km/h
1892 18-03-2017 04:00:00 7.00833 C 6.37 g/m*3 3.5 C 20.90833 km/h
1893 18-03-2017 05:00:00 6.78333 C 6.61 g/m*3 3.25 C 20.64167 km/h
1894 18-03-2017 06:00:00 7.075 C 6.77 g/m*3 3.61 C 20.65 km/h
1895 18-03-2017 07:00:00 7.225 C 7.02 g/m*3 3.95 C 19.3 km/h
1896 18-03-2017 08:00:00 7.24167 C 7.29 g/m*3 3.99 C 19.175 km/h
1897 18-03-2017 09:00:00 7.80833 C 7.63 g/m*3 5.42 C 13.56667 km/h
1898 18-03-2017 10:00:00 8.96667 C 8.11 g/m*3 6.45 C 16.5 km/h
1899 18-03-2017 11:00:00 9.95833 C 8.42 g/m*3 7.78 C 15.7 km/h
1900 18-03-2017 12:00:00 10.50833 C 8.58 g/m*3 8.6 C 14.5 km/h
Sensor: Nr:Datum:Temp:Abs-Feuchte:Windchill:Wind:
Aussen-T/F 1901 18-03-2017 13:00:00 11.05 C 8.85 g/m*3 11.05 C 15.43333 km/h
1902 18-03-2017 14:00:00 11.43333 C 9.09 g/m*3 11.43 C 14.36667 km/h
1903 18-03-2017 15:00:00 11.75833 C 9.44 g/m*3 11.76 C 10.9 km/h
1904 18-03-2017 16:00:00 12.01667 C 9.58 g/m*3 12.02 C 12.5 km/h
1905 18-03-2017 17:00:00 12.2 C 9.63 g/m*3 12.2 C 12.89167 km/h
1906 18-03-2017 18:00:00 11.83333 C 9.68 g/m*3 11.83 C 10.475 km/h
1907 18-03-2017 19:00:00 11.23333 C 9.51 g/m*3 11.23 C 6.425 km/h
1908 18-03-2017 20:00:00 11.05833 C 9.54 g/m*3 11.06 C 7.8 km/h
1909 18-03-2017 21:00:00 10.86667 C 9.43 g/m*3 10.64 C 5.34167 km/h
1910 18-03-2017 22:00:00 10.725 C 9.35 g/m*3 10.3 C 6.03333 km/h
1911 18-03-2017 23:00:00 9.90833 C 8.88 g/m*3 9.91 C 2.40833 km/h
1912 19-03-2017 00:00:00 9.60833 C 8.78 g/m*3 9.61 C 1.06667 km/h
1913 19-03-2017 01:00:00 9.40833 C 8.69 g/m*3 9.41 C 0 km/h
1914 19-03-2017 02:00:00 9.375 C 8.67 g/m*3 9.38 C 0 km/h
1915 19-03-2017 03:00:00 10.09167 C 9.14 g/m*3 9.43 C 6.56667 km/h
1916 19-03-2017 04:00:00 10.45833 C 9.29 g/m*3 9.56 C 7.925 km/h
1917 19-03-2017 05:00:00 10.56667 C 9.33 g/m*3 9.55 C 8.60833 km/h
1918 19-03-2017 06:00:00 10.69167 C 9.33 g/m*3 10.07 C 6.84167 km/h
1919 19-03-2017 07:00:00 10.9 C 9.42 g/m*3 10.05 C 8.075 km/h
1920 19-03-2017 08:00:00 11.59167 C 9.52 g/m*3 11.59 C 12.23333 km/h
1921 19-03-2017 09:00:00 12.28333 C 9.66 g/m*3 12.28 C 19.175 km/h
1922 19-03-2017 10:00:00 12.24167 C 9.53 g/m*3 12.24 C 21.96667 km/h
1923 19-03-2017 11:00:00 12.71667 C 9.79 g/m*3 12.72 C 16.76667 km/h
1924 19-03-2017 12:00:00 13.86667 C 10.16 g/m*3 13.87 C 15.3 km/h
1925 19-03-2017 13:00:00 14.675 C 10.21 g/m*3 14.68 C 18.63333 km/h
Sensor: Nr:Datum:Temp:Abs-Feuchte:Windchill:Wind:
Aussen-T/F 1926 19-03-2017 14:00:00 15.25 C 10.12 g/m*3 15.25 C 13.3 km/h
1927 19-03-2017 15:00:00 15.23333 C 9.9 g/m*3 15.23 C 13.025 km/h
1928 19-03-2017 16:00:00 15.1 C 9.44 g/m*3 15.1 C 17.7 km/h
1929 19-03-2017 17:00:00 14.4 C 9.12 g/m*3 14.4 C 17.7 km/h
1930 19-03-2017 18:00:00 13.525 C 8.3 g/m*3 13.53 C 15.03333 km/h
1931 19-03-2017 19:00:00 12.86667 C 8 g/m*3 12.87 C 15.56667 km/h
1932 19-03-2017 20:00:00 12.225 C 8.08 g/m*3 12.23 C 10.34167 km/h
1933 19-03-2017 21:00:00 11.69167 C 8.11 g/m*3 11.69 C 4.95833 km/h
1934 19-03-2017 22:00:00 11.55 C 8.12 g/m*3 11.55 C 4.825 km/h
1935 19-03-2017 23:00:00 11.425 C 7.87 g/m*3 11.43 C 9.15 km/h
1936 20-03-2017 00:00:00 11.29167 C 7.7 g/m*3 11.29 C 11.025 km/h
1937 20-03-2017 01:00:00 11.175 C 7.69 g/m*3 11.18 C 12.23333 km/h
1938 20-03-2017 02:00:00 10.86667 C 7.68 g/m*3 9.06 C 14.36667 km/h
1939 20-03-2017 03:00:00 10.54167 C 7.72 g/m*3 8.67 C 14.23333 km/h
1940 20-03-2017 04:00:00 10.53333 C 7.69 g/m*3 8.37 C 16.76667 km/h
1941 20-03-2017 05:00:00 10.525 C 7.75 g/m*3 8.51 C 15.43333 km/h
1942 20-03-2017 06:00:00 10.4 C 7.73 g/m*3 8.25 C 16.36667 km/h
1943 20-03-2017 07:00:00 10.45833 C 7.76 g/m*3 7.92 C 20.39167 km/h
1944 20-03-2017 08:00:00 10.93333 C 7.88 g/m*3 8.88 C 16.63333 km/h
1945 20-03-2017 09:00:00 11.575 C 8.09 g/m*3 11.58 C 16.76667 km/h
1946 20-03-2017 10:00:00 12.55833 C 8.17 g/m*3 12.56 C 19.03333 km/h
1947 20-03-2017 11:00:00 13.16667 C 7.82 g/m*3 13.17 C 19.44167 km/h
1948 20-03-2017 12:00:00 13.8 C 7.97 g/m*3 13.8 C 22.925 km/h
1949 20-03-2017 13:00:00 13.48333 C 7.98 g/m*3 13.48 C 13.3 km/h
1950 20-03-2017 14:00:00 13.625 C 7.94 g/m*3 13.63 C 14.9 km/h
Sensor: Nr:Datum:Temp:Abs-Feuchte:Windchill:Wind:
Aussen-T/F 1951 20-03-2017 15:00:00 13.04167 C 7.92 g/m*3 13.04 C 14.9 km/h
1952 20-03-2017 16:00:00 12.55 C 7.88 g/m*3 12.55 C 13.7 km/h
1953 20-03-2017 17:00:00 12.08333 C 7.64 g/m*3 12.08 C 10.075 km/h
1954 20-03-2017 18:00:00 11.73333 C 7.42 g/m*3 11.73 C 14.63333 km/h
1955 20-03-2017 19:00:00 11.2 C 7.23 g/m*3 11.2 C 13.04167 km/h
1956 20-03-2017 20:00:00 10.80833 C 7.32 g/m*3 10.43 C 5.89167 km/h
1957 20-03-2017 21:00:00 10.75833 C 7.34 g/m*3 9.84 C 8.31667 km/h
1958 20-03-2017 22:00:00 10.75833 C 7.39 g/m*3 9.3 C 11.55 km/h
1959 20-03-2017 23:00:00 10.6 C 7.38 g/m*3 9.55 C 8.85833 km/h
1960 21-03-2017 00:00:00 10.7 C 7.46 g/m*3 9.11 C 12.35833 km/h
1961 21-03-2017 01:00:00 10.775 C 7.53 g/m*3 9.01 C 13.83333 km/h
1962 21-03-2017 02:00:00 10.875 C 7.66 g/m*3 8.99 C 15.03333 km/h
1963 21-03-2017 03:00:00 10.75833 C 7.92 g/m*3 9.37 C 11.03333 km/h
1964 21-03-2017 04:00:00 10.48333 C 8.15 g/m*3 9.08 C 10.76667 km/h
1965 21-03-2017 05:00:00 9.74167 C 8.33 g/m*3 9.17 C 6.03333 km/h
1966 21-03-2017 06:00:00 9.39167 C 8.34 g/m*3 9.39 C 4.55 km/h
1967 21-03-2017 07:00:00 9.3 C 8.4 g/m*3 9.3 C 3.61667 km/h
1968 21-03-2017 08:00:00 9.50833 C 8.55 g/m*3 9.51 C 4.95 km/h
1969 21-03-2017 09:00:00 10.21667 C 8.7 g/m*3 9.75 C 5.88333 km/h
1970 21-03-2017 10:00:00 11.3 C 8.7 g/m*3 11.3 C 9.54167 km/h
1971 21-03-2017 11:00:00 12.16667 C 8.06 g/m*3 12.17 C 12.76667 km/h
1972 21-03-2017 12:00:00 12.64167 C 7.39 g/m*3 12.64 C 15.96667 km/h
1973 21-03-2017 13:00:00 10.79167 C 7.65 g/m*3 9.42 C 11 km/h
1974 21-03-2017 14:00:00 9.475 C 8.17 g/m*3 9.48 C 1.33333 km/h
1975 21-03-2017 15:00:00 8.63333 C 7.41 g/m*3 7.86 C 6.15 km/h
Sensor: Nr:Datum:Temp:Abs-Feuchte:Windchill:Wind:
Aussen-T/F 1976 21-03-2017 16:00:00 8.40833 C 7.41 g/m*3 8.41 C 3.20833 km/h
1977 21-03-2017 17:00:00 8.88333 C 7.26 g/m*3 8.88 C 2.66667 km/h
1978 21-03-2017 18:00:00 8.56667 C 6.95 g/m*3 8.57 C 1.73333 km/h
1979 21-03-2017 19:00:00 7.75833 C 6.59 g/m*3 7.76 C 1.86667 km/h
1980 21-03-2017 20:00:00 7.31667 C 6.07 g/m*3 7.32 C 2.4 km/h
1981 21-03-2017 21:00:00 6.74167 C 6.09 g/m*3 6.74 C 1.2 km/h
1982 21-03-2017 22:00:00 5.8 C 6.23 g/m*3 5.8 C 0 km/h
1983 21-03-2017 23:00:00 4.76667 C 5.92 g/m*3 4.77 C 0 km/h
1984 22-03-2017 00:00:00 3.71667 C 5.6 g/m*3 3.72 C 0.8 km/h
1985 22-03-2017 01:00:00 2.71667 C 5.26 g/m*3 2.72 C 0 km/h
1986 22-03-2017 02:00:00 1.85833 C 5.03 g/m*3 1.86 C 0 km/h
1987 22-03-2017 03:00:00 1.45 C 4.96 g/m*3 1.45 C 0 km/h
1988 22-03-2017 04:00:00 1.04167 C 4.85 g/m*3 1.04 C 0 km/h
1989 22-03-2017 05:00:00 0.95 C 4.88 g/m*3 0.95 C 0 km/h
1990 22-03-2017 06:00:00 1.25 C 5.02 g/m*3 1.25 C 0.13333 km/h
1991 22-03-2017 07:00:00 1.53333 C 5.11 g/m*3 1.53 C 0 km/h
1992 22-03-2017 08:00:00 2.13333 C 5.36 g/m*3 2.13 C 0.66667 km/h
1993 22-03-2017 09:00:00 3.14167 C 5.76 g/m*3 3.14 C 1.33333 km/h
1994 22-03-2017 10:00:00 4.53333 C 6.17 g/m*3 4.53 C 1.46667 km/h
1995 22-03-2017 11:00:00 5.94167 C 6.62 g/m*3 5.94 C 1.6 km/h
1996 22-03-2017 12:00:00 7.575 C 6.85 g/m*3 7.58 C 3.73333 km/h
1997 22-03-2017 13:00:00 8.45833 C 6.99 g/m*3 7.81 C 5.63333 km/h
1998 22-03-2017 14:00:00 9.125 C 6.96 g/m*3 8.24 C 6.85833 km/h
1999 22-03-2017 15:00:00 9.84167 C 6.9 g/m*3 8.98 C 7.25 km/h
2000 22-03-2017 16:00:00 9.56667 C 6.76 g/m*3 9.57 C 4.56667 km/h
Sensor: Nr:Datum:Temp:Abs-Feuchte:Windchill:Wind:
Aussen-T/F 2001 22-03-2017 17:00:00 9 C 7.05 g/m*3 9 C 0 km/h
2002 22-03-2017 18:00:00 8.35833 C 7.05 g/m*3 8.36 C 0.53333 km/h
2003 22-03-2017 19:00:00 7.88333 C 6.97 g/m*3 7.88 C 0.26667 km/h
2004 22-03-2017 20:00:00 7.575 C 6.96 g/m*3 7.58 C 0.13333 km/h
2005 22-03-2017 21:00:00 7.325 C 6.92 g/m*3 7.33 C 0 km/h
2006 22-03-2017 22:00:00 7.21667 C 6.95 g/m*3 7.22 C 0 km/h
2007 22-03-2017 23:00:00 7.2 C 6.99 g/m*3 7.2 C 0 km/h
2008 23-03-2017 00:00:00 7.075 C 6.96 g/m*3 7.08 C 0 km/h
2009 23-03-2017 01:00:00 6.35 C 6.67 g/m*3 6.35 C 1.33333 km/h
2010 23-03-2017 02:00:00 5.775 C 6.52 g/m*3 5.78 C 0.53333 km/h
2011 23-03-2017 03:00:00 5.075 C 6.31 g/m*3 5.08 C 1.2 km/h
2012 23-03-2017 04:00:00 4.51667 C 6.13 g/m*3 4.52 C 3.2 km/h
2013 23-03-2017 05:00:00 3.625 C 5.81 g/m*3 3.63 C 0.8 km/h
2014 23-03-2017 06:00:00 2.875 C 5.57 g/m*3 2.88 C 0 km/h
2015 23-03-2017 07:00:00 3.9 C 6.05 g/m*3 3.9 C 0 km/h
2016 23-03-2017 08:00:00 5.10833 C 6.56 g/m*3 5.11 C 0.53333 km/h
2017 23-03-2017 09:00:00 6.675 C 7.11 g/m*3 6.68 C 2.675 km/h
2018 23-03-2017 10:00:00 8.45833 C 7.34 g/m*3 7.54 C 6.59167 km/h
2019 23-03-2017 11:00:00 9.225 C 7.4 g/m*3 7.51 C 11.16667 km/h
2020 23-03-2017 12:00:00 10.60833 C 7.76 g/m*3 9.51 C 9.14167 km/h
2021 23-03-2017 13:00:00 12.7 C 7.89 g/m*3 12.7 C 9.00833 km/h
2022 23-03-2017 14:00:00 14.35833 C 7.78 g/m*3 14.36 C 8.875 km/h
2023 23-03-2017 15:00:00 14.925 C 7.86 g/m*3 14.93 C 9.95 km/h
2024 23-03-2017 16:00:00 15.86667 C 7.83 g/m*3 15.87 C 8.6 km/h
2025 23-03-2017 17:00:00 16.23333 C 7.57 g/m*3 16.23 C 6.56667 km/h
Sensor: Nr:Datum:Temp:Abs-Feuchte:Windchill:Wind:
Aussen-T/F 2026 23-03-2017 18:00:00 14.45833 C 7.9 g/m*3 14.46 C 3.2 km/h
2027 23-03-2017 19:00:00 10.74167 C 7.37 g/m*3 10.36 C 5.86667 km/h
2028 23-03-2017 20:00:00 9.59167 C 7.35 g/m*3 8.93 C 6.26667 km/h
2029 23-03-2017 21:00:00 8.85 C 7.33 g/m*3 8.85 C 2.4 km/h
2030 23-03-2017 22:00:00 7.81667 C 7.14 g/m*3 7.82 C 1.46667 km/h
2031 23-03-2017 23:00:00 7.43333 C 7.15 g/m*3 7.43 C 1.2 km/h
2032 24-03-2017 00:00:00 6.875 C 6.97 g/m*3 6.88 C 1.33333 km/h
2033 24-03-2017 01:00:00 6.95833 C 7.11 g/m*3 6.96 C 0.13333 km/h
2034 24-03-2017 02:00:00 7 C 7.06 g/m*3 7 C 0.53333 km/h
2035 24-03-2017 03:00:00 7.55833 C 7.27 g/m*3 7.56 C 1.06667 km/h
2036 24-03-2017 04:00:00 8.10833 C 7.24 g/m*3 8.11 C 2.80833 km/h
2037 24-03-2017 05:00:00 8.21667 C 7.09 g/m*3 8.22 C 2 km/h
2038 24-03-2017 06:00:00 8.23333 C 6.98 g/m*3 8.23 C 4.94167 km/h
2039 24-03-2017 07:00:00 8.21667 C 6.86 g/m*3 6.27 C 11.28333 km/h
2040 24-03-2017 08:00:00 8.4 C 6.77 g/m*3 6.91 C 9.00833 km/h
2041 24-03-2017 09:00:00 8.91667 C 6.82 g/m*3 7.23 C 10.63333 km/h
2042 24-03-2017 10:00:00 9.53333 C 6.77 g/m*3 7.82 C 11.55833 km/h
2043 24-03-2017 11:00:00 10.25 C 6.85 g/m*3 8.94 C 9.94167 km/h
2044 24-03-2017 12:00:00 10.6 C 6.91 g/m*3 8.57 C 15.7 km/h
2045 24-03-2017 13:00:00 11.3 C 6.94 g/m*3 11.3 C 15.56667 km/h
2046 24-03-2017 14:00:00 12.325 C 6.91 g/m*3 12.33 C 15.7 km/h
2047 24-03-2017 15:00:00 13.65833 C 6.88 g/m*3 13.66 C 11.41667 km/h
2048 24-03-2017 16:00:00 14.56667 C 6.77 g/m*3 14.57 C 13.7 km/h
2049 24-03-2017 17:00:00 14.96667 C 6.82 g/m*3 14.97 C 12.35833 km/h
2050 24-03-2017 18:00:00 13.38333 C 6.92 g/m*3 13.38 C 3.88333 km/h
Sensor: Nr:Datum:Temp:Abs-Feuchte:Windchill:Wind:
Aussen-T/F 2051 24-03-2017 19:00:00 9.74167 C 6.82 g/m*3 9.74 C 2.4 km/h
2052 24-03-2017 20:00:00 8.35833 C 6.66 g/m*3 8.36 C 1.6 km/h
2053 24-03-2017 21:00:00 7.675 C 6.48 g/m*3 7.68 C 2.66667 km/h
2054 24-03-2017 22:00:00 6.83333 C 6.33 g/m*3 6.83 C 2.66667 km/h
2055 24-03-2017 23:00:00 6.19167 C 6.21 g/m*3 6.19 C 3.46667 km/h
2056 25-03-2017 00:00:00 5.63333 C 6.08 g/m*3 5.63 C 2.26667 km/h
2057 25-03-2017 01:00:00 5.15833 C 5.97 g/m*3 5.16 C 3.06667 km/h
2058 25-03-2017 02:00:00 4.70833 C 5.88 g/m*3 4.71 C 3.2 km/h
2059 25-03-2017 03:00:00 4.30833 C 5.76 g/m*3 4.31 C 1.86667 km/h
2060 25-03-2017 04:00:00 3.44167 C 5.52 g/m*3 3.44 C 0.8 km/h
2061 25-03-2017 05:00:00 3.1 C 5.46 g/m*3 3.1 C 0.13333 km/h
2062 25-03-2017 06:00:00 3.275 C 5.49 g/m*3 3.28 C 1.46667 km/h
2063 25-03-2017 07:00:00 3.36667 C 5.56 g/m*3 3.37 C 1.33333 km/h
2064 25-03-2017 08:00:00 4.06667 C 5.81 g/m*3 4.07 C 2.13333 km/h
2065 25-03-2017 09:00:00 5.95833 C 6.31 g/m*3 5.96 C 2.93333 km/h
2066 25-03-2017 10:00:00 9.475 C 6.66 g/m*3 8.41 C 7.91667 km/h
2067 25-03-2017 11:00:00 12.28333 C 6.22 g/m*3 12.28 C 9.425 km/h
2068 25-03-2017 12:00:00 13.9 C 4.91 g/m*3 13.9 C 20.38333 km/h
2069 25-03-2017 13:00:00 14.8 C 5.06 g/m*3 14.8 C 17.83333 km/h
2070 25-03-2017 14:00:00 15.39167 C 4.98 g/m*3 15.39 C 15.83333 km/h
2071 25-03-2017 15:00:00 15.98333 C 4.83 g/m*3 15.98 C 17.56667 km/h
2072 25-03-2017 16:00:00 16.44167 C 4.56 g/m*3 16.44 C 14.9 km/h
2073 25-03-2017 17:00:00 16.61667 C 4.82 g/m*3 16.62 C 12.75833 km/h
2074 25-03-2017 18:00:00 15.80833 C 4.9 g/m*3 15.81 C 4.425 km/h
2075 25-03-2017 19:00:00 11.54167 C 5.45 g/m*3 11.54 C 3.2 km/h
Sensor: Nr:Datum:Temp:Abs-Feuchte:Windchill:Wind:
Aussen-T/F 2076 25-03-2017 20:00:00 9.98333 C 5.3 g/m*3 9.98 C 4.53333 km/h
2077 25-03-2017 21:00:00 9.29167 C 5.33 g/m*3 8.93 C 5.06667 km/h
2078 25-03-2017 22:00:00 8.7 C 5.38 g/m*3 8.7 C 3.86667 km/h
2079 25-03-2017 23:00:00 7.90833 C 5.23 g/m*3 7.91 C 3.73333 km/h
2080 26-03-2017 00:00:00 7.04167 C 5.07 g/m*3 7.04 C 0.13333 km/h
2081 26-03-2017 01:00:00 6.40833 C 5.04 g/m*3 6.41 C 0 km/h
2082 26-03-2017 02:00:00 4.825 C 5.09 g/m*3 4.83 C 0 km/h
2083 26-03-2017 04:00:00 4.6 C 5.17 g/m*3 4.6 C 0 km/h
2084 26-03-2017 05:00:00 4.70833 C 5.24 g/m*3 4.71 C 0 km/h
2085 26-03-2017 06:00:00 3.71667 C 5.06 g/m*3 3.72 C 0 km/h
2086 26-03-2017 07:00:00 3.56667 C 5.19 g/m*3 3.57 C 0 km/h
2087 26-03-2017 08:00:00 3.79167 C 5.3 g/m*3 3.79 C 0 km/h
2088 26-03-2017 09:00:00 4.975 C 5.64 g/m*3 4.97 C 0 km/h
2089 26-03-2017 10:00:00 7.73333 C 5.87 g/m*3 7.73 C 0 km/h
2090 26-03-2017 11:00:00 10.18333 C 5.71 g/m*3 9.53 C 6.59167 km/h
2091 26-03-2017 12:00:00 11.85833 C 5.59 g/m*3 11.86 C 6.71667 km/h
2092 26-03-2017 13:00:00 13.05 C 5.62 g/m*3 13.05 C 10.06667 km/h
2093 26-03-2017 14:00:00 14.4 C 5.62 g/m*3 14.4 C 9.8 km/h
2094 26-03-2017 15:00:00 15.575 C 5.48 g/m*3 15.58 C 7.375 km/h
2095 26-03-2017 16:00:00 16.5 C 5.03 g/m*3 16.5 C 12.89167 km/h
2096 26-03-2017 17:00:00 16.99167 C 4.88 g/m*3 16.99 C 12.63333 km/h
2097 26-03-2017 18:00:00 16.775 C 5.28 g/m*3 16.77 C 6.99167 km/h
2098 26-03-2017 19:00:00 13.76667 C 6.24 g/m*3 13.77 C 3.33333 km/h
2099 26-03-2017 20:00:00 10.56667 C 6.21 g/m*3 10.02 C 6.4 km/h
2100 26-03-2017 21:00:00 9.1 C 6.33 g/m*3 9.1 C 0.53333 km/h
Sensor: Nr:Datum:Temp:Abs-Feuchte:Windchill:Wind:
Aussen-T/F 2101 26-03-2017 22:00:00 8.275 C 6.29 g/m*3 8.28 C 0 km/h
2102 26-03-2017 23:00:00 7.00833 C 6.12 g/m*3 7.01 C 0 km/h
2103 27-03-2017 00:00:00 5.775 C 5.89 g/m*3 5.78 C 0 km/h
2104 27-03-2017 01:00:00 4.94167 C 5.78 g/m*3 4.94 C 0 km/h
2105 27-03-2017 02:00:00 4.13333 C 5.58 g/m*3 4.13 C 0 km/h
2106 27-03-2017 03:00:00 3.55833 C 5.36 g/m*3 3.56 C 0 km/h
2107 27-03-2017 04:00:00 2.59167 C 5.12 g/m*3 2.59 C 0 km/h
2108 27-03-2017 05:00:00 2.075 C 4.98 g/m*3 2.08 C 0 km/h
2109 27-03-2017 06:00:00 1.5 C 4.88 g/m*3 1.5 C 0 km/h
2110 27-03-2017 07:00:00 1 C 4.79 g/m*3 1 C 0 km/h
2111 27-03-2017 08:00:00 1.15 C 4.88 g/m*3 1.15 C 0 km/h
2112 27-03-2017 09:00:00 1.975 C 5.16 g/m*3 1.98 C 0 km/h
2113 27-03-2017 10:00:00 4.225 C 5.71 g/m*3 4.22 C 0 km/h
2114 27-03-2017 11:00:00 8.68333 C 6 g/m*3 8.68 C 1.33333 km/h
2115 27-03-2017 12:00:00 12.31667 C 5.36 g/m*3 12.32 C 6.975 km/h
2116 27-03-2017 13:00:00 14.83333 C 4.21 g/m*3 14.83 C 12.89167 km/h
2117 27-03-2017 14:00:00 15.94167 C 4.04 g/m*3 15.94 C 12.36667 km/h
2118 27-03-2017 15:00:00 17.00833 C 4.01 g/m*3 17.01 C 11.7 km/h
2119 27-03-2017 16:00:00 18.15 C 4.07 g/m*3 18.15 C 9.13333 km/h
2120 27-03-2017 17:00:00 19.85 C 4.25 g/m*3 19.85 C 8.075 km/h
2121 27-03-2017 18:00:00 20.30833 C 4.69 g/m*3 20.31 C 5.75833 km/h
2122 27-03-2017 19:00:00 16.44167 C 5.73 g/m*3 16.44 C 4.93333 km/h
2123 27-03-2017 20:00:00 11.26667 C 5.48 g/m*3 11.27 C 6.975 km/h
2124 27-03-2017 21:00:00 9.775 C 5.64 g/m*3 9.78 C 2.54167 km/h
2125 27-03-2017 22:00:00 8.01667 C 5.45 g/m*3 8.02 C 0.53333 km/h
Sensor: Nr:Datum:Temp:Abs-Feuchte:Windchill:Wind:
Aussen-T/F 2126 27-03-2017 23:00:00 6.45 C 5.26 g/m*3 6.45 C 0 km/h
2127 28-03-2017 00:00:00 5.85833 C 5.29 g/m*3 5.86 C 0.4 km/h
2128 28-03-2017 01:00:00 4.51667 C 5.23 g/m*3 4.52 C 0.13333 km/h
2129 28-03-2017 02:00:00 4.05833 C 5.15 g/m*3 4.06 C 0 km/h
2130 28-03-2017 03:00:00 3.225 C 5.04 g/m*3 3.23 C 0 km/h
2131 28-03-2017 04:00:00 2.7 C 4.97 g/m*3 2.7 C 0 km/h
2132 28-03-2017 05:00:00 2.64167 C 4.97 g/m*3 2.64 C 0 km/h
2133 28-03-2017 06:00:00 2.33333 C 4.91 g/m*3 2.33 C 0 km/h
2134 28-03-2017 07:00:00 1.66667 C 4.84 g/m*3 1.67 C 0 km/h
2135 28-03-2017 08:00:00 2.20833 C 5.06 g/m*3 2.21 C 0 km/h
2136 28-03-2017 09:00:00 3.18333 C 5.37 g/m*3 3.18 C 0 km/h
2137 28-03-2017 10:00:00 5.45833 C 5.92 g/m*3 5.46 C 0 km/h
2138 28-03-2017 11:00:00 9.96667 C 6.87 g/m*3 9.97 C 0 km/h
2139 28-03-2017 12:00:00 14.90833 C 8.11 g/m*3 14.91 C 6.84167 km/h
2140 28-03-2017 13:00:00 18.45833 C 8.06 g/m*3 18.46 C 12.76667 km/h
2141 28-03-2017 14:00:00 20.06667 C 7.97 g/m*3 20.07 C 15.03333 km/h
2142 28-03-2017 15:00:00 20.96667 C 7.74 g/m*3 20.97 C 15.56667 km/h
2143 28-03-2017 16:00:00 21.39167 C 7.84 g/m*3 21.39 C 15.3 km/h
2144 28-03-2017 17:00:00 21.28333 C 8.01 g/m*3 21.28 C 10.475 km/h
2145 28-03-2017 18:00:00 19.925 C 8.17 g/m*3 19.93 C 6.56667 km/h
2146 28-03-2017 19:00:00 18.525 C 8.17 g/m*3 18.52 C 5.34167 km/h
2147 28-03-2017 20:00:00 15.18333 C 8.07 g/m*3 15.18 C 5.06667 km/h
2148 28-03-2017 21:00:00 13.76667 C 8.08 g/m*3 13.77 C 4 km/h
2149 28-03-2017 22:00:00 13.25 C 8.13 g/m*3 13.25 C 3.33333 km/h
2150 28-03-2017 23:00:00 12.175 C 7.94 g/m*3 12.18 C 1.86667 km/h
Sensor: Nr:Datum:Temp:Abs-Feuchte:Windchill:Wind:
Aussen-T/F 2151 29-03-2017 00:00:00 10.875 C 7.76 g/m*3 10.88 C 3.46667 km/h
2152 29-03-2017 01:00:00 10.06667 C 7.61 g/m*3 10.07 C 3.46667 km/h
2153 29-03-2017 02:00:00 10.34167 C 7.79 g/m*3 10.34 C 4.8 km/h
2154 29-03-2017 03:00:00 9.50833 C 7.55 g/m*3 9.51 C 2.53333 km/h
2155 29-03-2017 04:00:00 8.26667 C 7.36 g/m*3 8.27 C 1.73333 km/h
2156 29-03-2017 05:00:00 8.075 C 7.37 g/m*3 7.29 C 5.89167 km/h
2157 29-03-2017 06:00:00 7.875 C 7.39 g/m*3 7.88 C 4 km/h
2158 29-03-2017 07:00:00 7.91667 C 7.45 g/m*3 6.88 C 6.7 km/h
2159 29-03-2017 08:00:00 8.21667 C 7.63 g/m*3 7.66 C 5.20833 km/h
2160 29-03-2017 09:00:00 9.475 C 8.15 g/m*3 8.59 C 7.125 km/h
2161 29-03-2017 10:00:00 11.49167 C 8.54 g/m*3 11.49 C 8.86667 km/h
2162 29-03-2017 11:00:00 14.125 C 8.67 g/m*3 14.13 C 10.625 km/h
2163 29-03-2017 12:00:00 15.91667 C 8.4 g/m*3 15.92 C 13.83333 km/h
2164 29-03-2017 13:00:00 17.65 C 8.17 g/m*3 17.65 C 16.23333 km/h
2165 29-03-2017 14:00:00 17.95833 C 8.2 g/m*3 17.96 C 12.76667 km/h
2166 29-03-2017 15:00:00 17.88333 C 8.35 g/m*3 17.88 C 12.63333 km/h
2167 29-03-2017 16:00:00 17.66667 C 8.62 g/m*3 17.67 C 11.3 km/h
2168 29-03-2017 17:00:00 17.55833 C 8.99 g/m*3 17.56 C 11.15833 km/h
2169 29-03-2017 18:00:00 17.09167 C 8.98 g/m*3 17.09 C 11.025 km/h
2170 29-03-2017 19:00:00 16.20833 C 8.65 g/m*3 16.21 C 9.95 km/h
2171 29-03-2017 20:00:00 15.23333 C 8.43 g/m*3 15.23 C 6.16667 km/h
2172 29-03-2017 21:00:00 14.35833 C 8.57 g/m*3 14.36 C 2.66667 km/h
2173 29-03-2017 22:00:00 13.44167 C 8.66 g/m*3 13.44 C 1.875 km/h
2174 29-03-2017 23:00:00 12.175 C 8.54 g/m*3 12.18 C 2.4 km/h
2175 30-03-2017 00:00:00 12.08333 C 8.63 g/m*3 12.08 C 2.66667 km/h
Sensor: Nr:Datum:Temp:Abs-Feuchte:Windchill:Wind:
Aussen-T/F 2176 30-03-2017 01:00:00 12.25833 C 8.63 g/m*3 12.26 C 2.80833 km/h
2177 30-03-2017 02:00:00 12.35833 C 8.65 g/m*3 12.36 C 0.53333 km/h
2178 30-03-2017 03:00:00 11.75833 C 8.64 g/m*3 11.76 C 0 km/h
2179 30-03-2017 04:00:00 11.11667 C 8.44 g/m*3 11.12 C 0 km/h
2180 30-03-2017 05:00:00 10.175 C 8.18 g/m*3 10.18 C 0 km/h
2181 30-03-2017 06:00:00 9.05833 C 7.78 g/m*3 9.06 C 0 km/h
2182 30-03-2017 07:00:00 8 C 7.45 g/m*3 8 C 0 km/h
2183 30-03-2017 08:00:00 8.24167 C 7.75 g/m*3 8.24 C 0.26667 km/h
2184 30-03-2017 09:00:00 9.34167 C 8.23 g/m*3 9.34 C 0 km/h
2185 30-03-2017 10:00:00 11.33333 C 8.88 g/m*3 11.33 C 1.46667 km/h
2186 30-03-2017 11:00:00 15.29167 C 9.37 g/m*3 15.29 C 5.075 km/h
2187 30-03-2017 12:00:00 17.3 C 9.44 g/m*3 17.3 C 2.53333 km/h
2188 30-03-2017 13:00:00 18.58333 C 9.1 g/m*3 18.58 C 4.40833 km/h
2189 30-03-2017 14:00:00 19.63333 C 9.08 g/m*3 19.63 C 4.66667 km/h
2190 30-03-2017 15:00:00 20.775 C 9.16 g/m*3 20.78 C 8.19167 km/h
2191 30-03-2017 16:00:00 21.15 C 8.95 g/m*3 21.15 C 5.5 km/h
2192 30-03-2017 17:00:00 22.425 C 8.88 g/m*3 22.43 C 7.78333 km/h
2193 30-03-2017 18:00:00 22.20833 C 8.79 g/m*3 22.21 C 6.15833 km/h
2194 30-03-2017 19:00:00 18.63333 C 8.97 g/m*3 18.63 C 3.73333 km/h
2195 30-03-2017 20:00:00 14.83333 C 8.8 g/m*3 14.83 C 5.6 km/h
2196 30-03-2017 21:00:00 13.83333 C 8.84 g/m*3 13.83 C 4.8 km/h
2197 30-03-2017 22:00:00 12.66667 C 8.72 g/m*3 12.67 C 1.46667 km/h
2198 30-03-2017 23:00:00 10.98333 C 8.34 g/m*3 10.98 C 0 km/h
2199 31-03-2017 00:00:00 9.66667 C 7.98 g/m*3 9.67 C 0 km/h
2200 31-03-2017 01:00:00 8.75833 C 7.78 g/m*3 8.76 C 0 km/h
Sensor: Nr:Datum:Temp:Abs-Feuchte:Windchill:Wind:
Aussen-T/F 2201 31-03-2017 02:00:00 8.11667 C 7.59 g/m*3 8.12 C 0 km/h
2202 31-03-2017 03:00:00 7.34167 C 7.32 g/m*3 7.34 C 0 km/h
2203 31-03-2017 04:00:00 7.03333 C 7.24 g/m*3 7.03 C 0 km/h
2204 31-03-2017 05:00:00 6.4 C 7 g/m*3 6.4 C 0 km/h
2205 31-03-2017 06:00:00 6.075 C 6.9 g/m*3 6.08 C 0 km/h
2206 31-03-2017 07:00:00 5.60833 C 6.71 g/m*3 5.61 C 0.13333 km/h
2207 31-03-2017 08:00:00 5.975 C 6.92 g/m*3 5.98 C 0.26667 km/h
2208 31-03-2017 09:00:00 7.28333 C 7.58 g/m*3 7.28 C 0 km/h
2209 31-03-2017 10:00:00 9.95 C 9 g/m*3 9.95 C 0.13333 km/h
2210 31-03-2017 11:00:00 15.3 C 9.53 g/m*3 15.3 C 4.00833 km/h
2211 31-03-2017 12:00:00 19.78333 C 7.62 g/m*3 19.78 C 14.5 km/h
2212 31-03-2017 13:00:00 20.50833 C 7.31 g/m*3 20.51 C 16.23333 km/h
2213 31-03-2017 14:00:00 21.55 C 7.11 g/m*3 21.55 C 12.625 km/h
2214 31-03-2017 15:00:00 22.36667 C 6.94 g/m*3 22.37 C 11.15833 km/h
2215 31-03-2017 16:00:00 22.61667 C 6.62 g/m*3 22.62 C 9.55 km/h
2216 31-03-2017 17:00:00 22.16667 C 6.48 g/m*3 22.17 C 9.40833 km/h
2217 31-03-2017 18:00:00 22.56667 C 6.98 g/m*3 22.57 C 8.19167 km/h
2218 31-03-2017 19:00:00 20.23333 C 8.03 g/m*3 20.23 C 3.33333 km/h
2219 31-03-2017 20:00:00 16.71667 C 8.06 g/m*3 16.72 C 4.93333 km/h
2220 31-03-2017 21:00:00 14.83333 C 8.04 g/m*3 14.83 C 2.93333 km/h
2221 31-03-2017 22:00:00 14.31667 C 8.16 g/m*3 14.32 C 3.46667 km/h
2222 31-03-2017 23:00:00 13.60833 C 8.23 g/m*3 13.61 C 0.66667 km/h
2223 01-04-2017 00:00:00 12.55 C 8.05 g/m*3 12.55 C 0 km/h
2224 01-04-2017 01:00:00 11.96667 C 7.97 g/m*3 11.97 C 0.53333 km/h
2225 01-04-2017 02:00:00 10.90833 C 7.78 g/m*3 10.91 C 0.4 km/h
Sensor: Nr:Datum:Temp:Abs-Feuchte:Windchill:Wind:
Aussen-T/F 2226 01-04-2017 03:00:00 9.83333 C 7.66 g/m*3 9.83 C 0.4 km/h
2227 01-04-2017 04:00:00 9.525 C 7.65 g/m*3 9.53 C 0 km/h
2228 01-04-2017 05:00:00 8.85 C 7.54 g/m*3 8.85 C 0 km/h
2229 01-04-2017 06:00:00 8.43333 C 7.53 g/m*3 8.43 C 0.26667 km/h
2230 01-04-2017 07:00:00 8.425 C 7.61 g/m*3 8.43 C 0.13333 km/h
2231 01-04-2017 08:00:00 9.53333 C 7.95 g/m*3 9.53 C 1.06667 km/h
2232 01-04-2017 09:00:00 10.98333 C 8.32 g/m*3 10.98 C 1.2 km/h
2233 01-04-2017 10:00:00 12.48333 C 8.78 g/m*3 12.48 C 1.46667 km/h
2234 01-04-2017 11:00:00 14.83333 C 9.37 g/m*3 14.83 C 3.74167 km/h
2235 01-04-2017 12:00:00 16.525 C 9.86 g/m*3 16.52 C 7.65 km/h
2236 01-04-2017 13:00:00 17.65833 C 9.47 g/m*3 17.66 C 8.88333 km/h
2237 01-04-2017 14:00:00 18.84167 C 8.62 g/m*3 18.84 C 8.75 km/h
2238 01-04-2017 15:00:00 19.51667 C 8.13 g/m*3 19.52 C 11.29167 km/h
2239 01-04-2017 16:00:00 19.1 C 8.06 g/m*3 19.1 C 9.01667 km/h
2240 01-04-2017 17:00:00 18.45 C 8.39 g/m*3 18.45 C 10.9 km/h
2241 01-04-2017 18:00:00 17.7 C 8.54 g/m*3 17.7 C 10.49167 km/h
2242 01-04-2017 19:00:00 16.43333 C 8.57 g/m*3 16.43 C 7.65833 km/h
2243 01-04-2017 20:00:00 15.04167 C 8.57 g/m*3 15.04 C 6.95833 km/h
2244 01-04-2017 21:00:00 14.18333 C 8.33 g/m*3 14.18 C 5.76667 km/h
2245 01-04-2017 22:00:00 12.58333 C 8.15 g/m*3 12.58 C 1.2 km/h
2246 01-04-2017 23:00:00 11.99167 C 8.81 g/m*3 11.99 C 4.01667 km/h
2247 02-04-2017 00:00:00 11.75 C 8.5 g/m*3 11.75 C 4.825 km/h
2248 02-04-2017 01:00:00 10.94167 C 8.13 g/m*3 10.94 C 1.86667 km/h
2249 02-04-2017 02:00:00 9.225 C 7.71 g/m*3 9.23 C 2.8 km/h
2250 02-04-2017 03:00:00 8.05833 C 7.3 g/m*3 8.06 C 0.13333 km/h
Sensor: Nr:Datum:Temp:Abs-Feuchte:Windchill:Wind:
Aussen-T/F 2251 02-04-2017 04:00:00 7.00833 C 7.02 g/m*3 7.01 C 0.53333 km/h
2252 02-04-2017 05:00:00 6.725 C 7.01 g/m*3 6.73 C 1.33333 km/h
2253 02-04-2017 06:00:00 6.08333 C 6.76 g/m*3 6.08 C 0.53333 km/h
2254 02-04-2017 07:00:00 5.38333 C 6.5 g/m*3 5.38 C 0 km/h
2255 02-04-2017 08:00:00 6.65833 C 7.17 g/m*3 6.66 C 2.8 km/h
2256 02-04-2017 09:00:00 7.65833 C 7.47 g/m*3 7.66 C 3.2 km/h
2257 02-04-2017 10:00:00 9.36667 C 8.03 g/m*3 9.37 C 1.6 km/h
2258 02-04-2017 11:00:00 12.36667 C 8.66 g/m*3 12.37 C 5.35833 km/h
2259 02-04-2017 12:00:00 14.24167 C 8.5 g/m*3 14.24 C 5.34167 km/h
2260 02-04-2017 13:00:00 15.45833 C 8.14 g/m*3 15.46 C 8.60833 km/h
2261 02-04-2017 14:00:00 16.64167 C 8.08 g/m*3 16.64 C 9.4 km/h
2262 02-04-2017 15:00:00 17.44167 C 7.58 g/m*3 17.44 C 10.625 km/h
2263 02-04-2017 16:00:00 18.14167 C 7.07 g/m*3 18.14 C 11.55833 km/h
2264 02-04-2017 17:00:00 18.03333 C 7.3 g/m*3 18.03 C 9.825 km/h
2265 02-04-2017 18:00:00 18.075 C 7.37 g/m*3 18.08 C 9.69167 km/h
2266 02-04-2017 19:00:00 16.88333 C 7.3 g/m*3 16.88 C 4.95833 km/h
2267 02-04-2017 20:00:00 13.45 C 7.39 g/m*3 13.45 C 2.66667 km/h
2268 02-04-2017 21:00:00 11.725 C 7.45 g/m*3 11.73 C 4.66667 km/h
2269 02-04-2017 22:00:00 10.76667 C 7.4 g/m*3 10.77 C 1.6 km/h
2270 02-04-2017 23:00:00 9.13333 C 7.15 g/m*3 9.13 C 0 km/h
2271 03-04-2017 00:00:00 8.09167 C 6.88 g/m*3 8.09 C 0 km/h
2272 03-04-2017 01:00:00 7.275 C 6.74 g/m*3 7.28 C 0 km/h
2273 03-04-2017 02:00:00 6.46667 C 6.56 g/m*3 6.47 C 0 km/h
2274 03-04-2017 03:00:00 5.76667 C 6.44 g/m*3 5.77 C 0 km/h
2275 03-04-2017 04:00:00 5.21667 C 6.3 g/m*3 5.22 C 0 km/h
Sensor: Nr:Datum:Temp:Abs-Feuchte:Windchill:Wind:
Aussen-T/F 2276 03-04-2017 05:00:00 4.75 C 6.16 g/m*3 4.75 C 0 km/h
2277 03-04-2017 06:00:00 4.36667 C 6.07 g/m*3 4.37 C 0 km/h
2278 03-04-2017 07:00:00 4.20833 C 6.05 g/m*3 4.21 C 0 km/h
2279 03-04-2017 08:00:00 4.975 C 6.44 g/m*3 4.97 C 0 km/h
2280 03-04-2017 09:00:00 6.125 C 6.95 g/m*3 6.13 C 0.26667 km/h
2281 03-04-2017 10:00:00 8.5 C 7.99 g/m*3 8.5 C 0.4 km/h
2282 03-04-2017 11:00:00 11.375 C 8.69 g/m*3 11.38 C 3.475 km/h
2283 03-04-2017 12:00:00 13.68333 C 8.76 g/m*3 13.68 C 7.25833 km/h
2284 03-04-2017 13:00:00 14.85833 C 8.5 g/m*3 14.86 C 9.80833 km/h
2285 03-04-2017 14:00:00 15.89167 C 7.97 g/m*3 15.89 C 11.03333 km/h
2286 03-04-2017 15:00:00 16.775 C 7.4 g/m*3 16.77 C 9.28333 km/h
2287 03-04-2017 16:00:00 17.55833 C 7.49 g/m*3 17.56 C 9.55833 km/h
2288 03-04-2017 17:00:00 18.15833 C 7.11 g/m*3 18.16 C 10.5 km/h
2289 03-04-2017 18:00:00 17.79167 C 6.95 g/m*3 17.79 C 10.9 km/h
2290 03-04-2017 19:00:00 16.60833 C 7.24 g/m*3 16.61 C 6.85 km/h
2291 03-04-2017 20:00:00 12.53333 C 7.36 g/m*3 12.53 C 3.73333 km/h
2292 03-04-2017 21:00:00 10.79167 C 7.37 g/m*3 10.79 C 4.13333 km/h
2293 03-04-2017 22:00:00 10.35 C 7.3 g/m*3 10.35 C 3.2 km/h
2294 03-04-2017 23:00:00 9.225 C 7.12 g/m*3 9.23 C 3.86667 km/h
2295 04-04-2017 00:00:00 7.49167 C 6.71 g/m*3 7.49 C 0.26667 km/h
2296 04-04-2017 01:00:00 6.00833 C 6.4 g/m*3 6.01 C 0.13333 km/h
2297 04-04-2017 02:00:00 5.05833 C 6.14 g/m*3 5.06 C 0 km/h
2298 04-04-2017 03:00:00 4.425 C 6.01 g/m*3 4.43 C 0 km/h
2299 04-04-2017 04:00:00 3.83333 C 5.84 g/m*3 3.83 C 0 km/h
2300 04-04-2017 05:00:00 3.38333 C 5.71 g/m*3 3.38 C 0 km/h
Sensor: Nr:Datum:Temp:Abs-Feuchte:Windchill:Wind:
Aussen-T/F 2301 04-04-2017 06:00:00 2.89167 C 5.55 g/m*3 2.89 C 0 km/h
2302 04-04-2017 07:00:00 2.84167 C 5.56 g/m*3 2.84 C 0.26667 km/h
2303 04-04-2017 08:00:00 3.28333 C 5.76 g/m*3 3.28 C 0.13333 km/h
2304 04-04-2017 09:00:00 4.3 C 6.19 g/m*3 4.3 C 0 km/h
2305 04-04-2017 10:00:00 6.19167 C 7.02 g/m*3 6.19 C 0 km/h
2306 04-04-2017 11:00:00 9.23333 C 7.67 g/m*3 9.23 C 1.06667 km/h
2307 04-04-2017 12:00:00 12.225 C 7.52 g/m*3 12.23 C 5.75 km/h
2308 04-04-2017 13:00:00 13.88333 C 7.14 g/m*3 13.88 C 6.84167 km/h
2309 04-04-2017 14:00:00 15.2 C 6.74 g/m*3 15.2 C 7.79167 km/h
2310 04-04-2017 15:00:00 16.04167 C 6.41 g/m*3 16.04 C 8.59167 km/h
2311 04-04-2017 16:00:00 16.425 C 6.23 g/m*3 16.43 C 7.51667 km/h
2312 04-04-2017 17:00:00 17.24167 C 5.9 g/m*3 17.24 C 11.41667 km/h
2313 04-04-2017 18:00:00 17.08333 C 6.23 g/m*3 17.08 C 9.28333 km/h
2314 04-04-2017 19:00:00 15.1 C 6.32 g/m*3 15.1 C 5.08333 km/h
2315 04-04-2017 20:00:00 12.71667 C 6.33 g/m*3 12.72 C 4.15 km/h
2316 04-04-2017 21:00:00 10.825 C 6.39 g/m*3 10.83 C 3.6 km/h
2317 04-04-2017 22:00:00 9.19167 C 6.23 g/m*3 9.19 C 4.8 km/h
2318 04-04-2017 23:00:00 8.46667 C 6.03 g/m*3 8.47 C 3.2 km/h
2319 05-04-2017 00:00:00 7.86667 C 5.96 g/m*3 7.87 C 1.33333 km/h
2320 05-04-2017 01:00:00 6.40833 C 5.77 g/m*3 6.41 C 0 km/h
2321 05-04-2017 02:00:00 5.225 C 5.61 g/m*3 5.23 C 0 km/h
2322 05-04-2017 03:00:00 4.475 C 5.55 g/m*3 4.47 C 0.4 km/h
2323 05-04-2017 04:00:00 4.1 C 5.53 g/m*3 4.1 C 0.53333 km/h
2324 05-04-2017 05:00:00 3.60833 C 5.46 g/m*3 3.61 C 0 km/h
2325 05-04-2017 06:00:00 3.05833 C 5.34 g/m*3 3.06 C 0 km/h
Sensor: Nr:Datum:Temp:Abs-Feuchte:Windchill:Wind:
Aussen-T/F 2326 05-04-2017 07:00:00 3.09167 C 5.45 g/m*3 3.09 C 0.26667 km/h
2327 05-04-2017 08:00:00 3.78333 C 5.7 g/m*3 3.78 C 0.93333 km/h
2328 05-04-2017 09:00:00 5.15 C 6.18 g/m*3 5.15 C 0.26667 km/h
2329 05-04-2017 10:00:00 7.78333 C 6.76 g/m*3 7.78 C 2.675 km/h
2330 05-04-2017 11:00:00 11.375 C 7.26 g/m*3 11.38 C 6.70833 km/h
2331 05-04-2017 12:00:00 13.64167 C 7.34 g/m*3 13.64 C 9.95 km/h
2332 05-04-2017 13:00:00 13.70833 C 7.72 g/m*3 13.71 C 14.76667 km/h
2333 05-04-2017 14:00:00 12.60833 C 8 g/m*3 12.61 C 17.43333 km/h
2334 05-04-2017 15:00:00 12.50833 C 7.87 g/m*3 12.51 C 16.5 km/h
2335 05-04-2017 16:00:00 12.55 C 7.78 g/m*3 12.55 C 10.88333 km/h
2336 05-04-2017 17:00:00 12.84167 C 7.73 g/m*3 12.84 C 11.41667 km/h
2337 05-04-2017 18:00:00 12.575 C 7.57 g/m*3 12.58 C 12.63333 km/h
2338 05-04-2017 19:00:00 12.2 C 7.39 g/m*3 12.2 C 9.81667 km/h
2339 05-04-2017 20:00:00 11.21667 C 6.82 g/m*3 11.22 C 5.61667 km/h
2340 05-04-2017 21:00:00 11.15 C 6.68 g/m*3 11.15 C 12.76667 km/h
2341 05-04-2017 22:00:00 10.425 C 6.45 g/m*3 9 C 10.875 km/h
2342 05-04-2017 23:00:00 9.58333 C 6.32 g/m*3 8.29 C 9.13333 km/h
2343 06-04-2017 00:00:00 9.175 C 6.31 g/m*3 7.34 C 11.825 km/h
2344 06-04-2017 01:00:00 8.61667 C 6.15 g/m*3 7.43 C 7.8 km/h
2345 06-04-2017 02:00:00 7.38333 C 6.02 g/m*3 6.58 C 5.625 km/h
2346 06-04-2017 03:00:00 6.34167 C 6.11 g/m*3 6.34 C 3.6 km/h
2347 06-04-2017 04:00:00 5.80833 C 6.13 g/m*3 5.81 C 1.875 km/h
2348 06-04-2017 05:00:00 6.23333 C 6.49 g/m*3 6.23 C 2.55 km/h
2349 06-04-2017 06:00:00 6.375 C 6.48 g/m*3 5.48 C 5.475 km/h
2350 06-04-2017 07:00:00 6.45 C 6.43 g/m*3 6.45 C 3.6 km/h
Sensor: Nr:Datum:Temp:Abs-Feuchte:Windchill:Wind:
Aussen-T/F 2351 06-04-2017 08:00:00 6.61667 C 6.43 g/m*3 6.62 C 4.94167 km/h
2352 06-04-2017 09:00:00 7.19167 C 6.51 g/m*3 5.45 C 9.13333 km/h
2353 06-04-2017 10:00:00 7.975 C 6.32 g/m*3 6.27 C 9.68333 km/h
2354 06-04-2017 11:00:00 8.95833 C 6.37 g/m*3 7.55 C 9.14167 km/h
2355 06-04-2017 12:00:00 9.44167 C 6.26 g/m*3 7.66 C 11.83333 km/h
2356 06-04-2017 13:00:00 10.075 C 6.25 g/m*3 8.3 C 12.76667 km/h
2357 06-04-2017 14:00:00 10.91667 C 6.19 g/m*3 9.29 C 13.03333 km/h
2358 06-04-2017 15:00:00 11.36667 C 6.06 g/m*3 11.37 C 12.76667 km/h
2359 06-04-2017 16:00:00 11.80833 C 5.91 g/m*3 11.81 C 12.36667 km/h
2360 06-04-2017 17:00:00 12.275 C 6.04 g/m*3 12.28 C 10.88333 km/h
2361 06-04-2017 18:00:00 11.80833 C 6.08 g/m*3 11.81 C 11.96667 km/h
2362 06-04-2017 19:00:00 11.05 C 6.44 g/m*3 11.05 C 10.88333 km/h
2363 06-04-2017 20:00:00 8.94167 C 6.43 g/m*3 8.94 C 4.15833 km/h
2364 06-04-2017 21:00:00 7.70833 C 6.44 g/m*3 7.71 C 2.26667 km/h
2365 06-04-2017 22:00:00 7.21667 C 6.49 g/m*3 7.22 C 2.8 km/h
2366 06-04-2017 23:00:00 7.93333 C 6.57 g/m*3 7.93 C 3.60833 km/h
2367 07-04-2017 00:00:00 7.675 C 6.6 g/m*3 7.68 C 0.66667 km/h
2368 07-04-2017 01:00:00 7.5 C 6.67 g/m*3 7.5 C 0.4 km/h
2369 07-04-2017 06:00:00 3.5 C 5.64 g/m*3 3.5 C 1.44 km/h
2370 07-04-2017 07:00:00 3.43636 C 5.67 g/m*3 3.44 C 2.48182 km/h
2371 07-04-2017 11:00:00 10.65 C 7.17 g/m*3 10.32 C 5.625 km/h
2372 07-04-2017 12:00:00 11.40833 C 7.15 g/m*3 11.41 C 7.66667 km/h
2373 07-04-2017 13:00:00 12.50833 C 7.32 g/m*3 12.51 C 12.225 km/h
2374 07-04-2017 14:00:00 13.50833 C 7.5 g/m*3 13.51 C 12.63333 km/h
2375 07-04-2017 15:00:00 13.96667 C 7.46 g/m*3 13.97 C 13.96667 km/h
Sensor: Nr:Datum:Temp:Abs-Feuchte:Windchill:Wind:
Aussen-T/F 2376 07-04-2017 16:00:00 14.6 C 7.53 g/m*3 14.6 C 14.1 km/h
2377 07-04-2017 17:00:00 15.1 C 7.53 g/m*3 15.1 C 11.83333 km/h
2378 07-04-2017 18:00:00 15.04167 C 7.54 g/m*3 15.04 C 12.89167 km/h
2379 07-04-2017 19:00:00 13.49167 C 7.43 g/m*3 13.49 C 8.05833 km/h
2380 07-04-2017 20:00:00 12.275 C 7.5 g/m*3 12.28 C 0.66667 km/h
2381 07-04-2017 21:00:00 11.41667 C 7.54 g/m*3 11.42 C 0 km/h
2382 07-04-2017 22:00:00 11.1 C 7.55 g/m*3 11.1 C 0 km/h
2383 08-04-2017 09:00:00 9.5 C 7.64 g/m*3 9.08 C 5.34444 km/h
2384 08-04-2017 10:00:00 11.34167 C 7.93 g/m*3 11.34 C 3.33333 km/h
2385 08-04-2017 11:00:00 13.00833 C 7.98 g/m*3 13.01 C 3.2 km/h
2386 08-04-2017 12:00:00 14.25833 C 8.07 g/m*3 14.26 C 4.55 km/h
2387 08-04-2017 13:00:00 14.975 C 7.84 g/m*3 14.98 C 4.68333 km/h
2388 08-04-2017 14:00:00 16.275 C 7.97 g/m*3 16.27 C 6.98333 km/h
2389 08-04-2017 15:00:00 17.075 C 8.04 g/m*3 17.08 C 8.2 km/h
2390 08-04-2017 16:00:00 18.45833 C 8.05 g/m*3 18.46 C 6.03333 km/h
2391 08-04-2017 17:00:00 19.28333 C 7.73 g/m*3 19.28 C 7.53333 km/h
2392 08-04-2017 18:00:00 19.31667 C 7.79 g/m*3 19.32 C 6.98333 km/h
2393 08-04-2017 19:00:00 18.08333 C 7.85 g/m*3 18.08 C 4 km/h
2394 08-04-2017 20:00:00 13.75833 C 7.77 g/m*3 13.76 C 4.66667 km/h
2395 08-04-2017 21:00:00 12.30833 C 7.68 g/m*3 12.31 C 3.6 km/h
2396 08-04-2017 22:00:00 11.08333 C 7.54 g/m*3 11.08 C 2.13333 km/h
2397 08-04-2017 23:00:00 8.98333 C 7.24 g/m*3 8.98 C 0.26667 km/h
2398 09-04-2017 00:00:00 7.775 C 7.03 g/m*3 7.78 C 0 km/h
2399 09-04-2017 01:00:00 6.83333 C 6.8 g/m*3 6.83 C 0 km/h
2400 09-04-2017 02:00:00 6.13333 C 6.64 g/m*3 6.13 C 0 km/h
Sensor: Nr:Datum:Temp:Abs-Feuchte:Windchill:Wind:
Aussen-T/F 2401 09-04-2017 03:00:00 5.375 C 6.4 g/m*3 5.38 C 0 km/h
2402 09-04-2017 04:00:00 4.99167 C 6.32 g/m*3 4.99 C 0 km/h
2403 09-04-2017 05:00:00 4.28333 C 6.05 g/m*3 4.28 C 0 km/h
2404 09-04-2017 06:00:00 3.79167 C 5.89 g/m*3 3.79 C 0 km/h
2405 09-04-2017 07:00:00 3.55 C 5.82 g/m*3 3.55 C 0 km/h
2406 09-04-2017 08:00:00 4.28333 C 6.16 g/m*3 4.28 C 0 km/h
2407 09-04-2017 09:00:00 5.58333 C 6.78 g/m*3 5.58 C 0 km/h
2408 09-04-2017 10:00:00 7.725 C 7.78 g/m*3 7.73 C 0 km/h
2409 09-04-2017 11:00:00 11.425 C 8.89 g/m*3 11.43 C 0 km/h
2410 09-04-2017 12:00:00 15.45833 C 9.13 g/m*3 15.46 C 2.81667 km/h
2411 09-04-2017 13:00:00 18.18333 C 8.62 g/m*3 18.18 C 5.75833 km/h
2412 09-04-2017 14:00:00 19.85 C 8.41 g/m*3 19.85 C 6.83333 km/h
2413 09-04-2017 15:00:00 21.29167 C 8.21 g/m*3 21.29 C 7.10833 km/h
2414 09-04-2017 16:00:00 22.93333 C 8.12 g/m*3 22.93 C 5.5 km/h
2415 09-04-2017 17:00:00 24.40833 C 7.9 g/m*3 24.41 C 5.61667 km/h
2416 09-04-2017 18:00:00 25.16667 C 8.09 g/m*3 25.17 C 3.46667 km/h
2417 09-04-2017 19:00:00 22.275 C 8.86 g/m*3 22.28 C 2.53333 km/h
2418 09-04-2017 20:00:00 17.69167 C 8.13 g/m*3 17.69 C 5.73333 km/h
2419 09-04-2017 21:00:00 15.23333 C 8.37 g/m*3 15.23 C 2.93333 km/h
2420 09-04-2017 22:00:00 13.19167 C 8.28 g/m*3 13.19 C 1.06667 km/h
2421 09-04-2017 23:00:00 11.65833 C 7.91 g/m*3 11.66 C 0 km/h
2422 10-04-2017 00:00:00 10.5 C 7.67 g/m*3 10.5 C 0.66667 km/h
2423 10-04-2017 01:00:00 9.25833 C 7.41 g/m*3 9.26 C 0 km/h
2424 10-04-2017 02:00:00 8.26667 C 7.23 g/m*3 8.27 C 0 km/h
2425 10-04-2017 03:00:00 7.76667 C 7.19 g/m*3 7.77 C 0.66667 km/h
Sensor: Nr:Datum:Temp:Abs-Feuchte:Windchill:Wind:
Aussen-T/F 2426 10-04-2017 04:00:00 7.15833 C 6.98 g/m*3 7.16 C 0.66667 km/h
2427 10-04-2017 05:00:00 7.175 C 7.05 g/m*3 7.18 C 1.46667 km/h
2428 10-04-2017 06:00:00 6.825 C 6.82 g/m*3 6.83 C 1.86667 km/h
2429 10-04-2017 07:00:00 6.26667 C 6.76 g/m*3 6.27 C 0 km/h
2430 10-04-2017 08:00:00 7.26667 C 7.23 g/m*3 7.27 C 0.26667 km/h
2431 10-04-2017 09:00:00 9.81667 C 8.21 g/m*3 9.82 C 0.8 km/h
2432 10-04-2017 10:00:00 12.95 C 8.64 g/m*3 12.95 C 8.05 km/h
2433 10-04-2017 11:00:00 14.45833 C 8.93 g/m*3 14.46 C 15.16667 km/h
2434 10-04-2017 12:00:00 14.75 C 8.78 g/m*3 14.75 C 15.83333 km/h
2435 10-04-2017 13:00:00 14.49167 C 8.69 g/m*3 14.49 C 14.9 km/h
2436 10-04-2017 14:00:00 14.3 C 8.2 g/m*3 14.3 C 14.9 km/h
2437 10-04-2017 15:00:00 14.83333 C 8.04 g/m*3 14.83 C 15.3 km/h
2438 10-04-2017 16:00:00 14.25 C 7.8 g/m*3 14.25 C 17.3 km/h
2439 10-04-2017 17:00:00 13.84167 C 7.64 g/m*3 13.84 C 11.96667 km/h
2440 10-04-2017 18:00:00 13.56667 C 7.6 g/m*3 13.57 C 7.65 km/h
2441 10-04-2017 19:00:00 13.55833 C 7.24 g/m*3 13.56 C 5.89167 km/h
2442 10-04-2017 20:00:00 12.15833 C 6.69 g/m*3 12.16 C 6.30833 km/h
2443 10-04-2017 21:00:00 10.75 C 6.31 g/m*3 10.4 C 5.75833 km/h
2444 10-04-2017 22:00:00 9.74167 C 6.15 g/m*3 9.74 C 4.15 km/h
2445 10-04-2017 23:00:00 8.60833 C 6.15 g/m*3 8.61 C 3.60833 km/h
2446 11-04-2017 00:00:00 8.475 C 6.38 g/m*3 7.87 C 5.49167 km/h
2447 11-04-2017 01:00:00 8.74167 C 6.4 g/m*3 7.81 C 6.825 km/h
2448 11-04-2017 02:00:00 8.275 C 6.33 g/m*3 7.26 C 6.84167 km/h
2449 11-04-2017 03:00:00 7.64167 C 6.35 g/m*3 6.71 C 6.15833 km/h
2450 11-04-2017 04:00:00 7.43333 C 6.37 g/m*3 7.43 C 4.80833 km/h
Sensor: Nr:Datum:Temp:Abs-Feuchte:Windchill:Wind:
Aussen-T/F 2451 11-04-2017 05:00:00 7.25833 C 6.41 g/m*3 7.26 C 3.6 km/h
2452 11-04-2017 06:00:00 7.025 C 6.42 g/m*3 7.03 C 3.46667 km/h
2453 11-04-2017 07:00:00 6.7 C 6.43 g/m*3 5.98 C 5.09167 km/h
2454 11-04-2017 08:00:00 7.125 C 6.58 g/m*3 7.13 C 3.46667 km/h
2455 11-04-2017 09:00:00 7.94167 C 6.66 g/m*3 6.54 C 8.2 km/h
2456 11-04-2017 10:00:00 8.4 C 6.35 g/m*3 7.17 C 7.8 km/h
2457 11-04-2017 11:00:00 9.65 C 6.14 g/m*3 8.73 C 7.39167 km/h
2458 11-04-2017 12:00:00 10.475 C 5.98 g/m*3 10.19 C 5.35 km/h
2459 11-04-2017 13:00:00 11.20833 C 6 g/m*3 11.21 C 6.56667 km/h
2460 11-04-2017 14:00:00 11.70833 C 5.75 g/m*3 11.71 C 6.025 km/h
2461 11-04-2017 15:00:00 12.61667 C 5.72 g/m*3 12.62 C 4.675 km/h
2462 11-04-2017 16:00:00 14.10833 C 5.86 g/m*3 14.11 C 5.61667 km/h
2463 11-04-2017 17:00:00 14.175 C 5.84 g/m*3 14.18 C 5.61667 km/h
2464 11-04-2017 18:00:00 15.18333 C 5.94 g/m*3 15.18 C 4.94167 km/h
2465 11-04-2017 19:00:00 14.90833 C 6.44 g/m*3 14.91 C 2.13333 km/h
2466 11-04-2017 20:00:00 10.70833 C 6.35 g/m*3 10.71 C 4 km/h
2467 11-04-2017 21:00:00 8.56667 C 6.18 g/m*3 8.57 C 1.06667 km/h
2468 11-04-2017 22:00:00 7.33333 C 6.05 g/m*3 7.33 C 0.66667 km/h
2469 11-04-2017 23:00:00 6.46667 C 5.96 g/m*3 6.47 C 0.66667 km/h
2470 12-04-2017 00:00:00 6.55 C 6.04 g/m*3 6.55 C 2.93333 km/h
2471 12-04-2017 01:00:00 6.45833 C 6.06 g/m*3 6.46 C 3.60833 km/h
2472 12-04-2017 02:00:00 5.725 C 5.87 g/m*3 5.73 C 3.33333 km/h
2473 12-04-2017 03:00:00 5.41667 C 5.9 g/m*3 5.42 C 4.26667 km/h
2474 12-04-2017 04:00:00 5.49167 C 5.9 g/m*3 5.49 C 3.86667 km/h
2475 12-04-2017 05:00:00 5.025 C 5.78 g/m*3 5.03 C 4.55833 km/h
Sensor: Nr:Datum:Temp:Abs-Feuchte:Windchill:Wind:
Aussen-T/F 2476 12-04-2017 06:00:00 4.64167 C 5.74 g/m*3 4.64 C 3.6 km/h
2477 12-04-2017 07:00:00 4.875 C 5.89 g/m*3 4.88 C 1.2 km/h
2478 12-04-2017 08:00:00 6.575 C 6.26 g/m*3 4.75 C 9 km/h
2479 12-04-2017 09:00:00 8.65 C 6.52 g/m*3 6.79 C 11.3 km/h
2480 12-04-2017 10:00:00 10.45 C 6.53 g/m*3 8.94 C 11.43333 km/h
2481 12-04-2017 11:00:00 12.49167 C 6.76 g/m*3 12.49 C 10.09167 km/h
2482 12-04-2017 12:00:00 14.69167 C 6.94 g/m*3 14.69 C 13.56667 km/h
2483 12-04-2017 13:00:00 16.61667 C 7.28 g/m*3 16.62 C 14.63333 km/h
2484 12-04-2017 14:00:00 17.75833 C 7.39 g/m*3 17.76 C 15.96667 km/h
2485 12-04-2017 15:00:00 17.75 C 7.26 g/m*3 17.75 C 15.56667 km/h
2486 12-04-2017 16:00:00 17.325 C 7.13 g/m*3 17.33 C 17.03333 km/h
2487 12-04-2017 17:00:00 17.19167 C 7.11 g/m*3 17.19 C 13.16667 km/h
2488 12-04-2017 18:00:00 17.5 C 7.43 g/m*3 17.5 C 9.14167 km/h
2489 12-04-2017 19:00:00 17.06667 C 7.29 g/m*3 17.07 C 12.63333 km/h
2490 12-04-2017 20:00:00 15.525 C 6.76 g/m*3 15.53 C 6.84167 km/h
2491 12-04-2017 21:00:00 14.53333 C 7.49 g/m*3 14.53 C 13.83333 km/h
2492 12-04-2017 22:00:00 12.35833 C 7.84 g/m*3 12.36 C 11.7 km/h
2493 12-04-2017 23:00:00 11.53333 C 7.78 g/m*3 11.53 C 8.19167 km/h
2494 13-04-2017 00:00:00 11.06667 C 7.71 g/m*3 11.07 C 4.825 km/h
2495 13-04-2017 01:00:00 10.76667 C 7.25 g/m*3 10.77 C 2.53333 km/h
2496 13-04-2017 02:00:00 10.525 C 7.24 g/m*3 10.53 C 2.26667 km/h
2497 13-04-2017 03:00:00 10.31667 C 7.29 g/m*3 10.05 C 5.20833 km/h
2498 13-04-2017 04:00:00 9.54167 C 7.32 g/m*3 9.54 C 4.675 km/h
2499 13-04-2017 05:00:00 9.8 C 7.55 g/m*3 9.38 C 5.48333 km/h
2500 13-04-2017 06:00:00 9.275 C 7.79 g/m*3 9.28 C 3.075 km/h
Sensor: Nr:Datum:Temp:Abs-Feuchte:Windchill:Wind:
Aussen-T/F 2501 13-04-2017 07:00:00 8.95833 C 7.69 g/m*3 8.96 C 3.075 km/h
2502 13-04-2017 08:00:00 9.64167 C 7.88 g/m*3 9.24 C 5.35 km/h
2503 13-04-2017 09:00:00 10.60833 C 8.1 g/m*3 10.27 C 5.625 km/h
2504 13-04-2017 10:00:00 11.575 C 7.35 g/m*3 11.58 C 11.00833 km/h
2505 13-04-2017 11:00:00 12.70833 C 6.62 g/m*3 12.71 C 12.76667 km/h
2506 13-04-2017 12:00:00 13.09167 C 6.55 g/m*3 13.09 C 12.76667 km/h
2507 13-04-2017 13:00:00 13.08333 C 6.55 g/m*3 13.08 C 12.5 km/h
2508 13-04-2017 14:00:00 14.05 C 6.32 g/m*3 14.05 C 10.475 km/h
2509 13-04-2017 15:00:00 14.19167 C 6.55 g/m*3 14.19 C 10.9 km/h
2510 13-04-2017 16:00:00 14.64167 C 6.73 g/m*3 14.64 C 10.225 km/h
2511 13-04-2017 17:00:00 14.38333 C 6.68 g/m*3 14.38 C 8.46667 km/h
2512 13-04-2017 18:00:00 14.16667 C 6.6 g/m*3 14.17 C 11.43333 km/h
2513 13-04-2017 19:00:00 13.10833 C 6.45 g/m*3 13.11 C 6.575 km/h
2514 13-04-2017 20:00:00 12.39167 C 6.34 g/m*3 12.39 C 3.86667 km/h
2515 13-04-2017 21:00:00 11.08333 C 6.36 g/m*3 11.08 C 3.60833 km/h
2516 13-04-2017 22:00:00 9.55833 C 6.43 g/m*3 9.56 C 0.8 km/h
2517 13-04-2017 23:00:00 9.18333 C 6.56 g/m*3 9.18 C 0.4 km/h
2518 14-04-2017 00:00:00 8.83333 C 6.2 g/m*3 8.83 C 3.49167 km/h
2519 14-04-2017 01:00:00 9.25 C 6.11 g/m*3 8.83 C 5.225 km/h
2520 14-04-2017 02:00:00 7.625 C 6.07 g/m*3 7.63 C 3.475 km/h
2521 14-04-2017 03:00:00 6.35833 C 5.99 g/m*3 6.36 C 1.73333 km/h
2522 14-04-2017 04:00:00 5.56667 C 5.93 g/m*3 5.57 C 0.53333 km/h
2523 14-04-2017 05:00:00 4.85 C 5.81 g/m*3 4.85 C 0.53333 km/h
2524 14-04-2017 06:00:00 3.73333 C 5.53 g/m*3 3.73 C 0.4 km/h
2525 14-04-2017 07:00:00 3.14167 C 5.48 g/m*3 3.14 C 0 km/h
Sensor: Nr:Datum:Temp:Abs-Feuchte:Windchill:Wind:
Aussen-T/F 2526 14-04-2017 08:00:00 3.675 C 5.75 g/m*3 3.68 C 0.13333 km/h
2527 14-04-2017 09:00:00 5.10833 C 6.27 g/m*3 5.11 C 0 km/h
2528 14-04-2017 10:00:00 7.41667 C 6.48 g/m*3 7.42 C 2 km/h
2529 14-04-2017 11:00:00 10.00833 C 6.56 g/m*3 10.01 C 4.13333 km/h
2530 14-04-2017 12:00:00 11.675 C 6.16 g/m*3 11.68 C 8.18333 km/h
2531 14-04-2017 13:00:00 12.46667 C 5.93 g/m*3 12.47 C 8.16667 km/h
2532 14-04-2017 14:00:00 13.79167 C 5.98 g/m*3 13.79 C 6.975 km/h
2533 14-04-2017 15:00:00 15.25833 C 6.09 g/m*3 15.26 C 9.95833 km/h
2534 14-04-2017 16:00:00 15.54167 C 6.17 g/m*3 15.54 C 11.43333 km/h
2535 14-04-2017 17:00:00 15.73333 C 6.22 g/m*3 15.73 C 9.53333 km/h
2536 14-04-2017 18:00:00 15.71667 C 6.19 g/m*3 15.72 C 8.725 km/h
2537 14-04-2017 19:00:00 14.13333 C 6.29 g/m*3 14.13 C 9.00833 km/h
2538 14-04-2017 20:00:00 12.54167 C 6.48 g/m*3 12.54 C 4.41667 km/h
2539 14-04-2017 21:00:00 11.2 C 6.66 g/m*3 11.2 C 0.53333 km/h
2540 14-04-2017 22:00:00 10.7 C 6.75 g/m*3 10.7 C 0.93333 km/h
2541 14-04-2017 23:00:00 10.325 C 6.77 g/m*3 10.33 C 0.53333 km/h
2542 15-04-2017 00:00:00 9.05833 C 6.59 g/m*3 9.06 C 2.66667 km/h
2543 15-04-2017 01:00:00 7.68333 C 6.45 g/m*3 7.68 C 1.6 km/h
2544 15-04-2017 02:00:00 6.78333 C 6.4 g/m*3 6.78 C 0.8 km/h
2545 15-04-2017 03:00:00 6.70833 C 6.41 g/m*3 6.71 C 3.08333 km/h
2546 15-04-2017 04:00:00 6.28333 C 6.4 g/m*3 6.28 C 2.40833 km/h
2547 15-04-2017 05:00:00 6.41667 C 6.45 g/m*3 6.42 C 2.53333 km/h
2548 15-04-2017 06:00:00 6.30833 C 6.44 g/m*3 6.31 C 0 km/h
2549 15-04-2017 07:00:00 6.84167 C 6.68 g/m*3 6.84 C 0.66667 km/h
2550 15-04-2017 08:00:00 8.45833 C 7.02 g/m*3 7.34 C 7.38333 km/h
Sensor: Nr:Datum:Temp:Abs-Feuchte:Windchill:Wind:
Aussen-T/F 2551 15-04-2017 09:00:00 8.83333 C 7.59 g/m*3 8.4 C 5.08333 km/h
2552 15-04-2017 10:00:00 8.7 C 7.7 g/m*3 7.62 C 7.375 km/h
2553 15-04-2017 11:00:00 10.15833 C 7.93 g/m*3 8.49 C 12.09167 km/h
2554 15-04-2017 12:00:00 11.4 C 8 g/m*3 11.4 C 9.81667 km/h
2555 15-04-2017 13:00:00 12.175 C 8.48 g/m*3 12.18 C 11.83333 km/h
2556 15-04-2017 14:00:00 12.54167 C 8.75 g/m*3 12.54 C 13.3 km/h
2557 15-04-2017 15:00:00 10.34167 C 8.42 g/m*3 8.52 C 13.54167 km/h
2558 15-04-2017 16:00:00 10.30833 C 8.75 g/m*3 9.92 C 5.65 km/h
2559 15-04-2017 17:00:00 10.2 C 8.17 g/m*3 9.5 C 6.825 km/h
2560 15-04-2017 18:00:00 10.85 C 7.89 g/m*3 9.59 C 10.35 km/h
2561 15-04-2017 19:00:00 10.73333 C 7.14 g/m*3 9.47 C 10.225 km/h
2562 15-04-2017 20:00:00 10.36667 C 7 g/m*3 9.4 C 8.19167 km/h
2563 15-04-2017 21:00:00 9.84167 C 6.74 g/m*3 8.62 C 9.00833 km/h
2564 15-04-2017 22:00:00 9.10833 C 6.55 g/m*3 8.13 C 7.23333 km/h
2565 15-04-2017 23:00:00 8 C 6.3 g/m*3 8 C 3.875 km/h
2566 16-04-2017 00:00:00 6.54167 C 6.09 g/m*3 6.54 C 1.33333 km/h
2567 16-04-2017 01:00:00 5.9 C 6.13 g/m*3 5.9 C 1.73333 km/h
2568 16-04-2017 02:00:00 4.95833 C 6 g/m*3 4.96 C 1.06667 km/h
2569 16-04-2017 03:00:00 4.45 C 5.9 g/m*3 4.45 C 2.93333 km/h
2570 16-04-2017 04:00:00 4.69167 C 5.88 g/m*3 3.5 C 5.60833 km/h
2571 16-04-2017 05:00:00 4.46667 C 5.76 g/m*3 4.47 C 3.73333 km/h
2572 16-04-2017 06:00:00 3.94167 C 5.68 g/m*3 3.94 C 3.75 km/h
2573 16-04-2017 07:00:00 4.58333 C 5.94 g/m*3 4.58 C 3.46667 km/h
2574 16-04-2017 08:00:00 6.05833 C 6.24 g/m*3 4.73 C 6.7 km/h
2575 16-04-2017 09:00:00 8.18333 C 6.59 g/m*3 7.12 C 6.975 km/h
Sensor: Nr:Datum:Temp:Abs-Feuchte:Windchill:Wind:
Aussen-T/F 2576 16-04-2017 10:00:00 9.39167 C 6.68 g/m*3 8.43 C 7.375 km/h
2577 16-04-2017 11:00:00 9.5 C 6.88 g/m*3 9.08 C 5.36667 km/h
2578 16-04-2017 12:00:00 9.76667 C 6.76 g/m*3 9.46 C 5.08333 km/h
2579 16-04-2017 13:00:00 11.05 C 6.2 g/m*3 11.05 C 14.1 km/h
2580 16-04-2017 14:00:00 10.68333 C 6.3 g/m*3 8.72 C 15.3 km/h
2581 16-04-2017 15:00:00 9.24167 C 7.05 g/m*3 9.24 C 4.56667 km/h
2582 16-04-2017 16:00:00 9.79167 C 6.64 g/m*3 8.99 C 6.98333 km/h
2583 16-04-2017 17:00:00 10.75833 C 6.48 g/m*3 9.73 C 8.875 km/h
2584 16-04-2017 18:00:00 10.18333 C 6.54 g/m*3 8.88 C 9.825 km/h
2585 16-04-2017 19:00:00 9.91667 C 6.81 g/m*3 9.92 C 3.09167 km/h
2586 16-04-2017 20:00:00 8.01667 C 6.69 g/m*3 8.02 C 0.26667 km/h
2587 16-04-2017 21:00:00 6.40833 C 6.26 g/m*3 6.41 C 1.6 km/h
2588 16-04-2017 22:00:00 6.44167 C 6.05 g/m*3 6.44 C 1.73333 km/h
2589 16-04-2017 23:00:00 5.575 C 5.72 g/m*3 5.58 C 1.33333 km/h
2590 17-04-2017 00:00:00 5.025 C 5.64 g/m*3 5.03 C 0.8 km/h
2591 17-04-2017 01:00:00 5.25833 C 5.82 g/m*3 5.26 C 1.6 km/h
2592 17-04-2017 02:00:00 5.71667 C 5.97 g/m*3 5.72 C 0.66667 km/h
2593 17-04-2017 03:00:00 5.925 C 6.42 g/m*3 5.93 C 0 km/h
2594 17-04-2017 04:00:00 5.50833 C 6.48 g/m*3 5.51 C 0.26667 km/h
2595 17-04-2017 05:00:00 5.46667 C 6.58 g/m*3 5.47 C 0.66667 km/h
2596 17-04-2017 06:00:00 5.69167 C 6.73 g/m*3 5.69 C 0.66667 km/h
2597 17-04-2017 07:00:00 6.10833 C 6.94 g/m*3 4.94 C 6.175 km/h
2598 17-04-2017 08:00:00 6.68333 C 7.21 g/m*3 5.7 C 5.88333 km/h
2599 17-04-2017 09:00:00 6.96667 C 7.35 g/m*3 6.97 C 1.73333 km/h
2600 17-04-2017 10:00:00 7 C 7.36 g/m*3 6.1 C 5.75 km/h
Sensor: Nr:Datum:Temp:Abs-Feuchte:Windchill:Wind:
Aussen-T/F 2601 17-04-2017 11:00:00 6.325 C 6.87 g/m*3 4.12 C 10.61667 km/h
2602 17-04-2017 12:00:00 6.14167 C 6.73 g/m*3 3.77 C 11.3 km/h
2603 17-04-2017 13:00:00 6.78333 C 6.72 g/m*3 4.59 C 11.03333 km/h
2604 17-04-2017 14:00:00 7.65 C 6.76 g/m*3 5.16 C 13.96667 km/h
2605 17-04-2017 15:00:00 8.91667 C 6.8 g/m*3 7.35 C 9.95 km/h
2606 17-04-2017 16:00:00 8.76667 C 6.92 g/m*3 7.7 C 7.375 km/h
2607 17-04-2017 17:00:00 10.85833 C 7.49 g/m*3 10.52 C 5.76667 km/h
2608 17-04-2017 18:00:00 10.11667 C 6.08 g/m*3 8.63 C 10.875 km/h
2609 17-04-2017 19:00:00 8.21667 C 5.88 g/m*3 7.22 C 6.71667 km/h
2610 17-04-2017 20:00:00 6.53333 C 6.13 g/m*3 6.53 C 0.8 km/h
2611 17-04-2017 21:00:00 6.00833 C 5.65 g/m*3 6.01 C 3.20833 km/h
2612 17-04-2017 22:00:00 6.15833 C 5.57 g/m*3 5.17 C 5.65 km/h
2613 17-04-2017 23:00:00 5.91667 C 5.52 g/m*3 4.56 C 6.70833 km/h
2614 18-04-2017 00:00:00 5.45833 C 5.64 g/m*3 5.46 C 4.28333 km/h
2615 18-04-2017 01:00:00 5.05833 C 5.63 g/m*3 4.07 C 5.21667 km/h
2616 18-04-2017 02:00:00 4.6 C 5.61 g/m*3 3.54 C 5.225 km/h
2617 18-04-2017 03:00:00 4.41667 C 5.5 g/m*3 1.77 C 10.89167 km/h
2618 18-04-2017 04:00:00 4.3 C 5.43 g/m*3 1.74 C 10.36667 km/h
2619 18-04-2017 05:00:00 4.2 C 5.37 g/m*3 1.74 C 9.825 km/h
2620 18-04-2017 06:00:00 4.16667 C 5.37 g/m*3 1.68 C 9.93333 km/h
2621 18-04-2017 07:00:00 4.10833 C 5.38 g/m*3 2.51 C 6.55833 km/h
2622 18-04-2017 08:00:00 4.475 C 5.54 g/m*3 1.84 C 10.9 km/h
2623 18-04-2017 09:00:00 4.86667 C 5.61 g/m*3 2.54 C 9.83333 km/h
2624 18-04-2017 10:00:00 5.86667 C 5.71 g/m*3 3.39 C 11.56667 km/h
2625 18-04-2017 11:00:00 6.475 C 5.57 g/m*3 4.1 C 11.69167 km/h
Sensor: Nr:Datum:Temp:Abs-Feuchte:Windchill:Wind:
Aussen-T/F 2626 18-04-2017 12:00:00 5.41667 C 5.59 g/m*3 2.45 C 13.8 km/h
2627 18-04-2017 13:00:00 5.55833 C 5.81 g/m*3 2.78 C 12.89167 km/h
2628 18-04-2017 14:00:00 7.29167 C 5.78 g/m*3 4.68 C 14.23333 km/h
2629 18-04-2017 15:00:00 6.83333 C 5.97 g/m*3 4.22 C 13.55833 km/h
2630 18-04-2017 16:00:00 7.50833 C 6.29 g/m*3 6.16 C 7.65 km/h
2631 18-04-2017 17:00:00 9.68333 C 6.68 g/m*3 8.49 C 8.71667 km/h
2632 18-04-2017 18:00:00 7.53333 C 6.31 g/m*3 7.53 C 3.74167 km/h
2633 18-04-2017 19:00:00 7.21667 C 5.74 g/m*3 5.34 C 9.81667 km/h
2634 18-04-2017 20:00:00 6.10833 C 5.57 g/m*3 4.63 C 7.24167 km/h
2635 18-04-2017 21:00:00 4.625 C 5.58 g/m*3 4.63 C 0.4 km/h
2636 18-04-2017 22:00:00 3.88333 C 5.53 g/m*3 3.88 C 0 km/h
2637 18-04-2017 23:00:00 2.875 C 5.26 g/m*3 2.88 C 0 km/h
2638 19-04-2017 00:00:00 2.125 C 5.1 g/m*3 2.13 C 0 km/h
2639 19-04-2017 01:00:00 1.7 C 5 g/m*3 1.7 C 0.53333 km/h
2640 19-04-2017 02:00:00 1.41667 C 4.96 g/m*3 1.42 C 0.13333 km/h
2641 19-04-2017 03:00:00 1.45833 C 5.01 g/m*3 1.46 C 0 km/h
2642 19-04-2017 04:00:00 1.81667 C 5.16 g/m*3 1.82 C 0 km/h
2643 19-04-2017 05:00:00 1.875 C 5.18 g/m*3 1.88 C 0 km/h
2644 19-04-2017 06:00:00 1.40833 C 4.96 g/m*3 1.41 C 0 km/h
2645 19-04-2017 07:00:00 1.46667 C 5.01 g/m*3 1.47 C 0.26667 km/h
2646 19-04-2017 08:00:00 1.85833 C 4.93 g/m*3 1.86 C 2.53333 km/h
2647 19-04-2017 09:00:00 3.19167 C 4.77 g/m*3 0.21 C 11.29167 km/h
2648 19-04-2017 10:00:00 4.53333 C 4.31 g/m*3 1.21 C 14.76667 km/h
2649 19-04-2017 11:00:00 5.48333 C 4.05 g/m*3 2.4 C 14.63333 km/h
2650 19-04-2017 12:00:00 6.09167 C 3.74 g/m*3 3.17 C 14.5 km/h
Sensor: Nr:Datum:Temp:Abs-Feuchte:Windchill:Wind:
Aussen-T/F 2651 19-04-2017 13:00:00 6.64167 C 3.66 g/m*3 4.3 C 11.7 km/h
2652 19-04-2017 14:00:00 6.91667 C 3.7 g/m*3 4.24 C 14.1 km/h
2653 19-04-2017 15:00:00 7.18333 C 3.91 g/m*3 4.53 C 14.36667 km/h
2654 19-04-2017 16:00:00 7.65 C 3.97 g/m*3 5.47 C 11.95833 km/h
2655 19-04-2017 17:00:00 8.2 C 3.88 g/m*3 6.79 C 8.475 km/h
2656 19-04-2017 18:00:00 8.14167 C 3.63 g/m*3 6.27 C 10.75 km/h
2657 19-04-2017 19:00:00 7.30833 C 3.72 g/m*3 6.37 C 6.03333 km/h
2658 19-04-2017 20:00:00 5.7 C 4.17 g/m*3 5.7 C 2.00833 km/h
2659 19-04-2017 21:00:00 4.20833 C 4.43 g/m*3 4.21 C 0.53333 km/h
2660 19-04-2017 22:00:00 3.03333 C 4.35 g/m*3 3.03 C 0.4 km/h
2661 19-04-2017 23:00:00 2.26667 C 4.26 g/m*3 2.27 C 0.66667 km/h
2662 20-04-2017 00:00:00 1.325 C 4.21 g/m*3 1.33 C 0.66667 km/h
2663 20-04-2017 01:00:00 0.31667 C 4.16 g/m*3 0.32 C 0.13333 km/h
2664 20-04-2017 02:00:00 -0.46667 C 4.08 g/m*3 -0.47 C 0 km/h
2665 20-04-2017 03:00:00 -0.98333 C 3.99 g/m*3 -0.98 C 0 km/h
2666 20-04-2017 04:00:00 -1.4 C 3.92 g/m*3 -1.4 C 0 km/h
2667 20-04-2017 05:00:00 -1.66667 C 3.9 g/m*3 -1.67 C 0 km/h
2668 20-04-2017 06:00:00 -1.84167 C 3.88 g/m*3 -1.84 C 0 km/h
2669 20-04-2017 07:00:00 -1.81667 C 3.94 g/m*3 -1.82 C 0 km/h
2670 20-04-2017 08:00:00 -1.33333 C 4.1 g/m*3 -1.33 C 0.13333 km/h
2671 20-04-2017 09:00:00 -0.31667 C 4.4 g/m*3 -0.32 C 0 km/h
2672 20-04-2017 10:00:00 2.29167 C 4.97 g/m*3 2.29 C 0.4 km/h
2673 20-04-2017 11:00:00 5.64167 C 4.51 g/m*3 5.64 C 4.825 km/h
2674 20-04-2017 12:00:00 7.48333 C 4.14 g/m*3 5.58 C 10.23333 km/h
2675 20-04-2017 13:00:00 8.3 C 4.11 g/m*3 6.91 C 8.46667 km/h
Sensor: Nr:Datum:Temp:Abs-Feuchte:Windchill:Wind:
Aussen-T/F 2676 20-04-2017 14:00:00 9.425 C 4.18 g/m*3 8.44 C 7.51667 km/h
2677 20-04-2017 15:00:00 10.46667 C 4.14 g/m*3 9.34 C 9.15 km/h
2678 20-04-2017 16:00:00 12.35 C 4.23 g/m*3 12.35 C 6.44167 km/h
2679 20-04-2017 17:00:00 13.50833 C 4.2 g/m*3 13.51 C 7.65833 km/h
2680 20-04-2017 18:00:00 13.40833 C 4.04 g/m*3 13.41 C 7.8 km/h
2681 20-04-2017 19:00:00 12.08333 C 4.15 g/m*3 12.08 C 6.15833 km/h
2682 20-04-2017 20:00:00 8.76667 C 4.99 g/m*3 8.77 C 1.33333 km/h
2683 20-04-2017 21:00:00 6.175 C 4.91 g/m*3 6.18 C 3.06667 km/h
2684 20-04-2017 22:00:00 5.59167 C 5.24 g/m*3 5.59 C 0.53333 km/h
2685 20-04-2017 23:00:00 5.18333 C 5.23 g/m*3 5.18 C 0.13333 km/h
2686 21-04-2017 00:00:00 4.325 C 5.05 g/m*3 4.33 C 0 km/h
2687 21-04-2017 01:00:00 3.45833 C 4.91 g/m*3 3.46 C 0.93333 km/h
2688 21-04-2017 02:00:00 2.79167 C 4.78 g/m*3 2.79 C 0.4 km/h
2689 21-04-2017 03:00:00 1.68333 C 4.56 g/m*3 1.68 C 0.13333 km/h
2690 21-04-2017 04:00:00 1.00833 C 4.44 g/m*3 1.01 C 0.13333 km/h
2691 21-04-2017 05:00:00 0.31667 C 4.32 g/m*3 0.32 C 0.13333 km/h
2692 21-04-2017 06:00:00 -0.125 C 4.27 g/m*3 -0.13 C 0.4 km/h
2693 21-04-2017 07:00:00 0 C 4.36 g/m*3 0 C 0.53333 km/h
2694 21-04-2017 08:00:00 1.05833 C 4.69 g/m*3 1.06 C 0.93333 km/h
2695 21-04-2017 09:00:00 3.85 C 5.19 g/m*3 3.85 C 2.66667 km/h
2696 21-04-2017 10:00:00 8.08333 C 5.34 g/m*3 8.08 C 2.93333 km/h
2697 21-04-2017 11:00:00 10.55 C 5.16 g/m*3 10.55 C 3.46667 km/h
2698 21-04-2017 12:00:00 11.80833 C 5.08 g/m*3 11.81 C 3.86667 km/h
2699 21-04-2017 13:00:00 12.20833 C 5.5 g/m*3 12.21 C 4.4 km/h
2700 21-04-2017 14:00:00 11.825 C 5.8 g/m*3 11.83 C 2 km/h
Sensor: Nr:Datum:Temp:Abs-Feuchte:Windchill:Wind:
Aussen-T/F 2701 21-04-2017 15:00:00 12.58333 C 6.04 g/m*3 12.58 C 2.8 km/h
2702 21-04-2017 16:00:00 14.2 C 6.67 g/m*3 14.2 C 4.53333 km/h
2703 21-04-2017 17:00:00 14.775 C 7.17 g/m*3 14.78 C 7.24167 km/h
2704 21-04-2017 18:00:00 14.975 C 7.39 g/m*3 14.98 C 5.5 km/h
2705 21-04-2017 19:00:00 13.85833 C 7.95 g/m*3 13.86 C 0.53333 km/h
2706 21-04-2017 20:00:00 12.11667 C 7.63 g/m*3 12.12 C 1.06667 km/h
2707 21-04-2017 21:00:00 12.08333 C 7.65 g/m*3 12.08 C 2.4 km/h
2708 21-04-2017 22:00:00 12.2 C 7.81 g/m*3 12.2 C 4.81667 km/h
2709 21-04-2017 23:00:00 11.95833 C 7.86 g/m*3 11.96 C 8.73333 km/h
2710 22-04-2017 00:00:00 11.66667 C 7.58 g/m*3 11.67 C 4.68333 km/h
2711 22-04-2017 01:00:00 11 C 7.63 g/m*3 11 C 2.80833 km/h
2712 22-04-2017 02:00:00 10.68333 C 7.55 g/m*3 10.68 C 3.33333 km/h
2713 22-04-2017 03:00:00 10.24167 C 7.55 g/m*3 10.24 C 1.33333 km/h
2714 22-04-2017 04:00:00 9.80833 C 7.6 g/m*3 9.81 C 0.4 km/h
2715 22-04-2017 05:00:00 9.50833 C 7.63 g/m*3 9.51 C 0.53333 km/h
2716 22-04-2017 06:00:00 9.45 C 7.63 g/m*3 9.45 C 1.46667 km/h
2717 22-04-2017 07:00:00 9.875 C 7.71 g/m*3 9.88 C 2.8 km/h
2718 22-04-2017 08:00:00 10.16667 C 7.8 g/m*3 9.06 C 8.7 km/h
2719 22-04-2017 09:00:00 8.04167 C 7.09 g/m*3 5.31 C 16.5 km/h
2720 22-04-2017 10:00:00 7.39167 C 6.72 g/m*3 5.25 C 11.425 km/h
2721 22-04-2017 11:00:00 7.8 C 6.5 g/m*3 5.81 C 11.03333 km/h
2722 22-04-2017 12:00:00 9.025 C 6.56 g/m*3 7.45 C 10.075 km/h
2723 22-04-2017 13:00:00 8.94167 C 6.49 g/m*3 7.28 C 10.475 km/h
2724 22-04-2017 14:00:00 9.525 C 6.47 g/m*3 7.74 C 11.96667 km/h
2725 22-04-2017 15:00:00 10.60833 C 6.32 g/m*3 8.42 C 17.15833 km/h
Sensor: Nr:Datum:Temp:Abs-Feuchte:Windchill:Wind:
Aussen-T/F 2726 22-04-2017 16:00:00 11 C 5.66 g/m*3 9.16 C 14.9 km/h
2727 22-04-2017 17:00:00 10.68333 C 5.4 g/m*3 8.85 C 14.23333 km/h
2728 22-04-2017 18:00:00 10.4 C 5.57 g/m*3 9.14 C 9.825 km/h
2729 22-04-2017 19:00:00 9.975 C 5.75 g/m*3 9.05 C 7.65833 km/h
2730 22-04-2017 20:00:00 9.35833 C 5.81 g/m*3 8.3 C 7.8 km/h
2731 22-04-2017 21:00:00 8.96667 C 5.61 g/m*3 7.84 C 7.79167 km/h
2732 22-04-2017 22:00:00 8.525 C 5.27 g/m*3 7.23 C 8.19167 km/h
2733 22-04-2017 23:00:00 7.825 C 5.26 g/m*3 6.18 C 9.26667 km/h
2734 23-04-2017 00:00:00 7.18333 C 5.29 g/m*3 5.65 C 8.19167 km/h
2735 23-04-2017 01:00:00 6.14167 C 5.31 g/m*3 6.14 C 4.14167 km/h
2736 23-04-2017 02:00:00 5.56667 C 5.35 g/m*3 5.57 C 1.6 km/h
2737 23-04-2017 03:00:00 5.375 C 5.31 g/m*3 5.38 C 3.075 km/h
2738 23-04-2017 04:00:00 5.04167 C 5.35 g/m*3 5.04 C 4.55 km/h
2739 23-04-2017 05:00:00 4.18333 C 5.34 g/m*3 4.18 C 2.53333 km/h
2740 23-04-2017 06:00:00 3.475 C 5.26 g/m*3 3.48 C 2 km/h
2741 23-04-2017 07:00:00 3.41667 C 5.35 g/m*3 3.42 C 0.53333 km/h
2742 23-04-2017 08:00:00 4.75833 C 5.7 g/m*3 4.76 C 2.53333 km/h
2743 23-04-2017 09:00:00 6.3 C 5.83 g/m*3 4.45 C 8.875 km/h
2744 23-04-2017 10:00:00 7.29167 C 5.71 g/m*3 5.15 C 11.3 km/h
2745 23-04-2017 11:00:00 8.24167 C 5.35 g/m*3 6.02 C 13.03333 km/h
2746 23-04-2017 12:00:00 9.1 C 5.15 g/m*3 7.69 C 9.275 km/h
2747 23-04-2017 13:00:00 9.79167 C 5.12 g/m*3 8.26 C 10.75833 km/h
2748 23-04-2017 14:00:00 10.1 C 5.11 g/m*3 8.76 C 9.93333 km/h
2749 23-04-2017 15:00:00 10.6 C 5.1 g/m*3 9.5 C 9.14167 km/h
2750 23-04-2017 16:00:00 11.28333 C 5.18 g/m*3 11.28 C 12.23333 km/h
Sensor: Nr:Datum:Temp:Abs-Feuchte:Windchill:Wind:
Aussen-T/F 2751 23-04-2017 17:00:00 11.80833 C 5.12 g/m*3 11.81 C 10.21667 km/h
2752 23-04-2017 18:00:00 10.475 C 5.2 g/m*3 9.37 C 9.00833 km/h
2753 23-04-2017 19:00:00 10.01667 C 5.4 g/m*3 9.48 C 6.04167 km/h
2754 23-04-2017 20:00:00 9.51667 C 5.46 g/m*3 9.52 C 4.15833 km/h
2755 23-04-2017 21:00:00 7.08333 C 5.52 g/m*3 7.08 C 0.8 km/h
2756 23-04-2017 22:00:00 5.425 C 5.38 g/m*3 5.43 C 0.66667 km/h
2757 23-04-2017 23:00:00 4.15833 C 5.37 g/m*3 4.16 C 0 km/h
2758 24-04-2017 00:00:00 4.05 C 5.39 g/m*3 4.05 C 0.26667 km/h
2759 24-04-2017 01:00:00 2.70833 C 5.05 g/m*3 2.71 C 0.13333 km/h
2760 24-04-2017 02:00:00 1.65 C 4.83 g/m*3 1.65 C 0 km/h
2761 24-04-2017 03:00:00 1.05833 C 4.72 g/m*3 1.06 C 0.13333 km/h
2762 24-04-2017 04:00:00 0.46667 C 4.59 g/m*3 0.47 C 0.13333 km/h
2763 24-04-2017 05:00:00 -0.01667 C 4.48 g/m*3 -0.02 C 0 km/h
2764 24-04-2017 06:00:00 -0.28333 C 4.42 g/m*3 -0.28 C 0.13333 km/h
2765 24-04-2017 07:00:00 -0.20833 C 4.48 g/m*3 -0.21 C 0 km/h
2766 24-04-2017 08:00:00 0.46667 C 4.7 g/m*3 0.47 C 0 km/h
2767 24-04-2017 09:00:00 1.95833 C 5.25 g/m*3 1.96 C 0 km/h
2768 24-04-2017 10:00:00 6.14167 C 6.13 g/m*3 6.14 C 3.33333 km/h
2769 24-04-2017 11:00:00 10.19167 C 5.67 g/m*3 9.04 C 9.00833 km/h
2770 24-04-2017 12:00:00 11.525 C 5.56 g/m*3 11.53 C 9.01667 km/h
2771 24-04-2017 13:00:00 12.74167 C 5.52 g/m*3 12.74 C 9.96667 km/h
2772 24-04-2017 14:00:00 14.225 C 5.54 g/m*3 14.23 C 9.80833 km/h
2773 24-04-2017 15:00:00 16.24167 C 5.55 g/m*3 16.24 C 10.34167 km/h
2774 24-04-2017 16:00:00 18.53333 C 5.5 g/m*3 18.53 C 13.56667 km/h
2775 24-04-2017 17:00:00 18.825 C 5.28 g/m*3 18.83 C 10.075 km/h
Sensor: Nr:Datum:Temp:Abs-Feuchte:Windchill:Wind:
Aussen-T/F 2776 24-04-2017 18:00:00 18.35 C 5.34 g/m*3 18.35 C 10.08333 km/h
2777 24-04-2017 19:00:00 16.875 C 5.74 g/m*3 16.88 C 6.55833 km/h
2778 24-04-2017 20:00:00 14.44167 C 6.35 g/m*3 14.44 C 4.28333 km/h
2779 24-04-2017 21:00:00 11.04167 C 6.42 g/m*3 11.04 C 0.66667 km/h
2780 24-04-2017 22:00:00 9.45833 C 6.42 g/m*3 9.46 C 0.26667 km/h
2781 24-04-2017 23:00:00 7.74167 C 6.31 g/m*3 7.74 C 0 km/h
2782 25-04-2017 00:00:00 6.89167 C 6.17 g/m*3 6.89 C 0.53333 km/h
2783 25-04-2017 01:00:00 6.56667 C 6.08 g/m*3 6.57 C 0.4 km/h
2784 25-04-2017 02:00:00 5.825 C 5.96 g/m*3 5.83 C 0.8 km/h
2785 25-04-2017 03:00:00 6.16667 C 6.1 g/m*3 6.17 C 2.00833 km/h
2786 25-04-2017 04:00:00 6.61667 C 6.13 g/m*3 6.62 C 1.33333 km/h
2787 25-04-2017 05:00:00 6.59167 C 6.11 g/m*3 6.59 C 3.60833 km/h
2788 25-04-2017 06:00:00 7.65 C 6.55 g/m*3 5.41 C 12.36667 km/h
2789 25-04-2017 07:00:00 6.8 C 6.5 g/m*3 5.7 C 6.30833 km/h
2790 25-04-2017 08:00:00 6.425 C 6.68 g/m*3 6.43 C 1.06667 km/h
2791 25-04-2017 09:00:00 6.74167 C 6.78 g/m*3 6.74 C 2 km/h
2792 25-04-2017 10:00:00 7.5 C 6.42 g/m*3 6.39 C 6.725 km/h
2793 25-04-2017 11:00:00 8.74167 C 5.99 g/m*3 6.93 C 11.15833 km/h
2794 25-04-2017 12:00:00 9.69167 C 5.06 g/m*3 8.05 C 11.3 km/h
2795 25-04-2017 13:00:00 10.225 C 4.46 g/m*3 8.24 C 14.63333 km/h
2796 25-04-2017 14:00:00 10.46667 C 4.36 g/m*3 8.83 C 12.36667 km/h
2797 25-04-2017 15:00:00 10.99167 C 4.32 g/m*3 9.31 C 13.56667 km/h
2798 25-04-2017 16:00:00 11.65 C 4.33 g/m*3 11.65 C 11.00833 km/h
2799 25-04-2017 17:00:00 11.425 C 4.82 g/m*3 11.43 C 13.15833 km/h
2800 25-04-2017 18:00:00 10.33333 C 4.73 g/m*3 8.18 C 16.23333 km/h
Sensor: Nr:Datum:Temp:Abs-Feuchte:Windchill:Wind:
Aussen-T/F 2801 25-04-2017 19:00:00 9.54167 C 4.94 g/m*3 7.98 C 10.625 km/h
2802 25-04-2017 20:00:00 8.2 C 5.25 g/m*3 7.55 C 5.49167 km/h
2803 25-04-2017 21:00:00 7.26667 C 5.28 g/m*3 7.27 C 2.53333 km/h
2804 25-04-2017 22:00:00 6.05833 C 5.48 g/m*3 6.06 C 0 km/h
2805 25-04-2017 23:00:00 5.34167 C 5.45 g/m*3 5.34 C 0.13333 km/h
2806 26-04-2017 00:00:00 5.13333 C 5.42 g/m*3 5.13 C 0 km/h
2807 26-04-2017 01:00:00 4.75 C 5.39 g/m*3 4.75 C 0.13333 km/h
2808 26-04-2017 02:00:00 4.41667 C 5.38 g/m*3 4.42 C 0.53333 km/h
2809 26-04-2017 03:00:00 4.00833 C 5.31 g/m*3 4.01 C 0.13333 km/h
2810 26-04-2017 04:00:00 3.68333 C 5.29 g/m*3 3.68 C 0 km/h
2811 26-04-2017 05:00:00 3.30833 C 5.18 g/m*3 3.31 C 0 km/h
2812 26-04-2017 06:00:00 2.75 C 5.07 g/m*3 2.75 C 0.13333 km/h
2813 26-04-2017 07:00:00 3.025 C 5.31 g/m*3 3.03 C 0 km/h
2814 26-04-2017 08:00:00 3.9 C 5.59 g/m*3 3.9 C 0.13333 km/h
2815 26-04-2017 09:00:00 4.73333 C 5.66 g/m*3 4.73 C 0.93333 km/h
2816 26-04-2017 10:00:00 6.99167 C 5.36 g/m*3 6.99 C 4.54167 km/h
2817 26-04-2017 11:00:00 8.325 C 4.83 g/m*3 7.15 C 7.50833 km/h
2818 26-04-2017 12:00:00 9.25833 C 4.44 g/m*3 8.34 C 7.10833 km/h
2819 26-04-2017 13:00:00 10.375 C 4.37 g/m*3 9.38 C 8.325 km/h
2820 26-04-2017 14:00:00 10.70833 C 4.18 g/m*3 9.86 C 7.91667 km/h
2821 26-04-2017 15:00:00 11.83333 C 4.52 g/m*3 11.83 C 12.75833 km/h
2822 26-04-2017 16:00:00 12.05833 C 4.49 g/m*3 12.06 C 8.88333 km/h
2823 26-04-2017 17:00:00 11.26667 C 4.61 g/m*3 11.27 C 8.06667 km/h
2824 26-04-2017 18:00:00 10.76667 C 4.73 g/m*3 10.22 C 6.56667 km/h
2825 26-04-2017 19:00:00 9.99167 C 5.17 g/m*3 9.99 C 3.35 km/h
Sensor: Nr:Datum:Temp:Abs-Feuchte:Windchill:Wind:
Aussen-T/F 2826 26-04-2017 20:00:00 8.61667 C 5.56 g/m*3 8.62 C 0.4 km/h
2827 26-04-2017 21:00:00 6.95833 C 5.56 g/m*3 6.96 C 0.26667 km/h
2828 26-04-2017 22:00:00 6.10833 C 5.63 g/m*3 6.11 C 0 km/h
2829 26-04-2017 23:00:00 5.9 C 5.52 g/m*3 5.9 C 1.73333 km/h
2830 27-04-2017 00:00:00 5.18333 C 5.38 g/m*3 5.18 C 1.6 km/h
2831 27-04-2017 01:00:00 4.41667 C 5.37 g/m*3 4.42 C 2.26667 km/h
2832 27-04-2017 02:00:00 3.99167 C 5.33 g/m*3 3.99 C 1.06667 km/h
2833 27-04-2017 03:00:00 3.01667 C 5.16 g/m*3 3.02 C 0.66667 km/h
2834 27-04-2017 04:00:00 2.35 C 5.05 g/m*3 2.35 C 0.26667 km/h
2835 27-04-2017 05:00:00 1.31667 C 4.8 g/m*3 1.32 C 0.13333 km/h
2836 27-04-2017 06:00:00 1.54167 C 5 g/m*3 1.54 C 0.26667 km/h
2837 27-04-2017 07:00:00 1.85 C 5.12 g/m*3 1.85 C 0.66667 km/h
2838 27-04-2017 08:00:00 2.96667 C 5.5 g/m*3 2.97 C 0.8 km/h
2839 27-04-2017 09:00:00 4.69167 C 5.9 g/m*3 4.69 C 2.13333 km/h
2840 27-04-2017 10:00:00 6.9 C 6.06 g/m*3 6.9 C 4.80833 km/h
2841 27-04-2017 11:00:00 8.525 C 5.78 g/m*3 7.39 C 7.51667 km/h
2842 27-04-2017 12:00:00 9.225 C 5.35 g/m*3 8.14 C 7.79167 km/h
2843 27-04-2017 13:00:00 10.29167 C 5.03 g/m*3 8.77 C 11.29167 km/h
2844 27-04-2017 14:00:00 10.83333 C 4.99 g/m*3 9.41 C 11.43333 km/h
2845 27-04-2017 15:00:00 11.34167 C 4.75 g/m*3 11.34 C 9.14167 km/h
2846 27-04-2017 16:00:00 11.925 C 4.29 g/m*3 11.93 C 8.73333 km/h
2847 27-04-2017 17:00:00 14.025 C 4.13 g/m*3 14.03 C 9.68333 km/h
2848 27-04-2017 18:00:00 13.475 C 3.82 g/m*3 13.48 C 11.025 km/h
2849 27-04-2017 19:00:00 12.675 C 3.66 g/m*3 12.68 C 7.4 km/h
2850 27-04-2017 20:00:00 10.19167 C 4.15 g/m*3 10.19 C 4.83333 km/h
Sensor: Nr:Datum:Temp:Abs-Feuchte:Windchill:Wind:
Aussen-T/F 2851 27-04-2017 21:00:00 7.975 C 5.07 g/m*3 7.3 C 5.49167 km/h
2852 27-04-2017 22:00:00 6.35833 C 5.13 g/m*3 6.36 C 1.33333 km/h
2853 27-04-2017 23:00:00 4.83333 C 5.14 g/m*3 4.83 C 0.66667 km/h
2854 28-04-2017 00:00:00 4.44167 C 5.17 g/m*3 4.44 C 0.4 km/h
2855 28-04-2017 01:00:00 3.05833 C 4.99 g/m*3 3.06 C 0 km/h
2856 28-04-2017 02:00:00 1.81667 C 4.82 g/m*3 1.82 C 0 km/h
2857 28-04-2017 03:00:00 1.21667 C 4.73 g/m*3 1.22 C 0.53333 km/h
2858 28-04-2017 04:00:00 0.60833 C 4.59 g/m*3 0.61 C 0.66667 km/h
2859 28-04-2017 05:00:00 0.16667 C 4.5 g/m*3 0.17 C 0.93333 km/h
2860 28-04-2017 06:00:00 -0.19167 C 4.41 g/m*3 -0.19 C 0.66667 km/h
2861 28-04-2017 07:00:00 0.06667 C 4.53 g/m*3 0.07 C 0.13333 km/h
2862 28-04-2017 08:00:00 1.2 C 4.88 g/m*3 -0.39 C 5.36667 km/h
2863 28-04-2017 09:00:00 3.625 C 5.37 g/m*3 2.23 C 5.75 km/h
2864 28-04-2017 10:00:00 6.7 C 5.53 g/m*3 6.7 C 2.8 km/h
2865 28-04-2017 11:00:00 9.5 C 5.61 g/m*3 8.82 C 6.30833 km/h
2866 28-04-2017 12:00:00 10.24167 C 5.53 g/m*3 10.24 C 4.68333 km/h
2867 28-04-2017 13:00:00 11.13333 C 5.59 g/m*3 11.13 C 7.24167 km/h
2868 28-04-2017 14:00:00 11.85833 C 5.55 g/m*3 11.86 C 6.3 km/h
2869 28-04-2017 15:00:00 11.8 C 5.8 g/m*3 11.8 C 8.88333 km/h
2870 28-04-2017 16:00:00 11.38333 C 6.08 g/m*3 11.38 C 4.40833 km/h
2871 28-04-2017 17:00:00 10.56667 C 7.06 g/m*3 10.33 C 5.225 km/h
2872 28-04-2017 18:00:00 11.55 C 8.22 g/m*3 11.55 C 2.53333 km/h
2873 28-04-2017 19:00:00 9.46667 C 7.84 g/m*3 9.47 C 1.46667 km/h
2874 28-04-2017 20:00:00 8.05833 C 7.45 g/m*3 8.06 C 0.26667 km/h
2875 28-04-2017 21:00:00 6.65833 C 6.91 g/m*3 6.66 C 0.13333 km/h
Sensor: Nr:Datum:Temp:Abs-Feuchte:Windchill:Wind:
Aussen-T/F 2876 28-04-2017 22:00:00 6.60833 C 7.02 g/m*3 6.61 C 1.06667 km/h
2877 28-04-2017 23:00:00 6.3 C 6.95 g/m*3 6.3 C 0.66667 km/h
2878 29-04-2017 00:00:00 6.14167 C 6.89 g/m*3 6.14 C 0.53333 km/h
2879 29-04-2017 01:00:00 5.79167 C 6.73 g/m*3 5.79 C 1.06667 km/h
2880 29-04-2017 02:00:00 5.76667 C 6.75 g/m*3 5.77 C 0 km/h
2881 29-04-2017 03:00:00 5.70833 C 6.72 g/m*3 5.71 C 0 km/h
2882 29-04-2017 04:00:00 4.7 C 6.24 g/m*3 4.7 C 0 km/h
2883 29-04-2017 05:00:00 4.075 C 6.01 g/m*3 4.08 C 0 km/h
2884 29-04-2017 06:00:00 3.675 C 5.87 g/m*3 3.68 C 0 km/h
2885 29-04-2017 07:00:00 3.96667 C 6.02 g/m*3 3.97 C 0 km/h
2886 29-04-2017 08:00:00 4.16667 C 6.11 g/m*3 4.17 C 0 km/h
2887 29-04-2017 09:00:00 5.425 C 6.58 g/m*3 5.43 C 2 km/h
2888 29-04-2017 10:00:00 8.24167 C 6.46 g/m*3 8.24 C 3.73333 km/h
2889 29-04-2017 11:00:00 9.51667 C 5.79 g/m*3 8.6 C 7.26667 km/h
2890 29-04-2017 12:00:00 10.29167 C 5.64 g/m*3 9.57 C 6.975 km/h
2891 29-04-2017 13:00:00 11 C 5.53 g/m*3 10.07 C 8.6 km/h
2892 29-04-2017 14:00:00 11.93333 C 5.57 g/m*3 11.93 C 7.78333 km/h
2893 29-04-2017 15:00:00 13.475 C 5.5 g/m*3 13.48 C 8.475 km/h
2894 29-04-2017 16:00:00 15.91667 C 5.65 g/m*3 15.92 C 7.925 km/h
2895 29-04-2017 17:00:00 15.94167 C 5.18 g/m*3 15.94 C 6.7 km/h
2896 29-04-2017 18:00:00 16.60833 C 5.14 g/m*3 16.61 C 5.625 km/h
2897 29-04-2017 19:00:00 14.96667 C 5.26 g/m*3 14.97 C 8.34167 km/h
2898 29-04-2017 20:00:00 12.15833 C 5.61 g/m*3 12.16 C 2.80833 km/h
2899 29-04-2017 21:00:00 8.64167 C 5.58 g/m*3 8.64 C 0.13333 km/h
2900 29-04-2017 22:00:00 7.20833 C 5.48 g/m*3 7.21 C 0.13333 km/h
Sensor: Nr:Datum:Temp:Abs-Feuchte:Windchill:Wind:
Aussen-T/F 2901 29-04-2017 23:00:00 5.675 C 5.33 g/m*3 5.68 C 0.13333 km/h
2902 30-04-2017 00:00:00 5.25833 C 5.33 g/m*3 5.26 C 1.06667 km/h
2903 30-04-2017 01:00:00 4.875 C 5.26 g/m*3 4.88 C 0.4 km/h
2904 30-04-2017 02:00:00 4.325 C 5.17 g/m*3 4.33 C 0.66667 km/h
2905 30-04-2017 03:00:00 4.01667 C 5.05 g/m*3 4.02 C 0.4 km/h
2906 30-04-2017 04:00:00 3.69167 C 5.01 g/m*3 3.69 C 0.8 km/h
2907 30-04-2017 05:00:00 3.225 C 4.93 g/m*3 3.23 C 0.13333 km/h
2908 30-04-2017 06:00:00 2.81667 C 4.94 g/m*3 2.82 C 0.13333 km/h
2909 30-04-2017 07:00:00 2.825 C 5.02 g/m*3 2.83 C 0 km/h
2910 30-04-2017 08:00:00 3.56667 C 5.33 g/m*3 3.57 C 0.13333 km/h
2911 30-04-2017 09:00:00 5.99167 C 6.07 g/m*3 5.99 C 1.6 km/h
2912 30-04-2017 10:00:00 10.225 C 6.44 g/m*3 9.76 C 5.89167 km/h
2913 30-04-2017 11:00:00 13.55833 C 6.23 g/m*3 13.56 C 9.80833 km/h
2914 30-04-2017 12:00:00 14.975 C 5.86 g/m*3 14.98 C 12.35833 km/h
2915 30-04-2017 13:00:00 15.88333 C 5.7 g/m*3 15.88 C 14.5 km/h
2916 30-04-2017 14:00:00 16.9 C 5.85 g/m*3 16.9 C 14.5 km/h
2917 30-04-2017 15:00:00 18.59167 C 5.99 g/m*3 18.59 C 14.23333 km/h
2918 30-04-2017 16:00:00 20.11667 C 5.9 g/m*3 20.12 C 15.3 km/h
2919 30-04-2017 17:00:00 20.575 C 5.96 g/m*3 20.58 C 12.09167 km/h
2920 30-04-2017 18:00:00 20.36667 C 5.84 g/m*3 20.37 C 10.49167 km/h
2921 30-04-2017 19:00:00 19.70833 C 5.83 g/m*3 19.71 C 6.975 km/h
2922 30-04-2017 20:00:00 16.175 C 6.7 g/m*3 16.18 C 1.6 km/h
2923 30-04-2017 21:00:00 12.71667 C 6.44 g/m*3 12.72 C 2 km/h
2924 30-04-2017 22:00:00 12.36667 C 6.25 g/m*3 12.37 C 2.66667 km/h
2925 30-04-2017 23:00:00 12.425 C 6.32 g/m*3 12.43 C 2.93333 km/h
Sensor: Nr:Datum:Temp:Abs-Feuchte:Windchill:Wind:
Aussen-T/F 2926 01-05-2017 00:00:00 11.575 C 6.47 g/m*3 11.58 C 4.28333 km/h
2927 01-05-2017 01:00:00 10.78333 C 6.63 g/m*3 10.78 C 2.4 km/h
2928 01-05-2017 02:00:00 9.73333 C 6.68 g/m*3 9.73 C 2.4 km/h
2929 01-05-2017 03:00:00 10.4 C 6.78 g/m*3 10.4 C 2.95833 km/h
2930 01-05-2017 04:00:00 9.775 C 6.76 g/m*3 9.78 C 0 km/h
2931 01-05-2017 05:00:00 9.40833 C 6.82 g/m*3 9.41 C 0 km/h
2932 01-05-2017 06:00:00 9.55 C 7.05 g/m*3 9.55 C 0 km/h
2933 01-05-2017 07:00:00 10.24167 C 7.53 g/m*3 10.24 C 3.35 km/h
2934 01-05-2017 08:00:00 10.48333 C 7.94 g/m*3 9.46 C 8.575 km/h
2935 01-05-2017 09:00:00 9.25833 C 7.96 g/m*3 8.27 C 7.39167 km/h
2936 01-05-2017 10:00:00 8.98333 C 8.08 g/m*3 8.98 C 4.66667 km/h
2937 01-05-2017 11:00:00 9.33333 C 8.37 g/m*3 9.33 C 3.06667 km/h
2938 01-05-2017 12:00:00 9.80833 C 8.59 g/m*3 9.81 C 1.2 km/h
2939 01-05-2017 13:00:00 10.35833 C 8.78 g/m*3 10.36 C 1.46667 km/h
2940 01-05-2017 14:00:00 10.89167 C 9.06 g/m*3 10.89 C 2.53333 km/h
2941 01-05-2017 15:00:00 11.23333 C 9.12 g/m*3 11.23 C 2.80833 km/h
2942 01-05-2017 16:00:00 11.46667 C 9.24 g/m*3 11.47 C 0.66667 km/h
2943 01-05-2017 17:00:00 11.3 C 9.31 g/m*3 11.3 C 0.13333 km/h
2944 01-05-2017 18:00:00 11.01667 C 9.29 g/m*3 11.02 C 0.4 km/h
2945 01-05-2017 19:00:00 10.65 C 9.11 g/m*3 10.65 C 0.26667 km/h
2946 01-05-2017 20:00:00 10.05 C 8.8 g/m*3 10.05 C 0 km/h
2947 01-05-2017 21:00:00 9.26667 C 8.43 g/m*3 9.27 C 0 km/h
2948 01-05-2017 22:00:00 8.90833 C 8.33 g/m*3 8.91 C 0 km/h
2949 01-05-2017 23:00:00 8.78333 C 8.26 g/m*3 8.78 C 0 km/h
2950 02-05-2017 00:00:00 8.30833 C 8.01 g/m*3 8.31 C 0 km/h
Sensor: Nr:Datum:Temp:Abs-Feuchte:Windchill:Wind:
Aussen-T/F 2951 02-05-2017 01:00:00 8.175 C 8.02 g/m*3 8.18 C 0 km/h
2952 02-05-2017 02:00:00 8.19167 C 8.03 g/m*3 8.19 C 0 km/h
2953 02-05-2017 03:00:00 8.225 C 8.05 g/m*3 8.23 C 0 km/h
2954 02-05-2017 04:00:00 8.24167 C 8.06 g/m*3 8.24 C 0 km/h
2955 02-05-2017 05:00:00 8.26667 C 8.07 g/m*3 8.27 C 0.26667 km/h
2956 02-05-2017 06:00:00 8.25833 C 8.07 g/m*3 8.26 C 0.26667 km/h
2957 02-05-2017 07:00:00 8.425 C 8.16 g/m*3 8.43 C 0.13333 km/h
2958 02-05-2017 08:00:00 8.625 C 8.26 g/m*3 8.63 C 0.13333 km/h
2959 02-05-2017 09:00:00 8.63333 C 8.27 g/m*3 8.63 C 0.4 km/h
2960 02-05-2017 10:00:00 8.60833 C 8.26 g/m*3 8.61 C 0 km/h
2961 02-05-2017 11:00:00 8.91667 C 8.47 g/m*3 8.92 C 1.73333 km/h
2962 02-05-2017 12:00:00 9.28333 C 8.62 g/m*3 9.28 C 2.4 km/h
2963 02-05-2017 13:00:00 9.93333 C 8.94 g/m*3 9.65 C 5.08333 km/h
2964 02-05-2017 14:00:00 10.69167 C 9.2 g/m*3 10.69 C 3.475 km/h
2965 02-05-2017 15:00:00 10.725 C 9.13 g/m*3 10.73 C 2.53333 km/h
2966 02-05-2017 16:00:00 10.51667 C 9.09 g/m*3 10.52 C 0.8 km/h
2967 02-05-2017 17:00:00 10.28333 C 9.06 g/m*3 10.28 C 1.06667 km/h
2968 02-05-2017 18:00:00 10.16667 C 9.06 g/m*3 10.17 C 0.13333 km/h
2969 02-05-2017 19:00:00 9.96667 C 8.98 g/m*3 9.97 C 1.34167 km/h
2970 02-05-2017 20:00:00 9.05 C 8.4 g/m*3 9.05 C 0.53333 km/h
2971 02-05-2017 21:00:00 8.65 C 8.23 g/m*3 8.65 C 0 km/h
2972 02-05-2017 22:00:00 8.24167 C 8.02 g/m*3 8.24 C 0.13333 km/h
2973 02-05-2017 23:00:00 7.825 C 7.83 g/m*3 7.83 C 0 km/h
2974 03-05-2017 00:00:00 7.53333 C 7.7 g/m*3 7.53 C 0 km/h
2975 03-05-2017 01:00:00 7.36667 C 7.62 g/m*3 7.37 C 0 km/h
Sensor: Nr:Datum:Temp:Abs-Feuchte:Windchill:Wind:
Aussen-T/F 2976 03-05-2017 02:00:00 7.3 C 7.58 g/m*3 7.3 C 0 km/h
2977 03-05-2017 03:00:00 7.2 C 7.54 g/m*3 7.2 C 0 km/h
2978 03-05-2017 04:00:00 7.26667 C 7.57 g/m*3 7.27 C 0 km/h
2979 03-05-2017 05:00:00 7.35833 C 7.69 g/m*3 7.36 C 0 km/h
2980 03-05-2017 06:00:00 7.51667 C 7.77 g/m*3 7.52 C 0 km/h
2981 03-05-2017 07:00:00 7.74167 C 7.89 g/m*3 7.74 C 0 km/h
2982 03-05-2017 08:00:00 8.08333 C 8.06 g/m*3 8.08 C 1.46667 km/h
2983 03-05-2017 09:00:00 9.075 C 8.59 g/m*3 9.07 C 2.4 km/h
2984 03-05-2017 10:00:00 10.45 C 9.24 g/m*3 9.97 C 6.05833 km/h
2985 03-05-2017 11:00:00 11.73333 C 9.5 g/m*3 11.73 C 5.90833 km/h
2986 03-05-2017 12:00:00 12.475 C 9.56 g/m*3 12.48 C 5.35 km/h
2987 03-05-2017 13:00:00 14.05 C 9.46 g/m*3 14.05 C 10.48333 km/h
2988 03-05-2017 14:00:00 14.86667 C 9.36 g/m*3 14.87 C 7.66667 km/h
2989 03-05-2017 15:00:00 13.13333 C 9.45 g/m*3 13.13 C 4.825 km/h
2990 03-05-2017 16:00:00 12.525 C 9.18 g/m*3 12.53 C 2.26667 km/h
2991 03-05-2017 17:00:00 12.95833 C 9.15 g/m*3 12.96 C 1.73333 km/h
2992 03-05-2017 18:00:00 12.53333 C 8.91 g/m*3 12.53 C 5.49167 km/h
2993 03-05-2017 19:00:00 11.73333 C 9.07 g/m*3 11.73 C 0.66667 km/h
2994 03-05-2017 20:00:00 10.88333 C 8.96 g/m*3 10.88 C 0 km/h
2995 03-05-2017 21:00:00 10.29167 C 8.85 g/m*3 10.29 C 0 km/h
2996 03-05-2017 22:00:00 9.98333 C 8.77 g/m*3 9.98 C 0 km/h
2997 03-05-2017 23:00:00 9.70833 C 8.67 g/m*3 9.71 C 0 km/h
2998 04-05-2017 00:00:00 9.64167 C 8.69 g/m*3 9.64 C 0 km/h
2999 04-05-2017 01:00:00 9.71667 C 8.77 g/m*3 9.72 C 0 km/h
3000 04-05-2017 02:00:00 9.79167 C 8.81 g/m*3 9.79 C 0 km/h
Sensor: Nr:Datum:Temp:Abs-Feuchte:Windchill:Wind:
Aussen-T/F 3001 04-05-2017 03:00:00 9.74167 C 8.78 g/m*3 9.74 C 1.06667 km/h
3002 04-05-2017 04:00:00 9.74167 C 8.78 g/m*3 9.74 C 0 km/h
3003 04-05-2017 05:00:00 9.7 C 8.76 g/m*3 9.7 C 0 km/h
3004 04-05-2017 06:00:00 9.73333 C 8.8 g/m*3 9.73 C 0 km/h
3005 04-05-2017 07:00:00 10.01667 C 9.03 g/m*3 10.02 C 0 km/h
3006 04-05-2017 08:00:00 10.375 C 9.2 g/m*3 10.38 C 0 km/h
3007 04-05-2017 09:00:00 10.80833 C 9.36 g/m*3 10.81 C 0 km/h
3008 04-05-2017 10:00:00 11.41667 C 9.49 g/m*3 11.42 C 0.66667 km/h
3009 04-05-2017 11:00:00 11.90833 C 9.78 g/m*3 11.91 C 0.13333 km/h
3010 04-05-2017 12:00:00 12.25833 C 10.13 g/m*3 12.26 C 0.66667 km/h
3011 04-05-2017 13:00:00 13.13333 C 10.5 g/m*3 13.13 C 1.86667 km/h
3012 04-05-2017 14:00:00 13.64167 C 10.42 g/m*3 13.64 C 5.625 km/h
3013 04-05-2017 15:00:00 14.71667 C 10.2 g/m*3 14.72 C 10.35833 km/h
3014 04-05-2017 16:00:00 14.33333 C 9.76 g/m*3 14.33 C 9.94167 km/h
3015 04-05-2017 17:00:00 14.91667 C 9.57 g/m*3 14.92 C 10.34167 km/h
3016 04-05-2017 18:00:00 14.15833 C 9.2 g/m*3 14.16 C 9.54167 km/h
3017 04-05-2017 19:00:00 13.35833 C 9.56 g/m*3 13.36 C 1.06667 km/h
3018 04-05-2017 20:00:00 12.36667 C 9.45 g/m*3 12.37 C 0 km/h
3019 04-05-2017 21:00:00 11.575 C 9.24 g/m*3 11.58 C 1.46667 km/h
3020 04-05-2017 22:00:00 11.45833 C 9.09 g/m*3 11.46 C 1.2 km/h
3021 04-05-2017 23:00:00 11.025 C 8.75 g/m*3 11.03 C 4.14167 km/h
3022 05-05-2017 00:00:00 10.725 C 8.45 g/m*3 10.51 C 5.225 km/h
3023 05-05-2017 01:00:00 10.325 C 8.3 g/m*3 10.33 C 2.13333 km/h
3024 05-05-2017 02:00:00 10.06667 C 8.3 g/m*3 10.07 C 3.46667 km/h
3025 05-05-2017 03:00:00 9.79167 C 8.22 g/m*3 9.79 C 1.86667 km/h
Sensor: Nr:Datum:Temp:Abs-Feuchte:Windchill:Wind:
Aussen-T/F 3026 05-05-2017 04:00:00 9.63333 C 8.19 g/m*3 9.63 C 0.8 km/h
3027 05-05-2017 05:00:00 9.475 C 8.16 g/m*3 9.48 C 0.13333 km/h
3028 05-05-2017 06:00:00 9.30833 C 8.18 g/m*3 9.31 C 0.4 km/h
3029 05-05-2017 07:00:00 9.38333 C 8.17 g/m*3 9.38 C 2.66667 km/h
3030 05-05-2017 08:00:00 9.75 C 8.28 g/m*3 9.75 C 1.73333 km/h
3031 05-05-2017 09:00:00 10.36667 C 8.43 g/m*3 10.37 C 4 km/h
3032 05-05-2017 10:00:00 11.11667 C 8.42 g/m*3 11.12 C 3.875 km/h
3033 05-05-2017 11:00:00 11.70833 C 8.45 g/m*3 11.71 C 4.66667 km/h
3034 05-05-2017 12:00:00 12.375 C 8.55 g/m*3 12.38 C 1.73333 km/h
3035 05-05-2017 13:00:00 13.30833 C 8.68 g/m*3 13.31 C 2.93333 km/h
3036 05-05-2017 14:00:00 13.66667 C 8.41 g/m*3 13.67 C 4.00833 km/h
3037 05-05-2017 15:00:00 14.11667 C 8.25 g/m*3 14.12 C 2 km/h
3038 05-05-2017 16:00:00 14.21667 C 8.6 g/m*3 14.22 C 2.93333 km/h
3039 05-05-2017 17:00:00 14.9 C 8.77 g/m*3 14.9 C 8.075 km/h
3040 05-05-2017 18:00:00 16.25833 C 8.78 g/m*3 16.26 C 8.6 km/h
3041 05-05-2017 19:00:00 15.5 C 8.55 g/m*3 15.5 C 7.91667 km/h
3042 05-05-2017 20:00:00 13.9 C 8.72 g/m*3 13.9 C 2.40833 km/h
3043 05-05-2017 21:00:00 10.73333 C 8.15 g/m*3 10.73 C 0.53333 km/h
3044 05-05-2017 22:00:00 9.325 C 7.9 g/m*3 9.32 C 0 km/h
3045 05-05-2017 23:00:00 7.975 C 7.5 g/m*3 7.98 C 0 km/h
3046 06-05-2017 00:00:00 7.11667 C 7.24 g/m*3 7.12 C 0 km/h
3047 06-05-2017 01:00:00 6.76667 C 7.17 g/m*3 6.77 C 0 km/h
3048 06-05-2017 02:00:00 6.73333 C 7.23 g/m*3 6.73 C 0 km/h
3049 06-05-2017 03:00:00 6.24167 C 7.01 g/m*3 6.24 C 0 km/h
3050 06-05-2017 04:00:00 6.075 C 6.93 g/m*3 6.08 C 0 km/h
Sensor: Nr:Datum:Temp:Abs-Feuchte:Windchill:Wind:
Aussen-T/F 3051 06-05-2017 05:00:00 5.39167 C 6.62 g/m*3 5.39 C 0 km/h
3052 06-05-2017 06:00:00 5.09167 C 6.52 g/m*3 5.09 C 0 km/h
3053 06-05-2017 07:00:00 6.03333 C 6.98 g/m*3 6.03 C 0.13333 km/h
3054 06-05-2017 08:00:00 6.95833 C 7.44 g/m*3 6.96 C 0 km/h
3055 06-05-2017 09:00:00 8.81667 C 8.45 g/m*3 8.82 C 2.675 km/h
3056 06-05-2017 10:00:00 11.78333 C 9.44 g/m*3 11.78 C 9.01667 km/h
3057 06-05-2017 11:00:00 15.3 C 9.86 g/m*3 15.3 C 10.36667 km/h
3058 06-05-2017 12:00:00 17.53333 C 9.35 g/m*3 17.53 C 11.825 km/h
3059 06-05-2017 13:00:00 18.94167 C 8.44 g/m*3 18.94 C 9.55833 km/h
3060 06-05-2017 14:00:00 19.79167 C 8.39 g/m*3 19.79 C 13.15833 km/h
3061 06-05-2017 15:00:00 20.725 C 8.67 g/m*3 20.73 C 9.54167 km/h
3062 06-05-2017 16:00:00 21.28333 C 8.81 g/m*3 21.28 C 6.3 km/h
3063 06-05-2017 17:00:00 20.61667 C 9.48 g/m*3 20.62 C 3.06667 km/h
3064 06-05-2017 18:00:00 20.14167 C 10.32 g/m*3 20.14 C 1.2 km/h
3065 06-05-2017 19:00:00 18.09167 C 10.73 g/m*3 18.09 C 0 km/h
3066 06-05-2017 20:00:00 16.48333 C 10.38 g/m*3 16.48 C 0.4 km/h
3067 06-05-2017 21:00:00 15.1 C 10.06 g/m*3 15.1 C 3.75833 km/h
3068 06-05-2017 22:00:00 14.79167 C 9.95 g/m*3 14.79 C 4.825 km/h
3069 06-05-2017 23:00:00 14.04167 C 10.17 g/m*3 14.04 C 0.53333 km/h
3070 07-05-2017 00:00:00 13.4 C 10.33 g/m*3 13.4 C 0 km/h
3071 07-05-2017 01:00:00 12.80833 C 10.27 g/m*3 12.81 C 0 km/h
3072 07-05-2017 02:00:00 12.49167 C 10.19 g/m*3 12.49 C 0 km/h
3073 07-05-2017 03:00:00 12.30833 C 10.19 g/m*3 12.31 C 0 km/h
3074 07-05-2017 04:00:00 12.3 C 10.22 g/m*3 12.3 C 0 km/h
3075 07-05-2017 05:00:00 12.11667 C 10.2 g/m*3 12.12 C 0 km/h
Sensor: Nr:Datum:Temp:Abs-Feuchte:Windchill:Wind:
Aussen-T/F 3076 07-05-2017 06:00:00 11.85 C 10.06 g/m*3 11.85 C 0 km/h
3077 07-05-2017 07:00:00 12.1 C 10.29 g/m*3 12.1 C 0 km/h
3078 07-05-2017 08:00:00 12.8 C 10.75 g/m*3 12.8 C 0 km/h
3079 07-05-2017 09:00:00 13.30833 C 11.1 g/m*3 13.31 C 0.53333 km/h
3080 07-05-2017 10:00:00 13.83333 C 11.43 g/m*3 13.83 C 0.8 km/h
3081 07-05-2017 11:00:00 13.93333 C 11.32 g/m*3 13.93 C 4.40833 km/h
3082 07-05-2017 12:00:00 14.03333 C 11.1 g/m*3 14.03 C 7.10833 km/h
3083 07-05-2017 13:00:00 13.74167 C 10.93 g/m*3 13.74 C 5.63333 km/h
3084 07-05-2017 14:00:00 13.7 C 11 g/m*3 13.7 C 1.46667 km/h
3085 07-05-2017 15:00:00 14.04167 C 11.29 g/m*3 14.04 C 3.475 km/h
3086 07-05-2017 16:00:00 14.50833 C 11.52 g/m*3 14.51 C 0.53333 km/h
3087 07-05-2017 17:00:00 14.5 C 11.65 g/m*3 14.5 C 0.26667 km/h
3088 07-05-2017 18:00:00 14.11667 C 11.42 g/m*3 14.12 C 0.93333 km/h
3089 07-05-2017 19:00:00 13.325 C 10.88 g/m*3 13.33 C 2 km/h
3090 07-05-2017 20:00:00 13.09167 C 10.57 g/m*3 13.09 C 6.04167 km/h
3091 07-05-2017 21:00:00 12.68333 C 10.35 g/m*3 12.68 C 4.55 km/h
3092 07-05-2017 22:00:00 12.33333 C 10.23 g/m*3 12.33 C 3.35 km/h
3093 07-05-2017 23:00:00 12.11667 C 10.05 g/m*3 12.12 C 8.86667 km/h
3094 08-05-2017 00:00:00 11.78333 C 9.78 g/m*3 11.78 C 6.98333 km/h
3095 08-05-2017 01:00:00 11.34167 C 9.58 g/m*3 11.34 C 6.84167 km/h
3096 08-05-2017 02:00:00 10.925 C 9.36 g/m*3 10.63 C 5.64167 km/h
3097 08-05-2017 03:00:00 10.29167 C 8.93 g/m*3 9.23 C 8.6 km/h
3098 08-05-2017 04:00:00 9.3 C 8.25 g/m*3 7.71 C 10.49167 km/h
3099 08-05-2017 05:00:00 8.44167 C 7.75 g/m*3 6.88 C 9.425 km/h
3100 08-05-2017 06:00:00 7.88333 C 7.27 g/m*3 6.14 C 9.81667 km/h
Sensor: Nr:Datum:Temp:Abs-Feuchte:Windchill:Wind:
Aussen-T/F 3101 08-05-2017 07:00:00 7.90833 C 7.25 g/m*3 6.91 C 6.56667 km/h
3102 08-05-2017 08:00:00 8.2 C 7.33 g/m*3 7.32 C 6.30833 km/h
3103 08-05-2017 09:00:00 8.65833 C 7.5 g/m*3 7.81 C 6.45 km/h
3104 08-05-2017 10:00:00 9.075 C 7.64 g/m*3 8.59 C 5.36667 km/h
3105 08-05-2017 11:00:00 9.35833 C 7.79 g/m*3 8.48 C 6.98333 km/h
3106 08-05-2017 12:00:00 9.525 C 7.67 g/m*3 7.57 C 13.16667 km/h
3107 08-05-2017 13:00:00 9.56667 C 7.32 g/m*3 7.88 C 11.425 km/h
3108 08-05-2017 14:00:00 10.11667 C 7.24 g/m*3 9.28 C 7.375 km/h
3109 08-05-2017 15:00:00 10.21667 C 7.41 g/m*3 8.99 C 9.41667 km/h
3110 08-05-2017 16:00:00 10.625 C 7.47 g/m*3 9.73 C 8.05 km/h
3111 08-05-2017 17:00:00 10.46667 C 7.71 g/m*3 9.29 C 9.4 km/h
3112 08-05-2017 18:00:00 10.10833 C 7.92 g/m*3 8.91 C 9.15 km/h
3113 08-05-2017 19:00:00 9.94167 C 8.13 g/m*3 9.3 C 6.425 km/h
3114 08-05-2017 20:00:00 9.84167 C 8.17 g/m*3 9.84 C 3.73333 km/h
3115 08-05-2017 21:00:00 9.65833 C 8.25 g/m*3 9.66 C 2 km/h
3116 08-05-2017 22:00:00 9.48333 C 8.27 g/m*3 9.48 C 1.86667 km/h
3117 08-05-2017 23:00:00 8.71667 C 7.91 g/m*3 8.72 C 0 km/h
3118 09-05-2017 00:00:00 7.475 C 7.43 g/m*3 7.48 C 0.13333 km/h
3119 09-05-2017 01:00:00 6.725 C 7.16 g/m*3 6.73 C 0 km/h
3120 09-05-2017 02:00:00 6.15833 C 6.91 g/m*3 6.16 C 0 km/h
3121 09-05-2017 03:00:00 5.66667 C 6.75 g/m*3 5.67 C 0 km/h
3122 09-05-2017 04:00:00 5.8 C 6.84 g/m*3 5.8 C 0 km/h
3123 09-05-2017 05:00:00 6.21667 C 7.07 g/m*3 6.22 C 0.13333 km/h
3124 09-05-2017 06:00:00 6.25 C 7.08 g/m*3 6.25 C 0.93333 km/h
3125 09-05-2017 07:00:00 6.13333 C 6.96 g/m*3 6.13 C 0.66667 km/h
Sensor: Nr:Datum:Temp:Abs-Feuchte:Windchill:Wind:
Aussen-T/F 3126 09-05-2017 08:00:00 6.7 C 7.03 g/m*3 6.7 C 1.46667 km/h
3127 09-05-2017 09:00:00 7.475 C 6.94 g/m*3 7.48 C 1.875 km/h
3128 09-05-2017 10:00:00 9.16667 C 6.09 g/m*3 8.47 C 6.16667 km/h
3129 09-05-2017 11:00:00 10.25 C 4.99 g/m*3 8.53 C 12.63333 km/h
3130 09-05-2017 12:00:00 11.00833 C 5.09 g/m*3 11.01 C 12.625 km/h
3131 09-05-2017 13:00:00 11.93333 C 5 g/m*3 11.93 C 10.20833 km/h
3132 09-05-2017 14:00:00 12.68333 C 5.13 g/m*3 12.68 C 8.73333 km/h
3133 09-05-2017 15:00:00 14.14167 C 5.31 g/m*3 14.14 C 9.53333 km/h
3134 09-05-2017 16:00:00 15.10833 C 5.46 g/m*3 15.11 C 7.65833 km/h
3135 09-05-2017 17:00:00 15.73333 C 5.54 g/m*3 15.73 C 7.65 km/h
3136 09-05-2017 18:00:00 16.025 C 5.49 g/m*3 16.02 C 8.88333 km/h
3137 09-05-2017 19:00:00 15.03333 C 5.55 g/m*3 15.03 C 7.525 km/h
3138 09-05-2017 20:00:00 12.91667 C 5.87 g/m*3 12.92 C 3.34167 km/h
3139 09-05-2017 21:00:00 9.5 C 6.36 g/m*3 9.5 C 1.06667 km/h
3140 09-05-2017 22:00:00 8.11667 C 6.17 g/m*3 8.12 C 0.53333 km/h
3141 09-05-2017 23:00:00 6.56667 C 6.19 g/m*3 6.57 C 0 km/h
3142 10-05-2017 00:00:00 5.15833 C 5.9 g/m*3 5.16 C 0 km/h
3143 10-05-2017 01:00:00 4.25833 C 5.72 g/m*3 4.26 C 0 km/h
3144 10-05-2017 02:00:00 3.75 C 5.64 g/m*3 3.75 C 0 km/h
3145 10-05-2017 03:00:00 3.15833 C 5.49 g/m*3 3.16 C 0 km/h
3146 10-05-2017 04:00:00 2.56667 C 5.33 g/m*3 2.57 C 0 km/h
3147 10-05-2017 05:00:00 2.11667 C 5.22 g/m*3 2.12 C 0 km/h
3148 10-05-2017 06:00:00 1.85 C 5.17 g/m*3 1.85 C 0 km/h
3149 10-05-2017 07:00:00 2.175 C 5.32 g/m*3 2.17 C 0 km/h
3150 10-05-2017 08:00:00 3.14167 C 5.7 g/m*3 3.14 C 0 km/h
Sensor: Nr:Datum:Temp:Abs-Feuchte:Windchill:Wind:
Aussen-T/F 3151 10-05-2017 09:00:00 4.775 C 6.35 g/m*3 4.78 C 0 km/h
3152 10-05-2017 10:00:00 7.55 C